Darstellungsparameter: Aktuell verwendete Einstellungen:
Skalierung der Graphiken ... ?
xyx+y,   Skalierungsfaktor:      Skalierung: Modus: x, Faktor: 1
Darstellungszeitraum ... ?
Vom - - bis: - -   Zeitraum: 03.06.2009 - 03.12.2009
Min/Max/Avg-Anzeige ... ?
Zeige MMA aktuell
Zeige MMA Monat
Zeige MMA alles
Zeige --A aktuell
Zeige --A Monat
Zeige --A alles
Keine MMA-Anzeige
MMA:
Minimum Maximum Average (ber die Originaldaten)
MMA-Basis: 14.04.2020 - 16.05.2020
Quicknavigation für Darstellung... ?
Tage:      1T, 2T, 3T, 5T -1T -2T -3T -5T +1T +2T +3T +5T
Wochen: 1W, 2W, 3W -1W -2W -3W +1W +2W +3W
Monate: 1M, 3M, 6M -1M -3M -6M +1M +3M +6M
Jahre:    1J, 3J, 5J, 10J -1J -3J -5J -10J +1J +3J +5J +10J
Nutze für die Darstellung ... ?
Originaldaten oder Mittelwerte auf ...
Stundenbasis Tagesbasis Wochenbasis
Monatsbasis Jahresbasis      Datenbasis: Original-Daten
Darstellen als:
Statistik (Auto) Statistik J:M      Darstellung:
Zur Graphik,    zurück zur Übersicht aller Sensoren.
 
Tabellarische Datenbersicht: ?
 
Sensor: Nr:Datum:Temp:Abs-Feuchte:Windchill:Wind:
Aussen-T/F 1 03-06-2009 00:03:45 19.7 C 5.77 g/m*3 19.7 C 0 km/h
2 03-06-2009 00:15:45 19.4 C 5.67 g/m*3 19.4 C 0 km/h
3 03-06-2009 00:27:45 19 C 5.38 g/m*3 19 C 0 km/h
4 03-06-2009 00:39:44 18.6 C 5.57 g/m*3 18.6 C 0 km/h
5 03-06-2009 00:51:45 18.2 C 5.44 g/m*3 18.2 C 0 km/h
6 03-06-2009 01:03:44 17.9 C 5.5 g/m*3 17.9 C 0 km/h
7 03-06-2009 01:15:44 17.7 C 5.43 g/m*3 17.7 C 0 km/h
8 03-06-2009 01:27:44 17.3 C 5.3 g/m*3 17.3 C 0 km/h
9 03-06-2009 01:39:44 17.1 C 5.24 g/m*3 17.1 C 0 km/h
10 03-06-2009 01:51:44 16.8 C 5.29 g/m*3 16.8 C 0 km/h
11 03-06-2009 02:03:44 16.4 C 5.16 g/m*3 16.4 C 0 km/h
12 03-06-2009 02:15:43 16 C 5.18 g/m*3 16 C 0 km/h
13 03-06-2009 02:27:43 15.7 C 5.22 g/m*3 15.7 C 0 km/h
14 03-06-2009 02:39:44 15.4 C 5.65 g/m*3 15.4 C 0 km/h
15 03-06-2009 02:52:45 15.1 C 5.81 g/m*3 15.1 C 0 km/h
16 03-06-2009 03:04:45 15 C 5.77 g/m*3 15 C 0 km/h
17 03-06-2009 03:16:45 14.6 C 5.88 g/m*3 14.6 C 0 km/h
18 03-06-2009 03:28:45 14.4 C 5.81 g/m*3 14.4 C 0 km/h
19 03-06-2009 03:40:45 14.2 C 5.74 g/m*3 14.2 C 0 km/h
20 03-06-2009 03:52:45 13.8 C 5.96 g/m*3 13.8 C 0 km/h
21 03-06-2009 04:04:45 13.7 C 6.04 g/m*3 13.7 C 0 km/h
22 03-06-2009 04:16:44 13.6 C 6 g/m*3 13.6 C 0 km/h
23 03-06-2009 04:28:44 13.5 C 5.97 g/m*3 13.5 C 0 km/h
24 03-06-2009 04:40:45 13.3 C 6.01 g/m*3 13.3 C 0 km/h
25 03-06-2009 04:52:44 13.1 C 5.93 g/m*3 13.1 C 0 km/h
Sensor: Nr:Datum:Temp:Abs-Feuchte:Windchill:Wind:
Aussen-T/F 26 03-06-2009 05:04:44 13 C 5.9 g/m*3 13 C 0 km/h
27 03-06-2009 05:16:44 13 C 5.9 g/m*3 13 C 0 km/h
28 03-06-2009 05:28:44 12.8 C 5.94 g/m*3 12.8 C 0 km/h
29 03-06-2009 05:40:44 12.7 C 6.01 g/m*3 12.7 C 0 km/h
30 03-06-2009 05:52:44 12.7 C 6.01 g/m*3 12.7 C 0 km/h
31 03-06-2009 06:04:43 12.9 C 6.2 g/m*3 12.9 C 0 km/h
32 03-06-2009 06:16:43 13 C 6.24 g/m*3 13 C 0 km/h
33 03-06-2009 06:28:43 13 C 6.24 g/m*3 13 C 0 km/h
34 03-06-2009 06:40:43 13 C 6.35 g/m*3 13 C 0 km/h
35 03-06-2009 06:52:43 12.9 C 6.54 g/m*3 12.9 C 0 km/h
36 03-06-2009 07:04:42 12.8 C 6.27 g/m*3 12.8 C 0 km/h
37 03-06-2009 07:16:43 12.7 C 6.35 g/m*3 12.7 C 0 km/h
38 03-06-2009 07:28:43 12.5 C 6.05 g/m*3 12.5 C 0 km/h
39 03-06-2009 07:40:43 12.8 C 6.16 g/m*3 12.8 C 0 km/h
40 03-06-2009 07:52:42 12.9 C 6.2 g/m*3 12.9 C 0 km/h
41 03-06-2009 08:04:43 12.8 C 5.94 g/m*3 12.8 C 0 km/h
42 03-06-2009 08:16:42 12.8 C 5.94 g/m*3 12.8 C 0 km/h
43 03-06-2009 08:28:42 13 C 5.9 g/m*3 13 C 0 km/h
44 03-06-2009 08:40:42 13 C 5.67 g/m*3 13 C 0 km/h
45 03-06-2009 08:52:42 13.1 C 5.48 g/m*3 13.1 C 0 km/h
46 03-06-2009 09:04:42 13.5 C 5.5 g/m*3 13.5 C 0 km/h
47 03-06-2009 09:16:41 13.9 C 5.39 g/m*3 13.9 C 0 km/h
48 03-06-2009 09:28:41 13.9 C 5.04 g/m*3 13.9 C 0 km/h
49 03-06-2009 09:40:41 14.6 C 5.13 g/m*3 14.6 C 0 km/h
50 03-06-2009 09:52:41 14.7 C 5.67 g/m*3 14.7 C 0 km/h
Sensor: Nr:Datum:Temp:Abs-Feuchte:Windchill:Wind:
Aussen-T/F 51 03-06-2009 10:04:41 14.2 C 5.62 g/m*3 14.2 C 0 km/h
52 03-06-2009 10:16:41 14.9 C 5.23 g/m*3 14.9 C 0 km/h
53 03-06-2009 10:28:41 14.6 C 5.63 g/m*3 14.6 C 0 km/h
54 03-06-2009 10:40:41 15 C 5.39 g/m*3 15 C 0 km/h
55 03-06-2009 10:52:41 15.4 C 5.26 g/m*3 15.4 C 0 km/h
56 03-06-2009 11:04:40 14.9 C 5.23 g/m*3 14.9 C 0 km/h
57 03-06-2009 11:16:41 15.2 C 5.19 g/m*3 15.2 C 0 km/h
58 03-06-2009 11:28:41 16 C 5.31 g/m*3 16 C 0 km/h
59 03-06-2009 11:40:40 16.8 C 5.43 g/m*3 16.8 C 0 km/h
60 03-06-2009 11:52:40 17 C 5.21 g/m*3 17 C 0 km/h
61 03-06-2009 12:04:40 16.7 C 4.97 g/m*3 16.7 C 0 km/h
62 03-06-2009 12:16:40 16.8 C 4.86 g/m*3 16.8 C 0 km/h
63 03-06-2009 12:28:40 17.7 C 4.98 g/m*3 17.7 C 0 km/h
64 03-06-2009 12:40:39 17.9 C 4.73 g/m*3 17.9 C 0 km/h
65 03-06-2009 12:52:40 18.8 C 4.83 g/m*3 18.8 C 0 km/h
66 03-06-2009 13:04:40 17.3 C 4.42 g/m*3 17.3 C 0 km/h
67 03-06-2009 13:16:39 18.2 C 4.66 g/m*3 18.2 C 0 km/h
68 03-06-2009 13:28:39 19.5 C 4.53 g/m*3 19.5 C 0 km/h
69 03-06-2009 13:40:39 18.4 C 4.09 g/m*3 18.4 C 0 km/h
70 03-06-2009 13:52:39 19.8 C 4.27 g/m*3 19.8 C 0 km/h
71 03-06-2009 14:04:39 19.3 C 4.15 g/m*3 19.3 C 0 km/h
72 03-06-2009 14:16:38 20.1 C 4.35 g/m*3 20.1 C 0 km/h
73 03-06-2009 14:28:38 19.3 C 4.31 g/m*3 19.3 C 0 km/h
74 03-06-2009 14:40:39 19.1 C 4.43 g/m*3 19.1 C 0 km/h
75 03-06-2009 14:52:38 19.7 C 4.92 g/m*3 19.7 C 0 km/h
Sensor: Nr:Datum:Temp:Abs-Feuchte:Windchill:Wind:
Aussen-T/F 76 03-06-2009 15:04:38 20.5 C 4.45 g/m*3 20.5 C 0 km/h
77 03-06-2009 15:16:39 20 C 4.67 g/m*3 20 C 0 km/h
78 03-06-2009 15:28:39 20.8 C 4.53 g/m*3 20.8 C 0 km/h
79 03-06-2009 15:40:38 20.4 C 4.6 g/m*3 20.4 C 0 km/h
80 03-06-2009 15:52:37 20.9 C 4.55 g/m*3 20.9 C 0 km/h
81 03-06-2009 16:04:38 20.1 C 4.52 g/m*3 20.1 C 0 km/h
82 03-06-2009 16:16:38 20.4 C 4.42 g/m*3 20.4 C 0 km/h
83 03-06-2009 16:28:38 20.2 C 4.55 g/m*3 20.2 C 0 km/h
84 03-06-2009 16:40:37 20.3 C 4.75 g/m*3 20.3 C 0 km/h
85 03-06-2009 16:52:38 20 C 4.32 g/m*3 20 C 0 km/h
86 03-06-2009 17:04:37 20.3 C 4.57 g/m*3 20.3 C 0 km/h
87 03-06-2009 17:16:37 20.6 C 4.65 g/m*3 20.6 C 0 km/h
88 03-06-2009 17:28:37 20.7 C 4.32 g/m*3 20.7 C 0 km/h
89 03-06-2009 17:40:36 19.4 C 4.34 g/m*3 19.4 C 0 km/h
90 03-06-2009 17:52:37 20.6 C 4.12 g/m*3 20.6 C 0 km/h
91 03-06-2009 18:04:36 19.2 C 3.79 g/m*3 19.2 C 0 km/h
92 03-06-2009 18:16:36 20.3 C 4.05 g/m*3 20.3 C 0 km/h
93 03-06-2009 18:28:36 19.3 C 3.98 g/m*3 19.3 C 0 km/h
94 03-06-2009 18:40:37 20 C 4.32 g/m*3 20 C 0 km/h
95 03-06-2009 18:52:36 19 C 4.24 g/m*3 19 C 0 km/h
96 03-06-2009 19:04:36 19.1 C 4.26 g/m*3 19.1 C 0 km/h
97 03-06-2009 19:16:36 18.8 C 4.51 g/m*3 18.8 C 0 km/h
98 03-06-2009 19:28:36 18.1 C 4.64 g/m*3 18.1 C 0 km/h
99 03-06-2009 19:40:36 18 C 4.61 g/m*3 18 C 0 km/h
100 03-06-2009 19:52:36 18 C 4.76 g/m*3 18 C 0 km/h
Sensor: Nr:Datum:Temp:Abs-Feuchte:Windchill:Wind:
Aussen-T/F 101 03-06-2009 20:04:36 17.7 C 4.83 g/m*3 17.7 C 0 km/h
102 03-06-2009 20:16:36 16.9 C 5.03 g/m*3 16.9 C 0 km/h
103 03-06-2009 20:28:36 16.6 C 5.09 g/m*3 16.6 C 0 km/h
104 03-06-2009 20:40:35 16.4 C 5.02 g/m*3 16.4 C 0 km/h
105 03-06-2009 20:52:34 16.5 C 4.91 g/m*3 16.5 C 0 km/h
106 03-06-2009 21:04:35 16.1 C 4.8 g/m*3 16.1 C 0 km/h
107 03-06-2009 21:16:35 16 C 4.77 g/m*3 16 C 0 km/h
108 03-06-2009 21:28:35 15.9 C 4.88 g/m*3 15.9 C 0 km/h
109 03-06-2009 21:40:34 15.5 C 4.63 g/m*3 15.5 C 0 km/h
110 03-06-2009 21:52:35 15.4 C 4.73 g/m*3 15.4 C 0 km/h
111 03-06-2009 22:05:35 15.3 C 4.7 g/m*3 15.3 C 0 km/h
112 03-06-2009 22:17:35 15.2 C 4.67 g/m*3 15.2 C 0 km/h
113 03-06-2009 22:29:35 15 C 4.62 g/m*3 15 C 0 km/h
114 03-06-2009 22:41:35 14.7 C 4.78 g/m*3 14.7 C 0 km/h
115 03-06-2009 22:53:35 14.9 C 4.84 g/m*3 14.9 C 0 km/h
116 03-06-2009 23:05:35 14.8 C 4.69 g/m*3 14.8 C 0 km/h
117 03-06-2009 23:17:35 14.6 C 4.88 g/m*3 14.6 C 0 km/h
118 03-06-2009 23:29:36 14.5 C 4.97 g/m*3 14.5 C 0 km/h
119 03-06-2009 23:41:36 14.2 C 5.01 g/m*3 14.2 C 0 km/h
120 03-06-2009 23:53:36 14 C 5.07 g/m*3 14 C 0 km/h
121 04-06-2009 00:05:36 13.7 C 5.21 g/m*3 13.7 C 0 km/h
122 04-06-2009 00:17:36 13.7 C 5.33 g/m*3 13.7 C 0 km/h
123 04-06-2009 00:29:36 13.4 C 5.23 g/m*3 13.4 C 0 km/h
124 04-06-2009 00:41:36 13.1 C 5.14 g/m*3 13.1 C 0 km/h
125 04-06-2009 00:53:36 13 C 5.22 g/m*3 13 C 0 km/h
Sensor: Nr:Datum:Temp:Abs-Feuchte:Windchill:Wind:
Aussen-T/F 126 04-06-2009 01:05:36 12.7 C 5.34 g/m*3 12.7 C 0 km/h
127 04-06-2009 01:17:36 12.6 C 5.42 g/m*3 12.6 C 0 km/h
128 04-06-2009 01:29:36 12.7 C 5.45 g/m*3 12.7 C 0 km/h
129 04-06-2009 01:41:36 12.6 C 5.42 g/m*3 12.6 C 0 km/h
130 04-06-2009 01:53:36 12.5 C 5.5 g/m*3 12.5 C 0 km/h
131 04-06-2009 02:05:36 12.5 C 4.95 g/m*3 12.5 C 0 km/h
132 04-06-2009 02:17:36 12.4 C 4.7 g/m*3 12.4 C 0 km/h
133 04-06-2009 02:29:36 12 C 4.48 g/m*3 12 C 0 km/h
134 04-06-2009 02:41:36 11.9 C 4.45 g/m*3 11.9 C 0 km/h
135 04-06-2009 02:53:36 11.7 C 4.18 g/m*3 11.7 C 0 km/h
136 04-06-2009 03:05:36 11.5 C 4.13 g/m*3 11.5 C 0 km/h
137 04-06-2009 03:17:37 11.2 C 3.95 g/m*3 11.2 C 0 km/h
138 04-06-2009 03:29:37 11 C 4 g/m*3 11 C 0 km/h
139 04-06-2009 03:41:37 10.8 C 4.15 g/m*3 10.8 C 0 km/h
140 04-06-2009 03:53:37 10.9 C 4.28 g/m*3 10.9 C 0 km/h
141 04-06-2009 04:05:37 10.8 C 4.15 g/m*3 10.8 C 0 km/h
142 04-06-2009 04:17:37 10.7 C 4.22 g/m*3 10.7 C 0 km/h
143 04-06-2009 04:29:37 10.6 C 4.29 g/m*3 10.6 C 0 km/h
144 04-06-2009 04:41:37 10.6 C 4.39 g/m*3 10.6 C 0 km/h
145 04-06-2009 04:53:37 10.7 C 4.62 g/m*3 10.7 C 0 km/h
146 04-06-2009 05:05:37 10.5 C 4.85 g/m*3 10.5 C 0 km/h
147 04-06-2009 05:17:37 10.5 C 4.95 g/m*3 10.5 C 0 km/h
148 04-06-2009 05:29:37 10.6 C 5.08 g/m*3 10.6 C 0 km/h
149 04-06-2009 05:41:37 10.7 C 5.11 g/m*3 10.7 C 0 km/h
150 04-06-2009 05:53:37 10.7 C 5.01 g/m*3 10.7 C 0 km/h
Sensor: Nr:Datum:Temp:Abs-Feuchte:Windchill:Wind:
Aussen-T/F 151 04-06-2009 06:05:37 10.7 C 5.11 g/m*3 10.7 C 0 km/h
152 04-06-2009 06:17:37 10.7 C 5.01 g/m*3 10.7 C 0 km/h
153 04-06-2009 06:29:37 10.5 C 4.75 g/m*3 10.5 C 0 km/h
154 04-06-2009 06:41:37 10.6 C 4.78 g/m*3 10.6 C 0 km/h
155 04-06-2009 06:53:35 10.7 C 4.91 g/m*3 10.7 C 0 km/h
156 04-06-2009 07:05:35 10.7 C 4.91 g/m*3 10.7 C 0 km/h
157 04-06-2009 07:17:35 11 C 4.8 g/m*3 11 C 0 km/h
158 04-06-2009 07:29:35 10.8 C 5.04 g/m*3 10.8 C 0 km/h
159 04-06-2009 07:41:35 10.8 C 5.34 g/m*3 10.8 C 0 km/h
160 04-06-2009 07:53:35 11 C 5.31 g/m*3 11 C 0 km/h
161 04-06-2009 08:05:34 11.6 C 5.4 g/m*3 11.6 C 0 km/h
162 04-06-2009 08:17:34 11.8 C 5.37 g/m*3 11.8 C 0 km/h
163 04-06-2009 08:29:34 11.9 C 5.3 g/m*3 11.9 C 0 km/h
164 04-06-2009 08:41:34 12.2 C 5.18 g/m*3 12.2 C 0 km/h
165 04-06-2009 08:53:34 12.5 C 5.17 g/m*3 12.5 C 0 km/h
166 04-06-2009 09:05:33 13 C 4.88 g/m*3 13 C 0 km/h
167 04-06-2009 09:17:34 12.8 C 4.59 g/m*3 12.8 C 0 km/h
168 04-06-2009 09:29:34 12.3 C 4.13 g/m*3 12.3 C 0 km/h
169 04-06-2009 09:41:34 12.7 C 4.23 g/m*3 12.7 C 0 km/h
170 04-06-2009 09:53:33 12.9 C 4.51 g/m*3 12.9 C 0 km/h
171 04-06-2009 10:05:34 13 C 4.2 g/m*3 13 C 0 km/h
172 04-06-2009 10:17:33 13.1 C 4.45 g/m*3 13.1 C 0 km/h
173 04-06-2009 10:29:33 14.1 C 4.49 g/m*3 14.1 C 0 km/h
174 04-06-2009 10:41:33 13.5 C 4.33 g/m*3 13.5 C 0 km/h
175 04-06-2009 10:53:33 13.2 C 4.36 g/m*3 13.2 C 0 km/h
Sensor: Nr:Datum:Temp:Abs-Feuchte:Windchill:Wind:
Aussen-T/F 176 04-06-2009 11:05:33 14 C 4.46 g/m*3 14 C 0 km/h
177 04-06-2009 11:17:32 14.7 C 4.53 g/m*3 14.7 C 0 km/h
178 04-06-2009 11:29:32 13.3 C 4.04 g/m*3 13.3 C 0 km/h
179 04-06-2009 11:41:32 13.1 C 3.99 g/m*3 13.1 C 0 km/h
180 04-06-2009 11:53:32 13.5 C 4.33 g/m*3 13.5 C 0 km/h
181 04-06-2009 12:05:32 14.7 C 4.53 g/m*3 14.7 C 0 km/h
182 04-06-2009 12:17:32 14.5 C 4.35 g/m*3 14.5 C 0 km/h
183 04-06-2009 12:29:32 14.6 C 4.25 g/m*3 14.6 C 0 km/h
184 04-06-2009 12:41:32 14.4 C 3.96 g/m*3 14.4 C 0 km/h
185 04-06-2009 12:53:32 14.7 C 4.28 g/m*3 14.7 C 0 km/h
186 04-06-2009 13:05:31 14.7 C 4.41 g/m*3 14.7 C 0 km/h
187 04-06-2009 13:17:32 15.7 C 4.01 g/m*3 15.7 C 0 km/h
188 04-06-2009 13:29:32 15.6 C 3.72 g/m*3 15.6 C 0 km/h
189 04-06-2009 13:41:31 14.9 C 3.95 g/m*3 14.9 C 0 km/h
190 04-06-2009 13:53:31 14.4 C 3.96 g/m*3 14.4 C 0 km/h
191 04-06-2009 14:05:31 15.1 C 4.13 g/m*3 15.1 C 0 km/h
192 04-06-2009 14:17:31 16.2 C 4.14 g/m*3 16.2 C 0 km/h
193 04-06-2009 14:29:31 15.3 C 3.79 g/m*3 15.3 C 0 km/h
194 04-06-2009 14:41:31 14.8 C 3.67 g/m*3 14.8 C 0 km/h
195 04-06-2009 14:53:30 15.8 C 3.9 g/m*3 15.8 C 0 km/h
196 04-06-2009 15:05:30 16.3 C 4.16 g/m*3 16.3 C 0 km/h
197 04-06-2009 15:17:30 17.5 C 3.88 g/m*3 17.5 C 0 km/h
198 04-06-2009 15:29:30 16.1 C 3.56 g/m*3 16.1 C 0 km/h
199 04-06-2009 15:41:30 15.9 C 3.79 g/m*3 15.9 C 0 km/h
200 04-06-2009 15:53:30 16.4 C 3.77 g/m*3 16.4 C 0 km/h
Sensor: Nr:Datum:Temp:Abs-Feuchte:Windchill:Wind:
Aussen-T/F 201 04-06-2009 16:05:30 16.3 C 3.75 g/m*3 16.3 C 0 km/h
202 04-06-2009 16:17:30 16.2 C 3.59 g/m*3 16.2 C 0 km/h
203 04-06-2009 16:29:30 17.2 C 3.66 g/m*3 17.2 C 0 km/h
204 04-06-2009 16:41:30 16.5 C 3.51 g/m*3 16.5 C 0 km/h
205 04-06-2009 16:53:29 16.2 C 3.72 g/m*3 16.2 C 0 km/h
206 04-06-2009 17:05:29 16.1 C 3.84 g/m*3 16.1 C 0 km/h
207 04-06-2009 17:17:29 16.4 C 3.91 g/m*3 16.4 C 0 km/h
208 04-06-2009 17:29:29 15.6 C 3.86 g/m*3 15.6 C 0 km/h
209 04-06-2009 17:41:29 15.6 C 3.99 g/m*3 15.6 C 0 km/h
210 04-06-2009 17:53:28 16.2 C 4.14 g/m*3 16.2 C 0 km/h
211 04-06-2009 18:05:29 16 C 4.09 g/m*3 16 C 0 km/h
212 04-06-2009 18:17:29 15.8 C 4.17 g/m*3 15.8 C 0 km/h
213 04-06-2009 18:29:29 16.1 C 4.25 g/m*3 16.1 C 0 km/h
214 04-06-2009 18:41:29 15.4 C 4.07 g/m*3 15.4 C 0 km/h
215 04-06-2009 18:53:28 15.7 C 4.28 g/m*3 15.7 C 0 km/h
216 04-06-2009 19:05:28 15.3 C 4.18 g/m*3 15.3 C 0 km/h
217 04-06-2009 19:17:28 15.4 C 4.2 g/m*3 15.4 C 0 km/h
218 04-06-2009 19:29:28 15.4 C 4.34 g/m*3 15.4 C 0 km/h
219 04-06-2009 19:41:28 14.7 C 4.41 g/m*3 14.7 C 0 km/h
220 04-06-2009 19:53:28 15.1 C 4.52 g/m*3 15.1 C 0 km/h
221 04-06-2009 20:05:28 14.9 C 4.59 g/m*3 14.9 C 0 km/h
222 04-06-2009 20:17:27 14.9 C 4.59 g/m*3 14.9 C 0 km/h
223 04-06-2009 20:29:27 14.7 C 4.66 g/m*3 14.7 C 0 km/h
224 04-06-2009 20:41:27 14.5 C 4.73 g/m*3 14.5 C 0 km/h
225 04-06-2009 20:53:27 14.1 C 4.61 g/m*3 14.1 C 0 km/h
Sensor: Nr:Datum:Temp:Abs-Feuchte:Windchill:Wind:
Aussen-T/F 226 04-06-2009 21:05:27 14 C 4.7 g/m*3 14 C 0 km/h
227 04-06-2009 21:17:27 13.8 C 4.77 g/m*3 13.8 C 0 km/h
228 04-06-2009 21:29:27 13.7 C 4.86 g/m*3 13.7 C 0 km/h
229 04-06-2009 21:41:27 13.5 C 4.91 g/m*3 13.5 C 0 km/h
230 04-06-2009 21:53:27 13.5 C 5.03 g/m*3 13.5 C 0 km/h
231 04-06-2009 22:06:22 13.3 C 4.97 g/m*3 13.3 C 0 km/h
232 04-06-2009 22:18:22 13.2 C 4.94 g/m*3 13.2 C 0 km/h
233 04-06-2009 22:30:22 13 C 4.99 g/m*3 13 C 0 km/h
234 04-06-2009 22:42:22 13 C 4.88 g/m*3 13 C 0 km/h
235 04-06-2009 22:54:22 12.9 C 4.96 g/m*3 12.9 C 0 km/h
236 04-06-2009 23:06:22 12.7 C 5.01 g/m*3 12.7 C 0 km/h
237 04-06-2009 23:18:22 12.4 C 4.92 g/m*3 12.4 C 0 km/h
238 04-06-2009 23:30:22 12.2 C 4.86 g/m*3 12.2 C 0 km/h
239 04-06-2009 23:42:22 12.1 C 4.93 g/m*3 12.1 C 0 km/h
240 04-06-2009 23:54:22 12 C 5.01 g/m*3 12 C 0 km/h
241 05-06-2009 00:06:22 11.7 C 5.12 g/m*3 11.7 C 0 km/h
242 05-06-2009 00:18:22 11.7 C 5.12 g/m*3 11.7 C 0 km/h
243 05-06-2009 00:30:22 11.6 C 5.09 g/m*3 11.6 C 0 km/h
244 05-06-2009 00:42:22 11.4 C 4.82 g/m*3 11.4 C 0 km/h
245 05-06-2009 00:54:22 11.2 C 4.76 g/m*3 11.2 C 0 km/h
246 05-06-2009 01:06:22 11.2 C 4.66 g/m*3 11.2 C 0 km/h
247 05-06-2009 01:18:22 11.1 C 4.63 g/m*3 11.1 C 0 km/h
248 05-06-2009 01:30:22 11 C 4.6 g/m*3 11 C 0 km/h
249 05-06-2009 01:42:22 10.9 C 4.67 g/m*3 10.9 C 0 km/h
250 05-06-2009 01:54:23 10.8 C 4.65 g/m*3 10.8 C 0 km/h
Sensor: Nr:Datum:Temp:Abs-Feuchte:Windchill:Wind:
Aussen-T/F 251 05-06-2009 02:06:23 10.7 C 4.71 g/m*3 10.7 C 0 km/h
252 05-06-2009 02:18:23 10.4 C 4.72 g/m*3 10.4 C 0 km/h
253 05-06-2009 02:30:23 10 C 4.7 g/m*3 10 C 0 km/h
254 05-06-2009 02:42:23 9.6 C 4.76 g/m*3 9.6 C 0 km/h
255 05-06-2009 02:54:23 9.2 C 4.91 g/m*3 9.2 C 0 km/h
256 05-06-2009 03:06:23 9.2 C 5 g/m*3 9.2 C 0 km/h
257 05-06-2009 03:18:23 9.3 C 5.03 g/m*3 9.3 C 0 km/h
258 05-06-2009 03:30:23 9.2 C 5 g/m*3 9.2 C 0 km/h
259 05-06-2009 03:42:23 9 C 5.11 g/m*3 9 C 0 km/h
260 05-06-2009 03:54:23 8.6 C 5.16 g/m*3 8.6 C 0 km/h
261 05-06-2009 04:06:23 8.6 C 5.16 g/m*3 8.6 C 0 km/h
262 05-06-2009 04:18:23 8.6 C 5.24 g/m*3 8.6 C 0 km/h
263 05-06-2009 04:30:23 8.5 C 5.21 g/m*3 8.5 C 0 km/h
264 05-06-2009 04:42:23 8.5 C 5.29 g/m*3 8.5 C 0 km/h
265 05-06-2009 04:54:23 8.5 C 5.38 g/m*3 8.5 C 0 km/h
266 05-06-2009 05:06:23 8.4 C 5.34 g/m*3 8.4 C 0 km/h
267 05-06-2009 05:18:23 8.1 C 5.33 g/m*3 8.1 C 0 km/h
268 05-06-2009 05:30:23 8.2 C 5.44 g/m*3 8.2 C 0 km/h
269 05-06-2009 05:42:23 8.4 C 5.6 g/m*3 8.4 C 0 km/h
270 05-06-2009 05:54:24 8.5 C 5.64 g/m*3 8.5 C 0 km/h
271 05-06-2009 06:06:24 8.5 C 5.72 g/m*3 8.5 C 0 km/h
272 05-06-2009 06:18:24 8.5 C 5.64 g/m*3 8.5 C 0 km/h
273 05-06-2009 06:30:24 8.5 C 5.72 g/m*3 8.5 C 0 km/h
274 05-06-2009 06:42:24 8.5 C 5.72 g/m*3 8.5 C 0 km/h
275 05-06-2009 06:54:24 8.7 C 5.79 g/m*3 8.7 C 0 km/h
Sensor: Nr:Datum:Temp:Abs-Feuchte:Windchill:Wind:
Aussen-T/F 276 05-06-2009 07:06:28 8.8 C 5.83 g/m*3 8.8 C 0 km/h
277 05-06-2009 07:18:27 8.9 C 5.78 g/m*3 8.9 C 0 km/h
278 05-06-2009 07:30:28 9.2 C 5.63 g/m*3 9.2 C 0 km/h
279 05-06-2009 07:42:28 10 C 5.64 g/m*3 10 C 0 km/h
280 05-06-2009 07:54:27 10.2 C 5.52 g/m*3 10.2 C 0 km/h
281 05-06-2009 08:06:27 10.5 C 5.63 g/m*3 10.5 C 0 km/h
282 05-06-2009 08:18:27 10.8 C 5.63 g/m*3 10.8 C 0 km/h
283 05-06-2009 08:30:27 10.6 C 5.56 g/m*3 10.6 C 0 km/h
284 05-06-2009 08:42:27 10.2 C 5.61 g/m*3 10.2 C 0 km/h
285 05-06-2009 08:54:26 10.4 C 5.78 g/m*3 10.4 C 0 km/h
286 05-06-2009 09:06:27 11.5 C 5.78 g/m*3 11.5 C 0 km/h
287 05-06-2009 09:18:26 12.3 C 5.43 g/m*3 12.3 C 0 km/h
288 05-06-2009 09:30:26 12.7 C 5.12 g/m*3 12.7 C 0 km/h
289 05-06-2009 09:42:26 11.8 C 4.95 g/m*3 11.8 C 0 km/h
290 05-06-2009 09:54:26 12.1 C 5.25 g/m*3 12.1 C 0 km/h
291 05-06-2009 10:06:26 12.7 C 5.12 g/m*3 12.7 C 0 km/h
292 05-06-2009 10:18:25 13.1 C 5.02 g/m*3 13.1 C 0 km/h
293 05-06-2009 10:30:26 12.3 C 4.67 g/m*3 12.3 C 0 km/h
294 05-06-2009 10:42:26 13.3 C 4.97 g/m*3 13.3 C 0 km/h
295 05-06-2009 10:54:26 12.6 C 4.54 g/m*3 12.6 C 0 km/h
296 05-06-2009 11:06:25 12.3 C 4.56 g/m*3 12.3 C 0 km/h
297 05-06-2009 11:18:26 13 C 4.76 g/m*3 13 C 0 km/h
298 05-06-2009 11:30:25 13.4 C 4.65 g/m*3 13.4 C 0 km/h
299 05-06-2009 11:42:25 14 C 4.34 g/m*3 14 C 0 km/h
300 05-06-2009 11:54:25 14.3 C 4.18 g/m*3 14.3 C 0 km/h
Sensor: Nr:Datum:Temp:Abs-Feuchte:Windchill:Wind:
Aussen-T/F 301 05-06-2009 12:06:24 14.6 C 4.38 g/m*3 14.6 C 0 km/h
302 05-06-2009 12:18:25 15.3 C 4.44 g/m*3 15.3 C 0 km/h
303 05-06-2009 12:30:25 15.6 C 4.26 g/m*3 15.6 C 0 km/h
304 05-06-2009 12:42:25 16.1 C 4.25 g/m*3 16.1 C 0 km/h
305 05-06-2009 12:54:24 16.6 C 4.38 g/m*3 16.6 C 0 km/h
306 05-06-2009 13:06:25 18.5 C 4.43 g/m*3 18.5 C 0 km/h
307 05-06-2009 13:18:24 17.7 C 4.22 g/m*3 17.7 C 0 km/h
308 05-06-2009 13:30:24 17.2 C 4.25 g/m*3 17.2 C 0 km/h
309 05-06-2009 13:42:25 16.6 C 4.1 g/m*3 16.6 C 0 km/h
310 05-06-2009 13:54:24 16.2 C 4 g/m*3 16.2 C 0 km/h
311 05-06-2009 14:06:24 16.5 C 4.07 g/m*3 16.5 C 0 km/h
312 05-06-2009 14:18:23 16.8 C 4.15 g/m*3 16.8 C 0 km/h
313 05-06-2009 14:30:23 16.6 C 3.96 g/m*3 16.6 C 0 km/h
314 05-06-2009 14:42:23 16.2 C 3.86 g/m*3 16.2 C 0 km/h
315 05-06-2009 14:54:23 16.4 C 4.19 g/m*3 16.4 C 0 km/h
316 05-06-2009 15:06:23 16.8 C 4.15 g/m*3 16.8 C 0 km/h
317 05-06-2009 15:18:23 16.4 C 3.77 g/m*3 16.4 C 0 km/h
318 05-06-2009 15:30:23 16 C 3.95 g/m*3 16 C 0 km/h
319 05-06-2009 15:42:23 15.9 C 3.93 g/m*3 15.9 C 0 km/h
320 05-06-2009 15:54:23 15.6 C 3.72 g/m*3 15.6 C 0 km/h
321 05-06-2009 16:06:22 16.8 C 3.86 g/m*3 16.8 C 0 km/h
322 05-06-2009 16:18:22 17.6 C 4.05 g/m*3 17.6 C 0 km/h
323 05-06-2009 16:30:23 18.4 C 4.09 g/m*3 18.4 C 0 km/h
324 05-06-2009 16:42:23 18.9 C 4.05 g/m*3 18.9 C 0 km/h
325 05-06-2009 16:54:22 20.1 C 4 g/m*3 20.1 C 0 km/h
Sensor: Nr:Datum:Temp:Abs-Feuchte:Windchill:Wind:
Aussen-T/F 326 05-06-2009 17:06:21 20 C 3.46 g/m*3 20 C 0 km/h
327 05-06-2009 17:18:22 18.4 C 3.3 g/m*3 18.4 C 0 km/h
328 05-06-2009 17:30:22 20.4 C 3.71 g/m*3 20.4 C 0 km/h
329 05-06-2009 17:42:22 20.7 C 3.6 g/m*3 20.7 C 0 km/h
330 05-06-2009 17:54:21 22 C 3.88 g/m*3 22 C 0 km/h
331 05-06-2009 18:06:22 22.9 C 4.09 g/m*3 22.9 C 0 km/h
332 05-06-2009 18:18:21 22.9 C 4.09 g/m*3 22.9 C 0 km/h
333 05-06-2009 18:30:21 22.1 C 3.9 g/m*3 22.1 C 0 km/h
334 05-06-2009 18:42:21 21 C 3.66 g/m*3 21 C 0 km/h
335 05-06-2009 18:54:21 20.7 C 3.6 g/m*3 20.7 C 0 km/h
336 05-06-2009 19:06:21 21 C 3.66 g/m*3 21 C 0 km/h
337 05-06-2009 19:18:20 20.2 C 3.5 g/m*3 20.2 C 0 km/h
338 05-06-2009 19:30:20 18.5 C 3.48 g/m*3 18.5 C 0 km/h
339 05-06-2009 19:42:20 17.7 C 3.92 g/m*3 17.7 C 0 km/h
340 05-06-2009 19:54:20 17.9 C 3.97 g/m*3 17.9 C 0 km/h
341 05-06-2009 20:06:20 17.7 C 4.07 g/m*3 17.7 C 0 km/h
342 05-06-2009 20:18:20 17.2 C 4.25 g/m*3 17.2 C 0 km/h
343 05-06-2009 20:30:20 16.9 C 4.6 g/m*3 16.9 C 0 km/h
344 05-06-2009 20:42:20 16 C 4.63 g/m*3 16 C 0 km/h
345 05-06-2009 20:54:20 15 C 4.62 g/m*3 15 C 0 km/h
346 05-06-2009 21:06:20 14.2 C 4.76 g/m*3 14.2 C 0 km/h
347 05-06-2009 21:18:20 13.4 C 4.77 g/m*3 13.4 C 0 km/h
348 05-06-2009 21:30:19 13 C 4.65 g/m*3 13 C 0 km/h
349 05-06-2009 21:42:19 12.7 C 4.9 g/m*3 12.7 C 0 km/h
350 05-06-2009 21:54:20 12.2 C 4.86 g/m*3 12.2 C 0 km/h
Sensor: Nr:Datum:Temp:Abs-Feuchte:Windchill:Wind:
Aussen-T/F 351 05-06-2009 22:06:19 11.9 C 4.87 g/m*3 11.9 C 0 km/h
352 05-06-2009 22:18:19 11.8 C 5.05 g/m*3 11.8 C 0 km/h
353 05-06-2009 22:31:19 11.4 C 5.03 g/m*3 11.4 C 0 km/h
354 05-06-2009 22:43:19 11.1 C 5.04 g/m*3 11.1 C 0 km/h
355 05-06-2009 22:55:19 11 C 5.1 g/m*3 11 C 0 km/h
356 05-06-2009 23:07:19 10.8 C 5.14 g/m*3 10.8 C 0 km/h
357 05-06-2009 23:19:19 10.5 C 5.14 g/m*3 10.5 C 0 km/h
358 05-06-2009 23:31:19 10.4 C 5.2 g/m*3 10.4 C 0 km/h
359 05-06-2009 23:43:19 10.1 C 5.2 g/m*3 10.1 C 0 km/h
360 05-06-2009 23:55:20 10 C 5.17 g/m*3 10 C 0 km/h
361 06-06-2009 00:07:20 9.8 C 5.29 g/m*3 9.8 C 0 km/h
362 06-06-2009 00:19:20 9.7 C 5.35 g/m*3 9.7 C 0 km/h
363 06-06-2009 00:31:20 9.5 C 5.37 g/m*3 9.5 C 0 km/h
364 06-06-2009 00:43:20 9.1 C 5.32 g/m*3 9.1 C 0 km/h
365 06-06-2009 00:55:20 8.9 C 5.43 g/m*3 8.9 C 0 km/h
366 06-06-2009 01:07:20 8.8 C 5.4 g/m*3 8.8 C 0 km/h
367 06-06-2009 01:19:20 8.6 C 5.33 g/m*3 8.6 C 0 km/h
368 06-06-2009 01:31:20 8.6 C 5.41 g/m*3 8.6 C 0 km/h
369 06-06-2009 01:43:20 8.5 C 5.55 g/m*3 8.5 C 0 km/h
370 06-06-2009 01:55:20 8.3 C 5.48 g/m*3 8.3 C 0 km/h
371 06-06-2009 02:07:20 8.2 C 5.53 g/m*3 8.2 C 0 km/h
372 06-06-2009 02:19:20 8.1 C 5.49 g/m*3 8.1 C 0 km/h
373 06-06-2009 02:31:20 8.1 C 5.57 g/m*3 8.1 C 0 km/h
374 06-06-2009 02:43:20 8.1 C 5.66 g/m*3 8.1 C 0 km/h
375 06-06-2009 02:55:20 8.1 C 5.66 g/m*3 8.1 C 0 km/h
Sensor: Nr:Datum:Temp:Abs-Feuchte:Windchill:Wind:
Aussen-T/F 376 06-06-2009 03:07:20 8 C 5.79 g/m*3 8 C 0 km/h
377 06-06-2009 03:19:20 7.8 C 5.79 g/m*3 7.8 C 0 km/h
378 06-06-2009 03:31:20 7.6 C 5.8 g/m*3 7.6 C 0 km/h
379 06-06-2009 03:43:20 7.5 C 5.84 g/m*3 7.5 C 0 km/h
380 06-06-2009 03:55:20 7.4 C 5.81 g/m*3 7.4 C 0 km/h
381 06-06-2009 04:07:21 7.4 C 5.81 g/m*3 7.4 C 0 km/h
382 06-06-2009 04:19:21 7.4 C 5.81 g/m*3 7.4 C 0 km/h
383 06-06-2009 04:31:21 7.3 C 5.85 g/m*3 7.3 C 0 km/h
384 06-06-2009 04:43:21 7.1 C 5.77 g/m*3 7.1 C 0 km/h
385 06-06-2009 04:55:21 7.2 C 5.89 g/m*3 7.2 C 0 km/h
386 06-06-2009 05:07:21 7.4 C 5.96 g/m*3 7.4 C 0 km/h
387 06-06-2009 05:19:21 7.6 C 6.04 g/m*3 7.6 C 0 km/h
388 06-06-2009 05:31:21 7.8 C 6.04 g/m*3 7.8 C 0 km/h
389 06-06-2009 05:43:21 8 C 6.04 g/m*3 8 C 0 km/h
390 06-06-2009 05:55:21 8.1 C 6.07 g/m*3 8.1 C 0 km/h
391 06-06-2009 06:07:21 8.2 C 6.11 g/m*3 8.2 C 0 km/h
392 06-06-2009 06:19:21 8.4 C 6.19 g/m*3 8.4 C 0 km/h
393 06-06-2009 06:31:21 8.7 C 6.23 g/m*3 8.7 C 0 km/h
394 06-06-2009 06:43:21 8.7 C 6.05 g/m*3 8.7 C 0 km/h
395 06-06-2009 06:55:21 8.9 C 6.13 g/m*3 8.9 C 0 km/h
396 06-06-2009 07:07:21 8.9 C 6.13 g/m*3 8.9 C 0 km/h
397 06-06-2009 07:19:21 8.9 C 6.13 g/m*3 8.9 C 0 km/h
398 06-06-2009 07:31:21 8.6 C 6.27 g/m*3 8.6 C 0 km/h
399 06-06-2009 07:43:21 8.6 C 6.44 g/m*3 8.6 C 0 km/h
400 06-06-2009 07:55:21 8.6 C 6.62 g/m*3 8.6 C 0 km/h
Sensor: Nr:Datum:Temp:Abs-Feuchte:Windchill:Wind:
Aussen-T/F 401 06-06-2009 08:07:22 8.6 C 6.79 g/m*3 8.6 C 0 km/h
402 06-06-2009 08:19:22 8.6 C 6.96 g/m*3 8.6 C 0 km/h
403 06-06-2009 08:31:22 8.3 C 7.08 g/m*3 8.3 C 0 km/h
404 06-06-2009 08:43:22 8.3 C 7.33 g/m*3 8.3 C 0 km/h
405 06-06-2009 08:55:22 8.2 C 7.37 g/m*3 8.2 C 0 km/h
406 06-06-2009 09:07:19 8.5 C 7.6 g/m*3 8.5 C 0 km/h
407 06-06-2009 09:19:19 8.4 C 7.63 g/m*3 8.4 C 0 km/h
408 06-06-2009 09:31:20 8.7 C 7.78 g/m*3 8.7 C 0 km/h
409 06-06-2009 09:43:20 8.7 C 7.87 g/m*3 8.7 C 0 km/h
410 06-06-2009 09:55:19 8.9 C 7.97 g/m*3 8.9 C 0 km/h
411 06-06-2009 10:07:19 9.1 C 7.99 g/m*3 9.1 C 0 km/h
412 06-06-2009 10:19:19 9.1 C 7.99 g/m*3 9.1 C 0 km/h
413 06-06-2009 10:31:19 8.9 C 7.97 g/m*3 8.9 C 0 km/h
414 06-06-2009 10:43:19 9 C 7.93 g/m*3 9 C 0 km/h
415 06-06-2009 10:55:18 9 C 7.93 g/m*3 9 C 0 km/h
416 06-06-2009 11:07:19 9 C 7.93 g/m*3 9 C 0 km/h
417 06-06-2009 11:19:18 9 C 7.93 g/m*3 9 C 0 km/h
418 06-06-2009 11:31:18 9.2 C 8.13 g/m*3 9.2 C 0 km/h
419 06-06-2009 11:43:18 9.2 C 8.13 g/m*3 9.2 C 0 km/h
420 06-06-2009 11:55:18 9 C 8.02 g/m*3 9 C 0 km/h
421 06-06-2009 12:07:17 9.2 C 8.13 g/m*3 9.2 C 0 km/h
422 06-06-2009 12:19:18 9.4 C 8.32 g/m*3 9.4 C 0 km/h
423 06-06-2009 12:31:18 9.3 C 8.27 g/m*3 9.3 C 0 km/h
424 06-06-2009 12:43:18 9.3 C 8.27 g/m*3 9.3 C 0 km/h
425 06-06-2009 12:55:17 9.5 C 8.37 g/m*3 9.5 C 0 km/h
Sensor: Nr:Datum:Temp:Abs-Feuchte:Windchill:Wind:
Aussen-T/F 426 06-06-2009 13:07:18 9.6 C 8.43 g/m*3 9.6 C 0 km/h
427 06-06-2009 13:19:17 9.7 C 8.48 g/m*3 9.7 C 0 km/h
428 06-06-2009 13:31:17 9.7 C 8.57 g/m*3 9.7 C 0 km/h
429 06-06-2009 13:43:17 9.7 C 8.57 g/m*3 9.7 C 0 km/h
430 06-06-2009 13:55:17 9.6 C 8.52 g/m*3 9.6 C 0 km/h
431 06-06-2009 14:07:17 9.8 C 8.63 g/m*3 9.8 C 0 km/h
432 06-06-2009 14:19:16 9.8 C 8.63 g/m*3 9.8 C 0 km/h
433 06-06-2009 14:31:16 9.8 C 8.63 g/m*3 9.8 C 0 km/h
434 06-06-2009 14:43:16 9.6 C 8.43 g/m*3 9.6 C 0 km/h
435 06-06-2009 14:55:16 9.5 C 8.37 g/m*3 9.5 C 0 km/h
436 06-06-2009 15:07:16 9.5 C 8.37 g/m*3 9.5 C 0 km/h
437 06-06-2009 15:19:15 9.4 C 8.32 g/m*3 9.4 C 0 km/h
438 06-06-2009 15:31:16 9.5 C 8.37 g/m*3 9.5 C 0 km/h
439 06-06-2009 15:43:16 9.7 C 8.57 g/m*3 9.7 C 0 km/h
440 06-06-2009 15:55:15 9.8 C 8.63 g/m*3 9.8 C 0 km/h
441 06-06-2009 16:07:15 10.1 C 8.7 g/m*3 10.1 C 0 km/h
442 06-06-2009 16:19:16 10.1 C 8.7 g/m*3 10.1 C 0 km/h
443 06-06-2009 16:31:15 9.9 C 8.68 g/m*3 9.9 C 0 km/h
444 06-06-2009 16:43:15 10 C 8.64 g/m*3 10 C 0 km/h
445 06-06-2009 16:55:15 9.9 C 8.68 g/m*3 9.9 C 0 km/h
446 06-06-2009 17:07:15 9.9 C 8.59 g/m*3 9.9 C 0 km/h
447 06-06-2009 17:19:15 9.9 C 8.59 g/m*3 9.9 C 0 km/h
448 06-06-2009 17:31:14 10.1 C 8.61 g/m*3 10.1 C 0 km/h
449 06-06-2009 17:43:14 10.3 C 8.71 g/m*3 10.3 C 0 km/h
450 06-06-2009 17:55:15 10.4 C 8.67 g/m*3 10.4 C 0 km/h
Sensor: Nr:Datum:Temp:Abs-Feuchte:Windchill:Wind:
Aussen-T/F 451 06-06-2009 18:07:14 10.5 C 8.73 g/m*3 10.5 C 0 km/h
452 06-06-2009 18:19:14 10.9 C 8.95 g/m*3 10.9 C 0 km/h
453 06-06-2009 18:31:02 10.7 C 8.64 g/m*3 10.7 C 0 km/h
454 06-06-2009 18:43:02 10.8 C 8.7 g/m*3 10.8 C 0 km/h
455 06-06-2009 18:55:01 10.7 C 8.45 g/m*3 10.7 C 0 km/h
456 06-06-2009 19:07:02 10.8 C 8.5 g/m*3 10.8 C 0 km/h
457 06-06-2009 19:19:01 10.9 C 8.45 g/m*3 10.9 C 0 km/h
458 06-06-2009 19:31:01 11.1 C 8.56 g/m*3 11.1 C 0 km/h
459 06-06-2009 19:43:01 11 C 8.51 g/m*3 11 C 0 km/h
460 06-06-2009 19:55:01 10.9 C 8.65 g/m*3 10.9 C 0 km/h
461 06-06-2009 20:07:01 10.5 C 8.34 g/m*3 10.5 C 0 km/h
462 06-06-2009 20:19:00 10.4 C 8.29 g/m*3 10.4 C 0 km/h
463 06-06-2009 20:31:00 10.4 C 8.38 g/m*3 10.4 C 0 km/h
464 06-06-2009 20:43:00 10.4 C 8.38 g/m*3 10.4 C 0 km/h
465 06-06-2009 20:55:00 10.3 C 8.33 g/m*3 10.3 C 0 km/h
466 06-06-2009 21:07:00 10.3 C 8.43 g/m*3 10.3 C 0 km/h
467 06-06-2009 21:18:59 10.2 C 8.37 g/m*3 10.2 C 0 km/h
468 06-06-2009 21:31:00 10.2 C 8.37 g/m*3 10.2 C 0 km/h
469 06-06-2009 21:43:00 10.1 C 8.32 g/m*3 10.1 C 0 km/h
470 06-06-2009 21:55:59 9.8 C 8.26 g/m*3 9.8 C 0 km/h
471 06-06-2009 22:07:59 9.5 C 8.1 g/m*3 9.5 C 0 km/h
472 06-06-2009 22:19:00 9.4 C 8.14 g/m*3 9.4 C 0 km/h
473 06-06-2009 22:31:59 9.4 C 8.23 g/m*3 9.4 C 0 km/h
474 06-06-2009 22:43:59 9.5 C 8.28 g/m*3 9.5 C 0 km/h
475 06-06-2009 22:55:59 9.6 C 8.43 g/m*3 9.6 C 0 km/h
Sensor: Nr:Datum:Temp:Abs-Feuchte:Windchill:Wind:
Aussen-T/F 476 06-06-2009 23:07:59 9.5 C 8.37 g/m*3 9.5 C 0 km/h
477 06-06-2009 23:19:59 9.5 C 8.37 g/m*3 9.5 C 0 km/h
478 06-06-2009 23:31:58 9.2 C 8.13 g/m*3 9.2 C 0 km/h
479 06-06-2009 23:43:58 8.8 C 8.01 g/m*3 8.8 C 0 km/h
480 06-06-2009 23:55:59 8.5 C 7.85 g/m*3 8.5 C 0 km/h
481 07-06-2009 00:07:59 8.5 C 7.85 g/m*3 8.5 C 0 km/h
482 07-06-2009 00:19:59 8.3 C 7.75 g/m*3 8.3 C 0 km/h
483 07-06-2009 00:31:58 8.1 C 7.66 g/m*3 8.1 C 0 km/h
484 07-06-2009 00:43:58 7.9 C 7.64 g/m*3 7.9 C 0 km/h
485 07-06-2009 00:55:58 8 C 7.61 g/m*3 8 C 0 km/h
486 07-06-2009 01:07:57 8 C 7.69 g/m*3 8 C 0 km/h
487 07-06-2009 01:19:58 8 C 7.69 g/m*3 8 C 0 km/h
488 07-06-2009 01:31:58 7.9 C 7.72 g/m*3 7.9 C 0 km/h
489 07-06-2009 01:43:58 7.9 C 7.72 g/m*3 7.9 C 0 km/h
490 07-06-2009 01:55:57 8.1 C 7.74 g/m*3 8.1 C 0 km/h
491 07-06-2009 02:07:58 8.2 C 7.87 g/m*3 8.2 C 0 km/h
492 07-06-2009 02:19:57 8.4 C 7.97 g/m*3 8.4 C 0 km/h
493 07-06-2009 02:31:57 8.4 C 7.97 g/m*3 8.4 C 0 km/h
494 07-06-2009 02:43:57 8.4 C 7.97 g/m*3 8.4 C 0 km/h
495 07-06-2009 02:56:59 8.4 C 7.97 g/m*3 8.4 C 0 km/h
496 07-06-2009 03:08:59 8.5 C 8.11 g/m*3 8.5 C 0 km/h
497 07-06-2009 03:20:59 8.5 C 8.11 g/m*3 8.5 C 0 km/h
498 07-06-2009 03:32:58 8.5 C 8.11 g/m*3 8.5 C 0 km/h
499 07-06-2009 03:44:58 8.4 C 8.06 g/m*3 8.4 C 0 km/h
500 07-06-2009 03:56:58 8.4 C 8.06 g/m*3 8.4 C 0 km/h
Sensor: Nr:Datum:Temp:Abs-Feuchte:Windchill:Wind:
Aussen-T/F 501 07-06-2009 04:08:58 8.5 C 8.11 g/m*3 8.5 C 0 km/h
502 07-06-2009 04:20:58 8.5 C 8.11 g/m*3 8.5 C 0 km/h
503 07-06-2009 04:32:58 8.5 C 8.11 g/m*3 8.5 C 0 km/h
504 07-06-2009 04:44:57 8.5 C 8.11 g/m*3 8.5 C 0 km/h
505 07-06-2009 04:56:57 8.5 C 8.11 g/m*3 8.5 C 0 km/h
506 07-06-2009 05:08:58 8.6 C 8.16 g/m*3 8.6 C 0 km/h
507 07-06-2009 05:20:58 8.6 C 8.16 g/m*3 8.6 C 0 km/h
508 07-06-2009 05:32:57 8.6 C 8.16 g/m*3 8.6 C 0 km/h
509 07-06-2009 05:44:57 8.7 C 8.22 g/m*3 8.7 C 0 km/h
510 07-06-2009 05:56:57 8.8 C 8.27 g/m*3 8.8 C 0 km/h
511 07-06-2009 06:08:57 8.9 C 8.32 g/m*3 8.9 C 0 km/h
512 07-06-2009 06:20:57 9.1 C 8.34 g/m*3 9.1 C 0 km/h
513 07-06-2009 06:32:57 9.3 C 8.45 g/m*3 9.3 C 0 km/h
514 07-06-2009 06:44:57 9.5 C 8.56 g/m*3 9.5 C 0 km/h
515 07-06-2009 06:56:57 9.5 C 8.56 g/m*3 9.5 C 0 km/h
516 07-06-2009 07:08:57 9.6 C 8.61 g/m*3 9.6 C 0 km/h
517 07-06-2009 07:20:56 10 C 8.74 g/m*3 10 C 0 km/h
518 07-06-2009 07:32:57 10.2 C 8.76 g/m*3 10.2 C 0 km/h
519 07-06-2009 07:44:01 10.3 C 8.43 g/m*3 10.3 C 0 km/h
520 07-06-2009 07:56:01 10.7 C 8.45 g/m*3 10.7 C 0 km/h
521 07-06-2009 08:08:01 11 C 8.01 g/m*3 11 C 0 km/h
522 07-06-2009 08:20:01 11.4 C 8.01 g/m*3 11.4 C 0 km/h
523 07-06-2009 08:32:01 11.7 C 7.84 g/m*3 11.7 C 0 km/h
524 07-06-2009 08:44:01 11.9 C 7.52 g/m*3 11.9 C 0 km/h
525 07-06-2009 08:56:01 12.4 C 7.32 g/m*3 12.4 C 0 km/h
Sensor: Nr:Datum:Temp:Abs-Feuchte:Windchill:Wind:
Aussen-T/F 526 07-06-2009 09:08:01 13.1 C 7.42 g/m*3 13.1 C 0 km/h
527 07-06-2009 09:20:01 13.6 C 7.3 g/m*3 13.6 C 0 km/h
528 07-06-2009 09:32:00 14 C 7.48 g/m*3 14 C 0 km/h
529 07-06-2009 09:44:00 14.1 C 7.52 g/m*3 14.1 C 0 km/h
530 07-06-2009 09:56:00 14.3 C 7.62 g/m*3 14.3 C 0 km/h
531 07-06-2009 10:08:00 14.4 C 7.42 g/m*3 14.4 C 0 km/h
532 07-06-2009 10:20:59 14.9 C 7.77 g/m*3 14.9 C 0 km/h
533 07-06-2009 10:32:00 15.5 C 7.93 g/m*3 15.5 C 0 km/h
534 07-06-2009 10:44:00 15.9 C 7.72 g/m*3 15.9 C 0 km/h
535 07-06-2009 10:56:59 16.4 C 7.54 g/m*3 16.4 C 0 km/h
536 07-06-2009 11:08:59 16.9 C 7.91 g/m*3 16.9 C 0 km/h
537 07-06-2009 11:20:00 17.2 C 7.91 g/m*3 17.2 C 0 km/h
538 07-06-2009 11:32:59 17 C 7.81 g/m*3 17 C 0 km/h
539 07-06-2009 11:44:59 16.1 C 7.81 g/m*3 16.1 C 0 km/h
540 07-06-2009 11:56:59 17.5 C 7.9 g/m*3 17.5 C 0 km/h
541 07-06-2009 12:08:59 17.1 C 7.42 g/m*3 17.1 C 0 km/h
542 07-06-2009 12:20:59 17.7 C 7.69 g/m*3 17.7 C 0 km/h
543 07-06-2009 12:32:59 17.3 C 7.81 g/m*3 17.3 C 0 km/h
544 07-06-2009 12:44:58 17.1 C 8.3 g/m*3 17.1 C 0 km/h
545 07-06-2009 12:56:58 16.8 C 8.86 g/m*3 16.8 C 0 km/h
546 07-06-2009 13:08:59 16.6 C 8.48 g/m*3 16.6 C 0 km/h
547 07-06-2009 13:20:59 16.4 C 8.79 g/m*3 16.4 C 0 km/h
548 07-06-2009 13:32:59 17.4 C 8.89 g/m*3 17.4 C 0 km/h
549 07-06-2009 13:44:58 19.3 C 8.13 g/m*3 19.3 C 0 km/h
550 07-06-2009 13:56:58 19.2 C 7.91 g/m*3 19.2 C 0 km/h
Sensor: Nr:Datum:Temp:Abs-Feuchte:Windchill:Wind:
Aussen-T/F 551 07-06-2009 14:08:57 19.4 C 8.34 g/m*3 19.4 C 0 km/h
552 07-06-2009 14:20:58 18.9 C 8.26 g/m*3 18.9 C 0 km/h
553 07-06-2009 14:32:58 18.9 C 8.42 g/m*3 18.9 C 0 km/h
554 07-06-2009 14:44:57 18.7 C 8.65 g/m*3 18.7 C 0 km/h
555 07-06-2009 14:56:57 19.1 C 8.69 g/m*3 19.1 C 0 km/h
556 07-06-2009 15:08:58 19.1 C 8.36 g/m*3 19.1 C 0 km/h
557 07-06-2009 15:20:57 17.3 C 8.99 g/m*3 17.3 C 0 km/h
558 07-06-2009 15:32:58 16 C 10.22 g/m*3 16 C 0 km/h
559 07-06-2009 15:44:57 15.5 C 10.31 g/m*3 15.5 C 0 km/h
560 07-06-2009 15:56:57 15.1 C 10.45 g/m*3 15.1 C 0 km/h
561 07-06-2009 16:08:57 14.8 C 10.64 g/m*3 14.8 C 0 km/h
562 07-06-2009 16:20:56 15.6 C 11.57 g/m*3 15.6 C 0 km/h
563 07-06-2009 16:32:57 16 C 11.72 g/m*3 16 C 0 km/h
564 07-06-2009 16:44:56 16.3 C 11.52 g/m*3 16.3 C 0 km/h
565 07-06-2009 16:56:56 17.2 C 11.57 g/m*3 17.2 C 0 km/h
566 07-06-2009 17:08:56 17.6 C 10.8 g/m*3 17.6 C 0 km/h
567 07-06-2009 17:20:56 18.9 C 10.85 g/m*3 18.9 C 0 km/h
568 07-06-2009 17:32:56 19.5 C 10.07 g/m*3 19.5 C 0 km/h
569 07-06-2009 17:44:56 18.4 C 9.75 g/m*3 18.4 C 0 km/h
570 07-06-2009 17:56:56 18.3 C 9.85 g/m*3 18.3 C 0 km/h
571 07-06-2009 18:08:55 18.8 C 9.34 g/m*3 18.8 C 0 km/h
572 07-06-2009 18:20:56 17.3 C 7.51 g/m*3 17.3 C 0 km/h
573 07-06-2009 18:32:55 17 C 8.54 g/m*3 17 C 0 km/h
574 07-06-2009 18:44:55 18 C 8.29 g/m*3 18 C 0 km/h
575 07-06-2009 18:56:55 19.2 C 7.75 g/m*3 19.2 C 0 km/h
Sensor: Nr:Datum:Temp:Abs-Feuchte:Windchill:Wind:
Aussen-T/F 576 07-06-2009 19:08:55 20.4 C 7.61 g/m*3 20.4 C 0 km/h
577 07-06-2009 19:20:55 20.4 C 7.25 g/m*3 20.4 C 0 km/h
578 07-06-2009 19:32:55 20.3 C 7.03 g/m*3 20.3 C 0 km/h
579 07-06-2009 19:44:55 19.8 C 7.34 g/m*3 19.8 C 0 km/h
580 07-06-2009 19:56:55 20.3 C 7.39 g/m*3 20.3 C 0 km/h
581 07-06-2009 20:08:54 20.3 C 7.39 g/m*3 20.3 C 0 km/h
582 07-06-2009 20:20:55 20 C 7.09 g/m*3 20 C 0 km/h
583 07-06-2009 20:32:54 18.7 C 6.88 g/m*3 18.7 C 0 km/h
584 07-06-2009 20:44:54 17.6 C 7.05 g/m*3 17.6 C 0 km/h
585 07-06-2009 20:56:55 16.6 C 7.06 g/m*3 16.6 C 0 km/h
586 07-06-2009 21:08:53 16.1 C 6.99 g/m*3 16.1 C 0 km/h
587 07-06-2009 21:20:54 15.8 C 7.54 g/m*3 15.8 C 0 km/h
588 07-06-2009 21:32:54 15.2 C 7.79 g/m*3 15.2 C 0 km/h
589 07-06-2009 21:44:53 14.7 C 7.93 g/m*3 14.7 C 0 km/h
590 07-06-2009 21:56:53 14.1 C 7.77 g/m*3 14.1 C 0 km/h
591 07-06-2009 22:09:55 13.5 C 7.37 g/m*3 13.5 C 0 km/h
592 07-06-2009 22:21:55 13 C 7.03 g/m*3 13 C 0 km/h
593 07-06-2009 22:33:55 12.7 C 7.01 g/m*3 12.7 C 0 km/h
594 07-06-2009 22:45:55 12.5 C 6.93 g/m*3 12.5 C 0 km/h
595 07-06-2009 22:57:55 12.3 C 6.84 g/m*3 12.3 C 0 km/h
596 07-06-2009 23:09:55 12 C 6.71 g/m*3 12 C 0 km/h
597 07-06-2009 23:21:55 11.8 C 6.84 g/m*3 11.8 C 0 km/h
598 07-06-2009 23:33:55 11.6 C 6.96 g/m*3 11.6 C 0 km/h
599 07-06-2009 23:45:55 11.5 C 7.02 g/m*3 11.5 C 0 km/h
600 07-06-2009 23:57:55 11.3 C 7.04 g/m*3 11.3 C 0 km/h
Sensor: Nr:Datum:Temp:Abs-Feuchte:Windchill:Wind:
Aussen-T/F 601 08-06-2009 00:09:55 11.2 C 7.1 g/m*3 11.2 C 0 km/h
602 08-06-2009 00:21:55 11.3 C 7.14 g/m*3 11.3 C 0 km/h
603 08-06-2009 00:33:55 10.8 C 7.12 g/m*3 10.8 C 0 km/h
604 08-06-2009 00:45:55 10.6 C 7.22 g/m*3 10.6 C 0 km/h
605 08-06-2009 00:57:56 10.7 C 7.17 g/m*3 10.7 C 0 km/h
606 08-06-2009 01:09:56 10.7 C 7.07 g/m*3 10.7 C 0 km/h
607 08-06-2009 01:21:56 10.4 C 7.04 g/m*3 10.4 C 0 km/h
608 08-06-2009 01:33:56 10.1 C 7.09 g/m*3 10.1 C 0 km/h
609 08-06-2009 01:45:56 10.2 C 6.95 g/m*3 10.2 C 0 km/h
610 08-06-2009 01:57:56 10.6 C 6.83 g/m*3 10.6 C 0 km/h
611 08-06-2009 02:09:56 11.4 C 6.57 g/m*3 11.4 C 0 km/h
612 08-06-2009 02:21:56 11.7 C 6.69 g/m*3 11.7 C 0 km/h
613 08-06-2009 02:33:56 11.6 C 6.76 g/m*3 11.6 C 0 km/h
614 08-06-2009 02:45:56 11.6 C 6.76 g/m*3 11.6 C 0 km/h
615 08-06-2009 02:57:56 11.8 C 6.84 g/m*3 11.8 C 0 km/h
616 08-06-2009 03:09:56 11 C 7.41 g/m*3 11 C 0 km/h
617 08-06-2009 03:21:56 10.9 C 7.76 g/m*3 10.9 C 0 km/h
618 08-06-2009 03:33:56 11.2 C 7.8 g/m*3 11.2 C 0 km/h
619 08-06-2009 03:45:56 11.1 C 7.66 g/m*3 11.1 C 0 km/h
620 08-06-2009 03:57:56 11 C 7.61 g/m*3 11 C 0 km/h
621 08-06-2009 04:09:56 11.1 C 7.76 g/m*3 11.1 C 0 km/h
622 08-06-2009 04:21:56 11.1 C 7.76 g/m*3 11.1 C 0 km/h
623 08-06-2009 04:33:56 11.1 C 7.76 g/m*3 11.1 C 0 km/h
624 08-06-2009 04:45:56 11.1 C 7.76 g/m*3 11.1 C 0 km/h
625 08-06-2009 04:57:57 11.1 C 7.86 g/m*3 11.1 C 0 km/h
Sensor: Nr:Datum:Temp:Abs-Feuchte:Windchill:Wind:
Aussen-T/F 626 08-06-2009 05:09:57 11.2 C 7.91 g/m*3 11.2 C 0 km/h
627 08-06-2009 05:21:57 11.2 C 7.8 g/m*3 11.2 C 0 km/h
628 08-06-2009 05:33:57 11.2 C 7.91 g/m*3 11.2 C 0 km/h
629 08-06-2009 05:45:57 11.3 C 7.96 g/m*3 11.3 C 0 km/h
630 08-06-2009 05:57:57 11.5 C 7.75 g/m*3 11.5 C 0 km/h
631 08-06-2009 06:09:57 11.5 C 7.85 g/m*3 11.5 C 0 km/h
632 08-06-2009 06:21:57 11.5 C 7.85 g/m*3 11.5 C 0 km/h
633 08-06-2009 06:33:57 11.5 C 7.85 g/m*3 11.5 C 0 km/h
634 08-06-2009 06:45:55 11.5 C 8.06 g/m*3 11.5 C 0 km/h
635 08-06-2009 06:57:55 11.5 C 7.95 g/m*3 11.5 C 0 km/h
636 08-06-2009 07:09:54 11.8 C 8 g/m*3 11.8 C 0 km/h
637 08-06-2009 07:21:54 12 C 7.99 g/m*3 12 C 0 km/h
638 08-06-2009 07:33:54 12.3 C 8.25 g/m*3 12.3 C 0 km/h
639 08-06-2009 07:45:54 12.2 C 7.99 g/m*3 12.2 C 0 km/h
640 08-06-2009 07:57:54 12.3 C 7.82 g/m*3 12.3 C 0 km/h
641 08-06-2009 08:09:53 12.5 C 7.7 g/m*3 12.5 C 0 km/h
642 08-06-2009 08:21:54 12.7 C 7.57 g/m*3 12.7 C 0 km/h
643 08-06-2009 08:33:54 12.9 C 7.33 g/m*3 12.9 C 0 km/h
644 08-06-2009 08:45:53 13.2 C 7.46 g/m*3 13.2 C 0 km/h
645 08-06-2009 08:57:53 13.5 C 7.37 g/m*3 13.5 C 0 km/h
646 08-06-2009 09:09:53 13.8 C 7.15 g/m*3 13.8 C 0 km/h
647 08-06-2009 09:21:53 14.1 C 7.04 g/m*3 14.1 C 0 km/h
648 08-06-2009 09:33:53 14.6 C 6.88 g/m*3 14.6 C 0 km/h
649 08-06-2009 09:45:53 14.8 C 6.84 g/m*3 14.8 C 0 km/h
650 08-06-2009 09:57:53 15 C 6.67 g/m*3 15 C 0 km/h
Sensor: Nr:Datum:Temp:Abs-Feuchte:Windchill:Wind:
Aussen-T/F 651 08-06-2009 10:09:53 15.6 C 6.78 g/m*3 15.6 C 0 km/h
652 08-06-2009 10:21:52 15.9 C 6.37 g/m*3 15.9 C 0 km/h
653 08-06-2009 10:33:52 16.4 C 6.42 g/m*3 16.4 C 0 km/h
654 08-06-2009 10:45:52 16.5 C 6.18 g/m*3 16.5 C 0 km/h
655 08-06-2009 10:57:52 16.6 C 6.07 g/m*3 16.6 C 0 km/h
656 08-06-2009 11:09:52 17.7 C 6.49 g/m*3 17.7 C 0 km/h
657 08-06-2009 11:21:51 17.3 C 5.75 g/m*3 17.3 C 0 km/h
658 08-06-2009 11:33:52 17 C 6.08 g/m*3 17 C 0 km/h
659 08-06-2009 11:45:51 17.6 C 6.15 g/m*3 17.6 C 0 km/h
660 08-06-2009 11:57:51 18.1 C 6.03 g/m*3 18.1 C 0 km/h
661 08-06-2009 12:09:52 17.6 C 6 g/m*3 17.6 C 0 km/h
662 08-06-2009 12:21:51 20 C 6.22 g/m*3 20 C 0 km/h
663 08-06-2009 12:33:51 18.6 C 5.89 g/m*3 18.6 C 0 km/h
664 08-06-2009 12:45:51 20.2 C 6.12 g/m*3 20.2 C 0 km/h
665 08-06-2009 12:57:51 19.6 C 5.74 g/m*3 19.6 C 0 km/h
666 08-06-2009 13:09:51 21.6 C 4.74 g/m*3 21.6 C 0 km/h
667 08-06-2009 13:21:50 21.5 C 5.47 g/m*3 21.5 C 0 km/h
668 08-06-2009 13:33:51 20.9 C 5.1 g/m*3 20.9 C 0 km/h
669 08-06-2009 13:45:51 20.3 C 5.28 g/m*3 20.3 C 0 km/h
670 08-06-2009 13:57:51 21.4 C 5.06 g/m*3 21.4 C 0 km/h
671 08-06-2009 14:09:50 21.7 C 4.39 g/m*3 21.7 C 0 km/h
672 08-06-2009 14:21:50 21.5 C 4.71 g/m*3 21.5 C 0 km/h
673 08-06-2009 14:33:50 21.9 C 5.02 g/m*3 21.9 C 0 km/h
674 08-06-2009 14:45:50 21.7 C 4.96 g/m*3 21.7 C 0 km/h
675 08-06-2009 14:57:50 22.1 C 4.88 g/m*3 22.1 C 0 km/h
Sensor: Nr:Datum:Temp:Abs-Feuchte:Windchill:Wind:
Aussen-T/F 676 08-06-2009 15:09:49 22.9 C 5.11 g/m*3 22.9 C 0 km/h
677 08-06-2009 15:21:50 23 C 4.32 g/m*3 23 C 0 km/h
678 08-06-2009 15:33:50 22.7 C 4.24 g/m*3 22.7 C 0 km/h
679 08-06-2009 15:45:49 23.8 C 4.73 g/m*3 23.8 C 0 km/h
680 08-06-2009 15:57:49 23.3 C 4.39 g/m*3 23.3 C 0 km/h
681 08-06-2009 16:09:50 23.7 C 4.49 g/m*3 23.7 C 0 km/h
682 08-06-2009 16:21:49 24.7 C 4.53 g/m*3 24.7 C 0 km/h
683 08-06-2009 16:33:49 23.5 C 4.65 g/m*3 23.5 C 0 km/h
684 08-06-2009 16:45:49 23.2 C 4.57 g/m*3 23.2 C 0 km/h
685 08-06-2009 16:57:49 23.9 C 4.76 g/m*3 23.9 C 0 km/h
686 08-06-2009 17:09:49 23.8 C 4.73 g/m*3 23.8 C 0 km/h
687 08-06-2009 17:21:48 24.4 C 4.9 g/m*3 24.4 C 0 km/h
688 08-06-2009 17:33:48 24.3 C 5.09 g/m*3 24.3 C 0 km/h
689 08-06-2009 17:45:48 25.1 C 4.86 g/m*3 25.1 C 0 km/h
690 08-06-2009 17:57:48 24.1 C 4.81 g/m*3 24.1 C 0 km/h
691 08-06-2009 18:09:48 23.9 C 5.41 g/m*3 23.9 C 0 km/h
692 08-06-2009 18:21:48 23.7 C 5.99 g/m*3 23.7 C 0 km/h
693 08-06-2009 18:33:48 23.5 C 6.77 g/m*3 23.5 C 0 km/h
694 08-06-2009 18:45:48 22.8 C 7.32 g/m*3 22.8 C 0 km/h
695 08-06-2009 18:57:48 22.1 C 7.42 g/m*3 22.1 C 0 km/h
696 08-06-2009 19:09:47 21.6 C 7.59 g/m*3 21.6 C 0 km/h
697 08-06-2009 19:21:48 21 C 7.14 g/m*3 21 C 0 km/h
698 08-06-2009 19:33:47 20.8 C 7.6 g/m*3 20.8 C 0 km/h
699 08-06-2009 19:45:47 20.6 C 7.52 g/m*3 20.6 C 0 km/h
700 08-06-2009 19:57:48 20.4 C 7.61 g/m*3 20.4 C 0 km/h
Sensor: Nr:Datum:Temp:Abs-Feuchte:Windchill:Wind:
Aussen-T/F 701 08-06-2009 20:09:47 20.1 C 7.82 g/m*3 20.1 C 0 km/h
702 08-06-2009 20:21:47 19.8 C 8.03 g/m*3 19.8 C 0 km/h
703 08-06-2009 20:33:47 19.3 C 7.96 g/m*3 19.3 C 0 km/h
704 08-06-2009 20:45:47 18.8 C 8.05 g/m*3 18.8 C 0 km/h
705 08-06-2009 20:57:47 18.5 C 7.91 g/m*3 18.5 C 0 km/h
706 08-06-2009 21:09:47 18.2 C 7.77 g/m*3 18.2 C 0 km/h
707 08-06-2009 21:21:46 17.9 C 7.79 g/m*3 17.9 C 0 km/h
708 08-06-2009 21:33:46 17.6 C 8.1 g/m*3 17.6 C 0 km/h
709 08-06-2009 21:45:46 16.7 C 8.67 g/m*3 16.7 C 0 km/h
710 08-06-2009 21:57:46 16.6 C 8.9 g/m*3 16.6 C 0 km/h
711 08-06-2009 22:09:46 16.4 C 8.79 g/m*3 16.4 C 0 km/h
712 08-06-2009 22:21:46 16.6 C 8.76 g/m*3 16.6 C 0 km/h
713 08-06-2009 22:33:45 16.5 C 8.57 g/m*3 16.5 C 0 km/h
714 08-06-2009 22:46:46 16.4 C 8.51 g/m*3 16.4 C 0 km/h
715 08-06-2009 22:58:46 16.3 C 8.46 g/m*3 16.3 C 0 km/h
716 08-06-2009 23:10:46 16.4 C 8.51 g/m*3 16.4 C 0 km/h
717 08-06-2009 23:22:46 16.4 C 8.37 g/m*3 16.4 C 0 km/h
718 08-06-2009 23:34:46 16.5 C 8.43 g/m*3 16.5 C 0 km/h
719 08-06-2009 23:46:46 16.3 C 8.88 g/m*3 16.3 C 0 km/h
720 08-06-2009 23:58:46 16 C 8.99 g/m*3 16 C 0 km/h
721 09-06-2009 00:10:46 15.8 C 9.42 g/m*3 15.8 C 0 km/h
722 09-06-2009 00:22:46 15.4 C 9.59 g/m*3 15.4 C 0 km/h
723 09-06-2009 00:34:46 15.4 C 9.99 g/m*3 15.4 C 0 km/h
724 09-06-2009 00:46:46 15 C 10 g/m*3 15 C 0 km/h
725 09-06-2009 00:58:46 14.8 C 10.01 g/m*3 14.8 C 0 km/h
Sensor: Nr:Datum:Temp:Abs-Feuchte:Windchill:Wind:
Aussen-T/F 726 09-06-2009 01:10:46 14.6 C 10.14 g/m*3 14.6 C 0 km/h
727 09-06-2009 01:22:47 14.5 C 10.07 g/m*3 14.5 C 0 km/h
728 09-06-2009 01:34:47 14.6 C 10.26 g/m*3 14.6 C 0 km/h
729 09-06-2009 01:46:47 14.5 C 10.32 g/m*3 14.5 C 0 km/h
730 09-06-2009 01:58:47 14.6 C 10.26 g/m*3 14.6 C 0 km/h
731 09-06-2009 02:10:47 14.6 C 10.14 g/m*3 14.6 C 0 km/h
732 09-06-2009 02:22:47 14.7 C 10.2 g/m*3 14.7 C 0 km/h
733 09-06-2009 02:34:47 14.6 C 10.01 g/m*3 14.6 C 0 km/h
734 09-06-2009 02:46:47 14.3 C 9.95 g/m*3 14.3 C 0 km/h
735 09-06-2009 02:58:47 14.3 C 9.95 g/m*3 14.3 C 0 km/h
736 09-06-2009 03:10:47 14.4 C 10.01 g/m*3 14.4 C 0 km/h
737 09-06-2009 03:22:47 14.5 C 10.07 g/m*3 14.5 C 0 km/h
738 09-06-2009 03:34:47 14.5 C 10.07 g/m*3 14.5 C 0 km/h
739 09-06-2009 03:46:47 14.4 C 9.89 g/m*3 14.4 C 0 km/h
740 09-06-2009 03:58:47 14.4 C 9.89 g/m*3 14.4 C 0 km/h
741 09-06-2009 04:10:47 14.4 C 9.89 g/m*3 14.4 C 0 km/h
742 09-06-2009 04:22:47 14.4 C 10.01 g/m*3 14.4 C 0 km/h
743 09-06-2009 04:34:47 14.5 C 9.95 g/m*3 14.5 C 0 km/h
744 09-06-2009 04:46:47 14.6 C 9.89 g/m*3 14.6 C 0 km/h
745 09-06-2009 04:58:47 14.6 C 9.89 g/m*3 14.6 C 0 km/h
746 09-06-2009 05:10:48 14.5 C 9.83 g/m*3 14.5 C 0 km/h
747 09-06-2009 05:22:48 14.2 C 9.89 g/m*3 14.2 C 0 km/h
748 09-06-2009 05:34:48 14.1 C 10.07 g/m*3 14.1 C 0 km/h
749 09-06-2009 05:46:48 14 C 10.13 g/m*3 14 C 0 km/h
750 09-06-2009 05:58:48 14.1 C 10.32 g/m*3 14.1 C 0 km/h
Sensor: Nr:Datum:Temp:Abs-Feuchte:Windchill:Wind:
Aussen-T/F 751 09-06-2009 06:10:48 14 C 10.37 g/m*3 14 C 0 km/h
752 09-06-2009 06:22:48 14.1 C 10.56 g/m*3 14.1 C 0 km/h
753 09-06-2009 06:34:48 14.1 C 10.56 g/m*3 14.1 C 0 km/h
754 09-06-2009 06:46:48 14.1 C 10.56 g/m*3 14.1 C 0 km/h
755 09-06-2009 06:58:48 14.2 C 10.62 g/m*3 14.2 C 0 km/h
756 09-06-2009 07:10:48 14.3 C 10.44 g/m*3 14.3 C 0 km/h
757 09-06-2009 07:22:46 14.6 C 10.51 g/m*3 14.6 C 0 km/h
758 09-06-2009 07:34:01 14.8 C 10.64 g/m*3 14.8 C 0 km/h
759 09-06-2009 07:46:01 15 C 10.64 g/m*3 15 C 0 km/h
760 09-06-2009 07:58:01 15 C 10.26 g/m*3 15 C 0 km/h
761 09-06-2009 08:10:01 15.2 C 9.48 g/m*3 15.2 C 0 km/h
762 09-06-2009 08:22:01 15.2 C 9.22 g/m*3 15.2 C 0 km/h
763 09-06-2009 08:34:01 15.2 C 9.09 g/m*3 15.2 C 0 km/h
764 09-06-2009 08:46:01 15.3 C 9.53 g/m*3 15.3 C 0 km/h
765 09-06-2009 08:58:01 15.4 C 9.59 g/m*3 15.4 C 0 km/h
766 09-06-2009 09:10:00 15.4 C 9.59 g/m*3 15.4 C 0 km/h
767 09-06-2009 09:22:01 15.5 C 9.65 g/m*3 15.5 C 0 km/h
768 09-06-2009 09:34:00 15.9 C 9.48 g/m*3 15.9 C 0 km/h
769 09-06-2009 09:46:00 16.5 C 9.55 g/m*3 16.5 C 0 km/h
770 09-06-2009 09:58:01 16.8 C 8.86 g/m*3 16.8 C 0 km/h
771 09-06-2009 10:10:00 16.8 C 8.72 g/m*3 16.8 C 0 km/h
772 09-06-2009 10:22:00 16.9 C 8.63 g/m*3 16.9 C 0 km/h
773 09-06-2009 10:34:00 17.7 C 8.9 g/m*3 17.7 C 0 km/h
774 09-06-2009 10:45:59 18.1 C 8.34 g/m*3 18.1 C 0 km/h
775 09-06-2009 10:57:59 18.6 C 8.12 g/m*3 18.6 C 0 km/h
Sensor: Nr:Datum:Temp:Abs-Feuchte:Windchill:Wind:
Aussen-T/F 776 09-06-2009 11:10:00 18.5 C 7.91 g/m*3 18.5 C 0 km/h
777 09-06-2009 11:22:59 19.4 C 7.67 g/m*3 19.4 C 0 km/h
778 09-06-2009 11:34:59 20.1 C 7.47 g/m*3 20.1 C 0 km/h
779 09-06-2009 11:46:59 19.9 C 7.39 g/m*3 19.9 C 0 km/h
780 09-06-2009 11:58:59 20.8 C 7.06 g/m*3 20.8 C 0 km/h
781 09-06-2009 12:10:59 21.5 C 6.98 g/m*3 21.5 C 0 km/h
782 09-06-2009 12:22:59 21.9 C 7.14 g/m*3 21.9 C 0 km/h
783 09-06-2009 12:34:58 21.1 C 7 g/m*3 21.1 C 0 km/h
784 09-06-2009 12:46:59 22.5 C 6.99 g/m*3 22.5 C 0 km/h
785 09-06-2009 12:58:59 22.9 C 6.34 g/m*3 22.9 C 0 km/h
786 09-06-2009 13:10:58 23.3 C 6.48 g/m*3 23.3 C 0 km/h
787 09-06-2009 13:22:58 21.5 C 6.98 g/m*3 21.5 C 0 km/h
788 09-06-2009 13:34:58 21.5 C 6.79 g/m*3 21.5 C 0 km/h
789 09-06-2009 13:46:58 23.7 C 6.42 g/m*3 23.7 C 0 km/h
790 09-06-2009 13:58:59 22.3 C 6.52 g/m*3 22.3 C 0 km/h
791 09-06-2009 14:10:57 23.6 C 6.59 g/m*3 23.6 C 0 km/h
792 09-06-2009 14:22:57 24.2 C 6.6 g/m*3 24.2 C 0 km/h
793 09-06-2009 14:34:58 24.9 C 6.64 g/m*3 24.9 C 0 km/h
794 09-06-2009 14:46:01 23.8 C 6.67 g/m*3 23.8 C 0 km/h
795 09-06-2009 14:58:01 21.6 C 7.78 g/m*3 21.6 C 0 km/h
796 09-06-2009 15:10:01 19.3 C 8.63 g/m*3 19.3 C 0 km/h
797 09-06-2009 15:22:01 19.9 C 11.51 g/m*3 19.9 C 0 km/h
798 09-06-2009 15:34:01 21.9 C 10.81 g/m*3 21.9 C 0 km/h
799 09-06-2009 15:46:01 23.2 C 9.36 g/m*3 23.2 C 0 km/h
800 09-06-2009 15:58:01 21.7 C 10.49 g/m*3 21.7 C 0 km/h
Sensor: Nr:Datum:Temp:Abs-Feuchte:Windchill:Wind:
Aussen-T/F 801 09-06-2009 16:10:01 22.3 C 9.08 g/m*3 22.3 C 0 km/h
802 09-06-2009 16:22:00 23.9 C 8.22 g/m*3 23.9 C 0 km/h
803 09-06-2009 16:34:00 24.5 C 7.16 g/m*3 24.5 C 0 km/h
804 09-06-2009 16:46:00 24.8 C 6.83 g/m*3 24.8 C 0 km/h
805 09-06-2009 16:58:00 24.9 C 7.1 g/m*3 24.9 C 0 km/h
806 09-06-2009 17:10:00 26.1 C 7.1 g/m*3 26.1 C 0 km/h
807 09-06-2009 17:22:59 25.5 C 7.34 g/m*3 25.5 C 0 km/h
808 09-06-2009 17:34:00 25.3 C 7.02 g/m*3 25.3 C 0 km/h
809 09-06-2009 17:46:00 25.4 C 7.06 g/m*3 25.4 C 0 km/h
810 09-06-2009 17:58:00 24.4 C 7.12 g/m*3 24.4 C 0 km/h
811 09-06-2009 18:10:59 23.3 C 7.53 g/m*3 23.3 C 0 km/h
812 09-06-2009 18:22:00 21.9 C 7.72 g/m*3 21.9 C 0 km/h
813 09-06-2009 18:34:59 20 C 7.09 g/m*3 20 C 0 km/h
814 09-06-2009 18:46:59 19.2 C 7.42 g/m*3 19.2 C 0 km/h
815 09-06-2009 18:58:59 20.5 C 7.83 g/m*3 20.5 C 0 km/h
816 09-06-2009 19:10:59 20.4 C 7.61 g/m*3 20.4 C 0 km/h
817 09-06-2009 19:22:59 19.9 C 7.9 g/m*3 19.9 C 0 km/h
818 09-06-2009 19:34:59 19.7 C 8.15 g/m*3 19.7 C 0 km/h
819 09-06-2009 19:46:58 17.5 C 8.95 g/m*3 17.5 C 0 km/h
820 09-06-2009 19:58:58 16.5 C 10.11 g/m*3 16.5 C 0 km/h
821 09-06-2009 20:10:59 17.9 C 10.08 g/m*3 17.9 C 0 km/h
822 09-06-2009 20:22:58 18.9 C 9.4 g/m*3 18.9 C 0 km/h
823 09-06-2009 20:34:58 19.7 C 9 g/m*3 19.7 C 0 km/h
824 09-06-2009 20:46:58 19.3 C 8.96 g/m*3 19.3 C 0 km/h
825 09-06-2009 20:58:58 18.8 C 8.54 g/m*3 18.8 C 0 km/h
Sensor: Nr:Datum:Temp:Abs-Feuchte:Windchill:Wind:
Aussen-T/F 826 09-06-2009 21:10:58 18.4 C 8.81 g/m*3 18.4 C 0 km/h
827 09-06-2009 21:22:57 17.9 C 9.47 g/m*3 17.9 C 0 km/h
828 09-06-2009 21:34:58 17.2 C 8.93 g/m*3 17.2 C 0 km/h
829 09-06-2009 21:46:57 16.7 C 9.1 g/m*3 16.7 C 0 km/h
830 09-06-2009 21:58:57 16.3 C 9.16 g/m*3 16.3 C 0 km/h
831 09-06-2009 22:10:57 16 C 9.26 g/m*3 16 C 0 km/h
832 09-06-2009 22:23:58 15.7 C 9.37 g/m*3 15.7 C 0 km/h
833 09-06-2009 22:35:58 15.6 C 9.44 g/m*3 15.6 C 0 km/h
834 09-06-2009 22:47:58 15.8 C 9.29 g/m*3 15.8 C 0 km/h
835 09-06-2009 22:59:58 15.6 C 9.18 g/m*3 15.6 C 0 km/h
836 09-06-2009 23:11:58 15.4 C 9.33 g/m*3 15.4 C 0 km/h
837 09-06-2009 23:23:58 15.2 C 9.35 g/m*3 15.2 C 0 km/h
838 09-06-2009 23:35:58 15 C 9.23 g/m*3 15 C 0 km/h
839 09-06-2009 23:47:58 14.5 C 9.2 g/m*3 14.5 C 0 km/h
840 09-06-2009 23:59:58 14.4 C 9.27 g/m*3 14.4 C 0 km/h
841 10-06-2009 00:11:58 14.4 C 9.39 g/m*3 14.4 C 0 km/h
842 10-06-2009 00:23:58 14 C 9.05 g/m*3 14 C 0 km/h
843 10-06-2009 00:35:59 14 C 9.17 g/m*3 14 C 0 km/h
844 10-06-2009 00:47:59 13.8 C 9.29 g/m*3 13.8 C 0 km/h
845 10-06-2009 00:59:59 13.8 C 9.29 g/m*3 13.8 C 0 km/h
846 10-06-2009 01:11:59 14 C 9.29 g/m*3 14 C 0 km/h
847 10-06-2009 01:23:59 14.4 C 9.39 g/m*3 14.4 C 0 km/h
848 10-06-2009 01:35:59 14.9 C 9.3 g/m*3 14.9 C 0 km/h
849 10-06-2009 01:47:59 15.4 C 8.93 g/m*3 15.4 C 0 km/h
850 10-06-2009 01:59:59 15.6 C 8.91 g/m*3 15.6 C 0 km/h
Sensor: Nr:Datum:Temp:Abs-Feuchte:Windchill:Wind:
Aussen-T/F 851 10-06-2009 02:11:59 15.4 C 8.8 g/m*3 15.4 C 0 km/h
852 10-06-2009 02:23:59 15.4 C 8.8 g/m*3 15.4 C 0 km/h
853 10-06-2009 02:35:59 15.5 C 8.86 g/m*3 15.5 C 0 km/h
854 10-06-2009 02:47:59 15.4 C 8.8 g/m*3 15.4 C 0 km/h
855 10-06-2009 02:59:59 15.1 C 8.77 g/m*3 15.1 C 0 km/h
856 10-06-2009 03:11:59 14.9 C 9.05 g/m*3 14.9 C 0 km/h
857 10-06-2009 03:23:59 15 C 8.98 g/m*3 15 C 0 km/h
858 10-06-2009 03:35:59 14.8 C 8.99 g/m*3 14.8 C 0 km/h
859 10-06-2009 03:47:59 14.8 C 9.12 g/m*3 14.8 C 0 km/h
860 10-06-2009 03:58:59 14.7 C 9.07 g/m*3 14.7 C 0 km/h
861 10-06-2009 04:10:59 14.5 C 8.95 g/m*3 14.5 C 0 km/h
862 10-06-2009 04:22:59 14.4 C 9.02 g/m*3 14.4 C 0 km/h
863 10-06-2009 04:35:00 14.4 C 9.02 g/m*3 14.4 C 0 km/h
864 10-06-2009 04:47:00 14.6 C 9.13 g/m*3 14.6 C 0 km/h
865 10-06-2009 04:59:00 14.4 C 9.02 g/m*3 14.4 C 0 km/h
866 10-06-2009 05:11:00 14.4 C 9.15 g/m*3 14.4 C 0 km/h
867 10-06-2009 05:23:00 14.4 C 9.27 g/m*3 14.4 C 0 km/h
868 10-06-2009 05:35:00 14.4 C 9.27 g/m*3 14.4 C 0 km/h
869 10-06-2009 05:47:00 14.4 C 9.27 g/m*3 14.4 C 0 km/h
870 10-06-2009 05:59:00 14.5 C 9.2 g/m*3 14.5 C 0 km/h
871 10-06-2009 06:11:00 14.4 C 9.15 g/m*3 14.4 C 0 km/h
872 10-06-2009 06:23:00 14.5 C 9.2 g/m*3 14.5 C 0 km/h
873 10-06-2009 06:35:00 14.8 C 9.37 g/m*3 14.8 C 0 km/h
874 10-06-2009 06:47:00 14.9 C 9.3 g/m*3 14.9 C 0 km/h
875 10-06-2009 06:59:00 15.1 C 9.16 g/m*3 15.1 C 0 km/h
Sensor: Nr:Datum:Temp:Abs-Feuchte:Windchill:Wind:
Aussen-T/F 876 10-06-2009 07:11:59 15.2 C 9.09 g/m*3 15.2 C 0 km/h
877 10-06-2009 07:23:58 15.4 C 9.2 g/m*3 15.4 C 0 km/h
878 10-06-2009 07:35:58 15.6 C 9.18 g/m*3 15.6 C 0 km/h
879 10-06-2009 07:47:58 15.8 C 9.29 g/m*3 15.8 C 0 km/h
880 10-06-2009 07:59:58 16.1 C 9.18 g/m*3 16.1 C 0 km/h
881 10-06-2009 08:11:58 16.2 C 8.96 g/m*3 16.2 C 0 km/h
882 10-06-2009 08:23:57 16.5 C 9.13 g/m*3 16.5 C 0 km/h
883 10-06-2009 08:35:58 16.7 C 9.1 g/m*3 16.7 C 0 km/h
884 10-06-2009 08:47:57 16.8 C 9.15 g/m*3 16.8 C 0 km/h
885 10-06-2009 08:59:57 16.7 C 9.1 g/m*3 16.7 C 0 km/h
886 10-06-2009 09:11:57 17.1 C 8.88 g/m*3 17.1 C 0 km/h
887 10-06-2009 09:23:58 16.9 C 8.92 g/m*3 16.9 C 0 km/h
888 10-06-2009 09:35:57 16.5 C 9.13 g/m*3 16.5 C 0 km/h
889 10-06-2009 09:47:57 15.6 C 9.58 g/m*3 15.6 C 0 km/h
890 10-06-2009 09:59:57 15.2 C 9.73 g/m*3 15.2 C 0 km/h
891 10-06-2009 10:11:56 14.9 C 10.07 g/m*3 14.9 C 0 km/h
892 10-06-2009 10:23:57 14.6 C 10.01 g/m*3 14.6 C 0 km/h
893 10-06-2009 10:35:56 15 C 10.39 g/m*3 15 C 0 km/h
894 10-06-2009 10:47:56 15.3 C 10.45 g/m*3 15.3 C 0 km/h
895 10-06-2009 10:59:57 15.7 C 10.3 g/m*3 15.7 C 0 km/h
896 10-06-2009 11:11:56 16.2 C 10.2 g/m*3 16.2 C 0 km/h
897 10-06-2009 11:23:56 16.9 C 10.36 g/m*3 16.9 C 0 km/h
898 10-06-2009 11:35:56 17.3 C 10.02 g/m*3 17.3 C 0 km/h
899 10-06-2009 11:47:56 18.3 C 9.85 g/m*3 18.3 C 0 km/h
900 10-06-2009 11:59:56 18.4 C 9.75 g/m*3 18.4 C 0 km/h
Sensor: Nr:Datum:Temp:Abs-Feuchte:Windchill:Wind:
Aussen-T/F 901 10-06-2009 12:11:56 19 C 9.45 g/m*3 19 C 0 km/h
902 10-06-2009 12:23:55 19.9 C 8.93 g/m*3 19.9 C 0 km/h
903 10-06-2009 12:35:55 20.1 C 8.17 g/m*3 20.1 C 0 km/h
904 10-06-2009 12:47:55 20.3 C 7.91 g/m*3 20.3 C 0 km/h
905 10-06-2009 12:59:55 19.4 C 7.84 g/m*3 19.4 C 0 km/h
906 10-06-2009 13:11:55 19.5 C 8.22 g/m*3 19.5 C 0 km/h
907 10-06-2009 13:23:55 22.8 C 7.72 g/m*3 22.8 C 0 km/h
908 10-06-2009 13:35:55 23.4 C 7.36 g/m*3 23.4 C 0 km/h
909 10-06-2009 13:47:55 21.6 C 6.45 g/m*3 21.6 C 0 km/h
910 10-06-2009 13:59:55 22.7 C 6.67 g/m*3 22.7 C 0 km/h
911 10-06-2009 14:11:54 22.1 C 6.64 g/m*3 22.1 C 0 km/h
912 10-06-2009 14:23:54 22 C 6.21 g/m*3 22 C 0 km/h
913 10-06-2009 14:35:54 22 C 6.6 g/m*3 22 C 0 km/h
914 10-06-2009 14:47:54 22.3 C 6.32 g/m*3 22.3 C 0 km/h
915 10-06-2009 14:59:55 22.6 C 6.43 g/m*3 22.6 C 0 km/h
916 10-06-2009 15:11:53 22.5 C 5.79 g/m*3 22.5 C 0 km/h
917 10-06-2009 15:23:54 23.5 C 6.13 g/m*3 23.5 C 0 km/h
918 10-06-2009 15:35:54 23.4 C 5.68 g/m*3 23.4 C 0 km/h
919 10-06-2009 15:47:53 23.3 C 5.44 g/m*3 23.3 C 0 km/h
920 10-06-2009 15:59:53 23.5 C 5.5 g/m*3 23.5 C 0 km/h
921 10-06-2009 16:11:54 23.4 C 4.84 g/m*3 23.4 C 0 km/h
922 10-06-2009 16:23:53 22.8 C 5.08 g/m*3 22.8 C 0 km/h
923 10-06-2009 16:35:53 23.1 C 5.17 g/m*3 23.1 C 0 km/h
924 10-06-2009 16:47:53 24.1 C 5.47 g/m*3 24.1 C 0 km/h
925 10-06-2009 16:59:53 23.2 C 5.2 g/m*3 23.2 C 0 km/h
Sensor: Nr:Datum:Temp:Abs-Feuchte:Windchill:Wind:
Aussen-T/F 926 10-06-2009 17:11:53 23.2 C 4.57 g/m*3 23.2 C 0 km/h
927 10-06-2009 17:23:53 23.8 C 4.95 g/m*3 23.8 C 0 km/h
928 10-06-2009 17:35:52 22.2 C 4.91 g/m*3 22.2 C 0 km/h
929 10-06-2009 17:47:53 22.3 C 5.13 g/m*3 22.3 C 0 km/h
930 10-06-2009 17:59:53 21.9 C 5.21 g/m*3 21.9 C 0 km/h
931 10-06-2009 18:11:52 21.5 C 5.47 g/m*3 21.5 C 0 km/h
932 10-06-2009 18:23:52 19.4 C 7.51 g/m*3 19.4 C 0 km/h
933 10-06-2009 18:35:52 17.7 C 9.05 g/m*3 17.7 C 0 km/h
934 10-06-2009 18:47:52 18.5 C 9.02 g/m*3 18.5 C 0 km/h
935 10-06-2009 18:59:53 18.7 C 8.97 g/m*3 18.7 C 0 km/h
936 10-06-2009 19:11:51 18.5 C 8.7 g/m*3 18.5 C 0 km/h
937 10-06-2009 19:23:51 18.4 C 8.65 g/m*3 18.4 C 0 km/h
938 10-06-2009 19:35:52 18.3 C 8.76 g/m*3 18.3 C 0 km/h
939 10-06-2009 19:47:51 17.2 C 8.93 g/m*3 17.2 C 0 km/h
940 10-06-2009 19:59:51 15.8 C 9.42 g/m*3 15.8 C 0 km/h
941 10-06-2009 20:11:51 15.6 C 9.84 g/m*3 15.6 C 0 km/h
942 10-06-2009 20:23:51 15.5 C 9.52 g/m*3 15.5 C 0 km/h
943 10-06-2009 20:35:51 15.6 C 9.44 g/m*3 15.6 C 0 km/h
944 10-06-2009 20:47:50 15.8 C 9.69 g/m*3 15.8 C 0 km/h
945 10-06-2009 20:59:50 15.4 C 9.59 g/m*3 15.4 C 0 km/h
946 10-06-2009 21:11:50 15.5 C 9.65 g/m*3 15.5 C 0 km/h
947 10-06-2009 21:23:51 15.6 C 9.71 g/m*3 15.6 C 0 km/h
948 10-06-2009 21:35:50 15.6 C 9.31 g/m*3 15.6 C 0 km/h
949 10-06-2009 21:47:50 15.8 C 9.15 g/m*3 15.8 C 0 km/h
950 10-06-2009 21:59:50 15.5 C 9.12 g/m*3 15.5 C 0 km/h
Sensor: Nr:Datum:Temp:Abs-Feuchte:Windchill:Wind:
Aussen-T/F 951 10-06-2009 22:11:50 14.5 C 9.83 g/m*3 14.5 C 0 km/h
952 10-06-2009 22:24:50 14.3 C 10.07 g/m*3 14.3 C 0 km/h
953 10-06-2009 22:36:50 14.1 C 10.19 g/m*3 14.1 C 0 km/h
954 10-06-2009 22:48:50 14.2 C 10.38 g/m*3 14.2 C 0 km/h
955 10-06-2009 23:00:50 14.2 C 10.5 g/m*3 14.2 C 0 km/h
956 10-06-2009 23:12:51 14.2 C 10.62 g/m*3 14.2 C 0 km/h
957 10-06-2009 23:24:51 14 C 10.49 g/m*3 14 C 0 km/h
958 10-06-2009 23:36:51 14.1 C 10.56 g/m*3 14.1 C 0 km/h
959 10-06-2009 23:48:51 14.4 C 10.51 g/m*3 14.4 C 0 km/h
960 11-06-2009 00:00:51 14.5 C 10.45 g/m*3 14.5 C 0 km/h
961 11-06-2009 00:12:51 14.2 C 10.14 g/m*3 14.2 C 0 km/h
962 11-06-2009 00:24:51 14.2 C 10.26 g/m*3 14.2 C 0 km/h
963 11-06-2009 00:36:51 14.1 C 10.19 g/m*3 14.1 C 0 km/h
964 11-06-2009 00:48:51 14 C 10.25 g/m*3 14 C 0 km/h
965 11-06-2009 01:00:51 13.8 C 10.25 g/m*3 13.8 C 0 km/h
966 11-06-2009 01:12:51 13.9 C 10.43 g/m*3 13.9 C 0 km/h
967 11-06-2009 01:24:51 13.9 C 10.67 g/m*3 13.9 C 0 km/h
968 11-06-2009 01:36:51 13.9 C 10.79 g/m*3 13.9 C 0 km/h
969 11-06-2009 01:48:51 13.9 C 10.91 g/m*3 13.9 C 0 km/h
970 11-06-2009 02:00:51 14 C 10.98 g/m*3 14 C 0 km/h
971 11-06-2009 02:12:51 13.9 C 11.03 g/m*3 13.9 C 0 km/h
972 11-06-2009 02:24:51 13.9 C 11.03 g/m*3 13.9 C 0 km/h
973 11-06-2009 02:36:51 14 C 11.1 g/m*3 14 C 0 km/h
974 11-06-2009 02:48:51 14 C 11.1 g/m*3 14 C 0 km/h
975 11-06-2009 03:00:52 14 C 11.1 g/m*3 14 C 0 km/h
Sensor: Nr:Datum:Temp:Abs-Feuchte:Windchill:Wind:
Aussen-T/F 976 11-06-2009 03:12:52 14.1 C 11.29 g/m*3 14.1 C 0 km/h
977 11-06-2009 03:24:52 14.2 C 11.36 g/m*3 14.2 C 0 km/h
978 11-06-2009 03:36:52 14.2 C 11.36 g/m*3 14.2 C 0 km/h
979 11-06-2009 03:48:52 14 C 11.22 g/m*3 14 C 0 km/h
980 11-06-2009 04:00:52 14 C 11.22 g/m*3 14 C 0 km/h
981 11-06-2009 04:12:52 14 C 11.34 g/m*3 14 C 0 km/h
982 11-06-2009 04:24:52 14 C 11.34 g/m*3 14 C 0 km/h
983 11-06-2009 04:36:52 14.1 C 11.41 g/m*3 14.1 C 0 km/h
984 11-06-2009 04:48:52 14.2 C 11.48 g/m*3 14.2 C 0 km/h
985 11-06-2009 05:00:52 14.2 C 11.48 g/m*3 14.2 C 0 km/h
986 11-06-2009 05:12:52 14.2 C 11.48 g/m*3 14.2 C 0 km/h
987 11-06-2009 05:24:52 14.4 C 11.5 g/m*3 14.4 C 0 km/h
988 11-06-2009 05:36:52 14.6 C 11.26 g/m*3 14.6 C 0 km/h
989 11-06-2009 05:48:52 14.5 C 11.07 g/m*3 14.5 C 0 km/h
990 11-06-2009 06:00:52 14.6 C 11.14 g/m*3 14.6 C 0 km/h
991 11-06-2009 06:12:52 14.2 C 10.87 g/m*3 14.2 C 0 km/h
992 11-06-2009 06:24:52 14.2 C 10.87 g/m*3 14.2 C 0 km/h
993 11-06-2009 06:36:52 14.3 C 10.93 g/m*3 14.3 C 0 km/h
994 11-06-2009 06:48:53 14.4 C 11 g/m*3 14.4 C 0 km/h
995 11-06-2009 07:00:53 14.4 C 10.75 g/m*3 14.4 C 0 km/h
996 11-06-2009 07:12:53 14.5 C 10.82 g/m*3 14.5 C 0 km/h
997 11-06-2009 07:24:53 14.5 C 10.94 g/m*3 14.5 C 0 km/h
998 11-06-2009 07:36:53 14.8 C 11.02 g/m*3 14.8 C 0 km/h
999 11-06-2009 07:48:53 14.7 C 10.32 g/m*3 14.7 C 0 km/h
1000 11-06-2009 08:00:53 14.7 C 10.2 g/m*3 14.7 C 0 km/h
Sensor: Nr:Datum:Temp:Abs-Feuchte:Windchill:Wind:
Aussen-T/F 1001 11-06-2009 08:12:53 14.7 C 9.57 g/m*3 14.7 C 0 km/h
1002 11-06-2009 08:24:53 14.7 C 9.57 g/m*3 14.7 C 0 km/h
1003 11-06-2009 08:36:50 14.8 C 9.5 g/m*3 14.8 C 0 km/h
1004 11-06-2009 08:48:49 14.9 C 8.92 g/m*3 14.9 C 0 km/h
1005 11-06-2009 09:00:50 15 C 8.72 g/m*3 15 C 0 km/h
1006 11-06-2009 09:12:50 15 C 8.33 g/m*3 15 C 0 km/h
1007 11-06-2009 09:24:49 15.3 C 8.23 g/m*3 15.3 C 0 km/h
1008 11-06-2009 09:36:49 15.1 C 7.74 g/m*3 15.1 C 0 km/h
1009 11-06-2009 09:48:02 15 C 7.82 g/m*3 15 C 0 km/h
1010 11-06-2009 10:00:02 15 C 7.82 g/m*3 15 C 0 km/h
1011 11-06-2009 10:12:01 14.9 C 8.03 g/m*3 14.9 C 0 km/h
1012 11-06-2009 10:24:02 15.1 C 7.87 g/m*3 15.1 C 0 km/h
1013 11-06-2009 10:36:01 15.5 C 7.8 g/m*3 15.5 C 0 km/h
1014 11-06-2009 10:48:01 15.7 C 7.89 g/m*3 15.7 C 0 km/h
1015 11-06-2009 11:00:01 15.2 C 8.05 g/m*3 15.2 C 0 km/h
1016 11-06-2009 11:12:01 15.3 C 7.84 g/m*3 15.3 C 0 km/h
1017 11-06-2009 11:24:01 15.5 C 7.53 g/m*3 15.5 C 0 km/h
1018 11-06-2009 11:36:01 15.4 C 7.23 g/m*3 15.4 C 0 km/h
1019 11-06-2009 11:48:01 15.3 C 7.05 g/m*3 15.3 C 0 km/h
1020 11-06-2009 12:00:01 15.2 C 6.75 g/m*3 15.2 C 0 km/h
1021 11-06-2009 12:12:01 15.2 C 6.62 g/m*3 15.2 C 0 km/h
1022 11-06-2009 12:24:00 15.3 C 6.53 g/m*3 15.3 C 0 km/h
1023 11-06-2009 12:36:00 15.4 C 6.57 g/m*3 15.4 C 0 km/h
1024 11-06-2009 12:48:00 15.3 C 6.66 g/m*3 15.3 C 0 km/h
1025 11-06-2009 13:00:00 15.2 C 6.62 g/m*3 15.2 C 0 km/h
Sensor: Nr:Datum:Temp:Abs-Feuchte:Windchill:Wind:
Aussen-T/F 1026 11-06-2009 13:12:00 15.3 C 6.66 g/m*3 15.3 C 0 km/h
1027 11-06-2009 13:24:59 15.4 C 6.96 g/m*3 15.4 C 0 km/h
1028 11-06-2009 13:36:00 15.2 C 6.88 g/m*3 15.2 C 0 km/h
1029 11-06-2009 13:48:59 15.4 C 6.96 g/m*3 15.4 C 0 km/h
1030 11-06-2009 14:00:59 15.5 C 7.67 g/m*3 15.5 C 0 km/h
1031 11-06-2009 14:12:59 15.8 C 7.81 g/m*3 15.8 C 0 km/h
1032 11-06-2009 14:24:00 17.3 C 7.66 g/m*3 17.3 C 0 km/h
1033 11-06-2009 14:36:59 16.9 C 7.05 g/m*3 16.9 C 0 km/h
1034 11-06-2009 14:48:59 16.2 C 7.45 g/m*3 16.2 C 0 km/h
1035 11-06-2009 15:00:58 16.4 C 7.4 g/m*3 16.4 C 0 km/h
1036 11-06-2009 15:12:58 16.3 C 7.63 g/m*3 16.3 C 0 km/h
1037 11-06-2009 15:24:59 16.8 C 7.43 g/m*3 16.8 C 0 km/h
1038 11-06-2009 15:36:59 16.8 C 7.29 g/m*3 16.8 C 0 km/h
1039 11-06-2009 15:48:58 17.5 C 7.45 g/m*3 17.5 C 0 km/h
1040 11-06-2009 16:00:59 16.7 C 7.82 g/m*3 16.7 C 0 km/h
1041 11-06-2009 16:12:59 16.4 C 8.1 g/m*3 16.4 C 0 km/h
1042 11-06-2009 16:24:58 17.3 C 8.1 g/m*3 17.3 C 0 km/h
1043 11-06-2009 16:36:58 16.6 C 7.63 g/m*3 16.6 C 0 km/h
1044 11-06-2009 16:48:58 16 C 7.9 g/m*3 16 C 0 km/h
1045 11-06-2009 17:00:58 16.2 C 7.72 g/m*3 16.2 C 0 km/h
1046 11-06-2009 17:12:59 16.4 C 7.82 g/m*3 16.4 C 0 km/h
1047 11-06-2009 17:24:57 16.4 C 8.37 g/m*3 16.4 C 0 km/h
1048 11-06-2009 17:36:57 18.3 C 8.6 g/m*3 18.3 C 0 km/h
1049 11-06-2009 17:48:57 17.5 C 8.05 g/m*3 17.5 C 0 km/h
1050 11-06-2009 18:00:57 16 C 8.31 g/m*3 16 C 0 km/h
Sensor: Nr:Datum:Temp:Abs-Feuchte:Windchill:Wind:
Aussen-T/F 1051 11-06-2009 18:12:57 14.4 C 9.02 g/m*3 14.4 C 0 km/h
1052 11-06-2009 18:24:57 13.2 C 9.19 g/m*3 13.2 C 0 km/h
1053 11-06-2009 18:36:57 13.3 C 9.7 g/m*3 13.3 C 0 km/h
1054 11-06-2009 18:48:57 14.2 C 10.38 g/m*3 14.2 C 0 km/h
1055 11-06-2009 19:00:56 14.2 C 10.38 g/m*3 14.2 C 0 km/h
1056 11-06-2009 19:12:56 15.3 C 10.84 g/m*3 15.3 C 0 km/h
1057 11-06-2009 19:24:56 16 C 10.49 g/m*3 16 C 0 km/h
1058 11-06-2009 19:36:57 16 C 10.63 g/m*3 16 C 0 km/h
1059 11-06-2009 19:48:56 14.9 C 10.07 g/m*3 14.9 C 0 km/h
1060 11-06-2009 20:00:07 14.4 C 9.89 g/m*3 14.4 C 0 km/h
1061 11-06-2009 20:12:07 13.4 C 9.65 g/m*3 13.4 C 0 km/h
1062 11-06-2009 20:24:07 11.9 C 8.68 g/m*3 11.9 C 0 km/h
1063 11-06-2009 20:36:07 11.9 C 8.79 g/m*3 11.9 C 0 km/h
1064 11-06-2009 20:48:56 12.3 C 8.9 g/m*3 12.3 C 0 km/h
1065 11-06-2009 21:00:56 12.5 C 9.02 g/m*3 12.5 C 0 km/h
1066 11-06-2009 21:12:56 12.5 C 8.8 g/m*3 12.5 C 0 km/h
1067 11-06-2009 21:24:56 12.6 C 8.85 g/m*3 12.6 C 0 km/h
1068 11-06-2009 21:36:56 12.5 C 8.8 g/m*3 12.5 C 0 km/h
1069 11-06-2009 21:48:56 12.3 C 8.8 g/m*3 12.3 C 0 km/h
1070 11-06-2009 22:01:57 12.3 C 8.8 g/m*3 12.3 C 0 km/h
1071 11-06-2009 22:13:57 12.4 C 8.85 g/m*3 12.4 C 0 km/h
1072 11-06-2009 22:25:57 12.4 C 8.74 g/m*3 12.4 C 0 km/h
1073 11-06-2009 22:37:57 12.5 C 8.69 g/m*3 12.5 C 0 km/h
1074 11-06-2009 22:49:57 12.4 C 8.74 g/m*3 12.4 C 0 km/h
1075 11-06-2009 23:01:57 12.4 C 8.74 g/m*3 12.4 C 0 km/h
Sensor: Nr:Datum:Temp:Abs-Feuchte:Windchill:Wind:
Aussen-T/F 1076 11-06-2009 23:13:57 12.4 C 8.63 g/m*3 12.4 C 0 km/h
1077 11-06-2009 23:25:57 12.1 C 8.47 g/m*3 12.1 C 0 km/h
1078 11-06-2009 23:37:58 12 C 8.42 g/m*3 12 C 0 km/h
1079 11-06-2009 23:49:58 12 C 8.31 g/m*3 12 C 0 km/h
1080 12-06-2009 00:01:58 11.5 C 8.16 g/m*3 11.5 C 0 km/h
1081 12-06-2009 00:13:58 11.4 C 8.11 g/m*3 11.4 C 0 km/h
1082 12-06-2009 00:25:58 11.3 C 8.06 g/m*3 11.3 C 0 km/h
1083 12-06-2009 00:37:58 11.5 C 8.16 g/m*3 11.5 C 0 km/h
1084 12-06-2009 00:49:58 11.7 C 8.16 g/m*3 11.7 C 0 km/h
1085 12-06-2009 01:01:58 11.6 C 8.21 g/m*3 11.6 C 0 km/h
1086 12-06-2009 01:13:58 11.1 C 8.26 g/m*3 11.1 C 0 km/h
1087 12-06-2009 01:25:58 10.8 C 8.4 g/m*3 10.8 C 0 km/h
1088 12-06-2009 01:37:58 10.6 C 8.49 g/m*3 10.6 C 0 km/h
1089 12-06-2009 01:49:58 10.5 C 8.53 g/m*3 10.5 C 0 km/h
1090 12-06-2009 02:01:58 10.4 C 8.58 g/m*3 10.4 C 0 km/h
1091 12-06-2009 02:13:58 10.3 C 8.52 g/m*3 10.3 C 0 km/h
1092 12-06-2009 02:25:58 10.4 C 8.48 g/m*3 10.4 C 0 km/h
1093 12-06-2009 02:37:58 10.3 C 8.24 g/m*3 10.3 C 0 km/h
1094 12-06-2009 02:49:58 10.3 C 8.14 g/m*3 10.3 C 0 km/h
1095 12-06-2009 03:01:58 10.4 C 8.1 g/m*3 10.4 C 0 km/h
1096 12-06-2009 03:13:58 10.4 C 8 g/m*3 10.4 C 0 km/h
1097 12-06-2009 03:25:59 10.2 C 7.9 g/m*3 10.2 C 0 km/h
1098 12-06-2009 03:37:59 10 C 7.89 g/m*3 10 C 0 km/h
1099 12-06-2009 03:49:59 9.9 C 7.94 g/m*3 9.9 C 0 km/h
1100 12-06-2009 04:01:59 9.9 C 8.03 g/m*3 9.9 C 0 km/h
Sensor: Nr:Datum:Temp:Abs-Feuchte:Windchill:Wind:
Aussen-T/F 1101 12-06-2009 04:13:59 10 C 7.99 g/m*3 10 C 0 km/h
1102 12-06-2009 04:25:59 9.8 C 8.07 g/m*3 9.8 C 0 km/h
1103 12-06-2009 04:37:59 9.6 C 7.97 g/m*3 9.6 C 0 km/h
1104 12-06-2009 04:49:59 9.4 C 7.96 g/m*3 9.4 C 0 km/h
1105 12-06-2009 05:01:59 9.5 C 8.1 g/m*3 9.5 C 0 km/h
1106 12-06-2009 05:13:59 9.6 C 8.06 g/m*3 9.6 C 0 km/h
1107 12-06-2009 05:25:59 9.2 C 7.86 g/m*3 9.2 C 0 km/h
1108 12-06-2009 05:37:59 9.1 C 7.72 g/m*3 9.1 C 0 km/h
1109 12-06-2009 05:49:59 9.1 C 7.72 g/m*3 9.1 C 0 km/h
1110 12-06-2009 06:01:59 9.2 C 7.77 g/m*3 9.2 C 0 km/h
1111 12-06-2009 06:13:59 9.1 C 7.72 g/m*3 9.1 C 0 km/h
1112 12-06-2009 06:25:58 9.1 C 7.72 g/m*3 9.1 C 0 km/h
1113 12-06-2009 06:37:57 9.2 C 7.77 g/m*3 9.2 C 0 km/h
1114 12-06-2009 06:49:57 9.3 C 7.82 g/m*3 9.3 C 0 km/h
1115 12-06-2009 07:01:57 9.7 C 7.84 g/m*3 9.7 C 0 km/h
1116 12-06-2009 07:13:57 10 C 7.61 g/m*3 10 C 0 km/h
1117 12-06-2009 07:25:57 10.1 C 7.56 g/m*3 10.1 C 0 km/h
1118 12-06-2009 07:37:56 10.2 C 7.52 g/m*3 10.2 C 0 km/h
1119 12-06-2009 07:49:56 10.4 C 7.61 g/m*3 10.4 C 0 km/h
1120 12-06-2009 08:01:57 10.5 C 7.57 g/m*3 10.5 C 0 km/h
1121 12-06-2009 08:13:57 10.8 C 7.71 g/m*3 10.8 C 0 km/h
1122 12-06-2009 08:25:56 11 C 7.51 g/m*3 11 C 0 km/h
1123 12-06-2009 08:37:56 11.2 C 7.5 g/m*3 11.2 C 0 km/h
1124 12-06-2009 08:49:56 11.7 C 7.74 g/m*3 11.7 C 0 km/h
1125 12-06-2009 09:01:56 12.1 C 7.83 g/m*3 12.1 C 0 km/h
Sensor: Nr:Datum:Temp:Abs-Feuchte:Windchill:Wind:
Aussen-T/F 1126 12-06-2009 09:13:56 12.4 C 7.87 g/m*3 12.4 C 0 km/h
1127 12-06-2009 09:25:56 12.9 C 8.11 g/m*3 12.9 C 0 km/h
1128 12-06-2009 09:37:56 13.4 C 8.14 g/m*3 13.4 C 0 km/h
1129 12-06-2009 09:49:55 14.1 C 8.01 g/m*3 14.1 C 0 km/h
1130 12-06-2009 10:01:55 15.4 C 8.28 g/m*3 15.4 C 0 km/h
1131 12-06-2009 10:13:55 16.9 C 8.05 g/m*3 16.9 C 0 km/h
1132 12-06-2009 10:25:55 17.3 C 7.51 g/m*3 17.3 C 0 km/h
1133 12-06-2009 10:37:55 17.5 C 7.16 g/m*3 17.5 C 0 km/h
1134 12-06-2009 10:49:54 17.2 C 6.74 g/m*3 17.2 C 0 km/h
1135 12-06-2009 11:01:55 16.8 C 6.58 g/m*3 16.8 C 0 km/h
1136 12-06-2009 11:13:55 17.1 C 6.11 g/m*3 17.1 C 0 km/h
1137 12-06-2009 11:25:55 17.9 C 5.5 g/m*3 17.9 C 0 km/h
1138 12-06-2009 11:37:54 18.3 C 5.47 g/m*3 18.3 C 0 km/h
1139 12-06-2009 11:49:55 18.7 C 5.6 g/m*3 18.7 C 0 km/h
1140 12-06-2009 12:01:54 18.9 C 5.51 g/m*3 18.9 C 0 km/h
1141 12-06-2009 12:13:54 17.4 C 5.93 g/m*3 17.4 C 0 km/h
1142 12-06-2009 12:25:54 18.5 C 5.85 g/m*3 18.5 C 0 km/h
1143 12-06-2009 12:37:53 20.4 C 5.31 g/m*3 20.4 C 0 km/h
1144 12-06-2009 12:49:54 20.7 C 4.68 g/m*3 20.7 C 0 km/h
1145 12-06-2009 13:01:53 18.1 C 5.1 g/m*3 18.1 C 0 km/h
1146 12-06-2009 13:13:53 20.9 C 5.65 g/m*3 20.9 C 0 km/h
1147 12-06-2009 13:25:53 23.3 C 4.6 g/m*3 23.3 C 0 km/h
1148 12-06-2009 13:37:54 21.8 C 5.56 g/m*3 21.8 C 0 km/h
1149 12-06-2009 13:49:53 20.6 C 5.37 g/m*3 20.6 C 0 km/h
1150 12-06-2009 14:01:53 21 C 4.95 g/m*3 21 C 0 km/h
Sensor: Nr:Datum:Temp:Abs-Feuchte:Windchill:Wind:
Aussen-T/F 1151 12-06-2009 14:13:53 21.2 C 4.63 g/m*3 21.2 C 0 km/h
1152 12-06-2009 14:25:53 21.3 C 4.85 g/m*3 21.3 C 0 km/h
1153 12-06-2009 14:37:53 21.3 C 5.22 g/m*3 21.3 C 0 km/h
1154 12-06-2009 14:49:52 21 C 4.95 g/m*3 21 C 0 km/h
1155 12-06-2009 15:01:52 20.7 C 5.58 g/m*3 20.7 C 0 km/h
1156 12-06-2009 15:13:52 21.8 C 5.56 g/m*3 21.8 C 0 km/h
1157 12-06-2009 15:25:52 21.6 C 5.12 g/m*3 21.6 C 0 km/h
1158 12-06-2009 15:37:52 21.6 C 5.31 g/m*3 21.6 C 0 km/h
1159 12-06-2009 15:49:52 21.5 C 5.28 g/m*3 21.5 C 0 km/h
1160 12-06-2009 16:01:52 21.7 C 5.34 g/m*3 21.7 C 0 km/h
1161 12-06-2009 16:13:52 21.4 C 5.25 g/m*3 21.4 C 0 km/h
1162 12-06-2009 16:25:52 22.2 C 5.3 g/m*3 22.2 C 0 km/h
1163 12-06-2009 16:37:51 23.1 C 5.37 g/m*3 23.1 C 0 km/h
1164 12-06-2009 16:49:52 23.6 C 5.32 g/m*3 23.6 C 0 km/h
1165 12-06-2009 17:01:51 22.7 C 5.05 g/m*3 22.7 C 0 km/h
1166 12-06-2009 17:13:51 22.2 C 4.91 g/m*3 22.2 C 0 km/h
1167 12-06-2009 17:25:51 21.6 C 5.12 g/m*3 21.6 C 0 km/h
1168 12-06-2009 17:37:51 23 C 4.73 g/m*3 23 C 0 km/h
1169 12-06-2009 17:49:51 22.7 C 5.05 g/m*3 22.7 C 0 km/h
1170 12-06-2009 18:01:51 22.2 C 4.91 g/m*3 22.2 C 0 km/h
1171 12-06-2009 18:13:51 21.8 C 4.99 g/m*3 21.8 C 0 km/h
1172 12-06-2009 18:25:50 22.7 C 5.05 g/m*3 22.7 C 0 km/h
1173 12-06-2009 18:37:51 22 C 5.05 g/m*3 22 C 0 km/h
1174 12-06-2009 18:49:50 22.7 C 5.05 g/m*3 22.7 C 0 km/h
1175 12-06-2009 19:01:50 22.7 C 5.05 g/m*3 22.7 C 0 km/h
Sensor: Nr:Datum:Temp:Abs-Feuchte:Windchill:Wind:
Aussen-T/F 1176 12-06-2009 19:13:50 22.9 C 5.11 g/m*3 22.9 C 0 km/h
1177 12-06-2009 19:25:50 23.1 C 5.17 g/m*3 23.1 C 0 km/h
1178 12-06-2009 19:37:50 22.9 C 5.11 g/m*3 22.9 C 0 km/h
1179 12-06-2009 19:49:49 22.1 C 4.88 g/m*3 22.1 C 0 km/h
1180 12-06-2009 20:01:50 21.5 C 4.9 g/m*3 21.5 C 0 km/h
1181 12-06-2009 20:13:50 21.5 C 5.09 g/m*3 21.5 C 0 km/h
1182 12-06-2009 20:25:50 20.4 C 5.31 g/m*3 20.4 C 0 km/h
1183 12-06-2009 20:37:49 20.2 C 5.25 g/m*3 20.2 C 0 km/h
1184 12-06-2009 20:49:50 20 C 5.18 g/m*3 20 C 0 km/h
1185 12-06-2009 21:01:48 19.7 C 5.43 g/m*3 19.7 C 0 km/h
1186 12-06-2009 21:13:48 19 C 5.54 g/m*3 19 C 0 km/h
1187 12-06-2009 21:25:49 18.2 C 5.28 g/m*3 18.2 C 0 km/h
1188 12-06-2009 21:37:49 17.8 C 5.46 g/m*3 17.8 C 0 km/h
1189 12-06-2009 21:49:48 17.3 C 5.45 g/m*3 17.3 C 0 km/h
1190 12-06-2009 22:01:49 16.8 C 5.43 g/m*3 16.8 C 0 km/h
1191 12-06-2009 22:13:49 16.5 C 5.48 g/m*3 16.5 C 0 km/h
1192 12-06-2009 22:26:50 16.2 C 5.52 g/m*3 16.2 C 0 km/h
1193 12-06-2009 22:38:50 15.8 C 5.52 g/m*3 15.8 C 0 km/h
1194 12-06-2009 22:50:50 15.5 C 5.95 g/m*3 15.5 C 0 km/h
1195 12-06-2009 23:02:50 15 C 6.03 g/m*3 15 C 0 km/h
1196 12-06-2009 23:14:50 14.6 C 6.13 g/m*3 14.6 C 0 km/h
1197 12-06-2009 23:26:50 14.3 C 6.27 g/m*3 14.3 C 0 km/h
1198 12-06-2009 23:38:50 13.9 C 6.59 g/m*3 13.9 C 0 km/h
1199 12-06-2009 23:50:50 13.4 C 6.63 g/m*3 13.4 C 0 km/h
1200 13-06-2009 00:02:50 13.2 C 6.77 g/m*3 13.2 C 0 km/h
Sensor: Nr:Datum:Temp:Abs-Feuchte:Windchill:Wind:
Aussen-T/F 1201 13-06-2009 00:14:50 13 C 6.8 g/m*3 13 C 0 km/h
1202 13-06-2009 00:26:50 12.7 C 7.01 g/m*3 12.7 C 0 km/h
1203 13-06-2009 00:38:50 12.4 C 6.88 g/m*3 12.4 C 0 km/h
1204 13-06-2009 00:50:50 12.2 C 6.8 g/m*3 12.2 C 0 km/h
1205 13-06-2009 01:02:50 12.1 C 6.86 g/m*3 12.1 C 0 km/h
1206 13-06-2009 01:14:50 11.8 C 6.95 g/m*3 11.8 C 0 km/h
1207 13-06-2009 01:26:50 11.5 C 6.92 g/m*3 11.5 C 0 km/h
1208 13-06-2009 01:38:50 11.3 C 6.83 g/m*3 11.3 C 0 km/h
1209 13-06-2009 01:50:51 11.1 C 6.65 g/m*3 11.1 C 0 km/h
1210 13-06-2009 02:02:51 10.9 C 6.76 g/m*3 10.9 C 0 km/h
1211 13-06-2009 02:14:51 10.7 C 6.78 g/m*3 10.7 C 0 km/h
1212 13-06-2009 02:26:51 10.6 C 6.83 g/m*3 10.6 C 0 km/h
1213 13-06-2009 02:38:51 10.3 C 6.9 g/m*3 10.3 C 0 km/h
1214 13-06-2009 02:50:51 10.2 C 6.85 g/m*3 10.2 C 0 km/h
1215 13-06-2009 03:02:51 9.9 C 6.91 g/m*3 9.9 C 0 km/h
1216 13-06-2009 03:14:51 9.7 C 6.91 g/m*3 9.7 C 0 km/h
1217 13-06-2009 03:26:51 9.5 C 6.92 g/m*3 9.5 C 0 km/h
1218 13-06-2009 03:38:51 9.5 C 6.92 g/m*3 9.5 C 0 km/h
1219 13-06-2009 03:50:51 9.2 C 6.97 g/m*3 9.2 C 0 km/h
1220 13-06-2009 04:02:51 9 C 6.88 g/m*3 9 C 0 km/h
1221 13-06-2009 04:14:51 8.9 C 7.01 g/m*3 8.9 C 0 km/h
1222 13-06-2009 04:26:51 8.7 C 6.92 g/m*3 8.7 C 0 km/h
1223 13-06-2009 04:38:51 8.6 C 6.87 g/m*3 8.6 C 0 km/h
1224 13-06-2009 04:50:51 8.5 C 6.83 g/m*3 8.5 C 0 km/h
1225 13-06-2009 05:02:51 8.4 C 6.79 g/m*3 8.4 C 0 km/h
Sensor: Nr:Datum:Temp:Abs-Feuchte:Windchill:Wind:
Aussen-T/F 1226 13-06-2009 05:14:51 8.3 C 6.66 g/m*3 8.3 C 0 km/h
1227 13-06-2009 05:26:51 8.2 C 6.7 g/m*3 8.2 C 0 km/h
1228 13-06-2009 05:38:51 8.1 C 6.66 g/m*3 8.1 C 0 km/h
1229 13-06-2009 05:50:51 8.1 C 6.74 g/m*3 8.1 C 0 km/h
1230 13-06-2009 06:02:49 8.2 C 6.78 g/m*3 8.2 C 0 km/h
1231 13-06-2009 06:14:50 8.3 C 6.91 g/m*3 8.3 C 0 km/h
1232 13-06-2009 06:26:51 8.2 C 6.95 g/m*3 8.2 C 0 km/h
1233 13-06-2009 06:38:49 8.4 C 7.04 g/m*3 8.4 C 0 km/h
1234 13-06-2009 06:50:49 8.4 C 7.04 g/m*3 8.4 C 0 km/h
1235 13-06-2009 07:02:49 8.6 C 7.13 g/m*3 8.6 C 0 km/h
1236 13-06-2009 07:14:49 8.7 C 7.18 g/m*3 8.7 C 0 km/h
1237 13-06-2009 07:26:49 8.8 C 7.14 g/m*3 8.8 C 0 km/h
1238 13-06-2009 07:38:49 9.1 C 7.19 g/m*3 9.1 C 0 km/h
1239 13-06-2009 07:50:49 9.3 C 7.19 g/m*3 9.3 C 0 km/h
1240 13-06-2009 08:02:49 9.7 C 7.38 g/m*3 9.7 C 0 km/h
1241 13-06-2009 08:14:48 10 C 7.05 g/m*3 10 C 0 km/h
1242 13-06-2009 08:26:48 10.2 C 6.95 g/m*3 10.2 C 0 km/h
1243 13-06-2009 08:38:48 10.6 C 7.12 g/m*3 10.6 C 0 km/h
1244 13-06-2009 08:50:48 11.7 C 7.22 g/m*3 11.7 C 0 km/h
1245 13-06-2009 09:02:47 12.5 C 7.04 g/m*3 12.5 C 0 km/h
1246 13-06-2009 09:14:48 13.3 C 7.16 g/m*3 13.3 C 0 km/h
1247 13-06-2009 09:26:48 14 C 7 g/m*3 14 C 0 km/h
1248 13-06-2009 09:38:48 14.6 C 7.01 g/m*3 14.6 C 0 km/h
1249 13-06-2009 09:50:47 15.2 C 7.01 g/m*3 15.2 C 0 km/h
1250 13-06-2009 10:02:48 15.4 C 6.96 g/m*3 15.4 C 0 km/h
Sensor: Nr:Datum:Temp:Abs-Feuchte:Windchill:Wind:
Aussen-T/F 1251 13-06-2009 10:14:47 15.7 C 6.96 g/m*3 15.7 C 0 km/h
1252 13-06-2009 10:26:47 16.8 C 7.29 g/m*3 16.8 C 0 km/h
1253 13-06-2009 10:38:47 17.3 C 6.78 g/m*3 17.3 C 0 km/h
1254 13-06-2009 10:50:47 18.4 C 6.76 g/m*3 18.4 C 0 km/h
1255 13-06-2009 11:02:47 18.9 C 6.8 g/m*3 18.9 C 0 km/h
1256 13-06-2009 11:14:47 19.6 C 6.75 g/m*3 19.6 C 0 km/h
1257 13-06-2009 11:26:47 19.9 C 6.36 g/m*3 19.9 C 0 km/h
1258 13-06-2009 11:38:46 20.9 C 6.74 g/m*3 20.9 C 0 km/h
1259 13-06-2009 11:50:47 20.4 C 6.19 g/m*3 20.4 C 0 km/h
1260 13-06-2009 12:02:46 21.6 C 5.88 g/m*3 21.6 C 0 km/h
1261 13-06-2009 12:14:46 21.3 C 5.78 g/m*3 21.3 C 0 km/h
1262 13-06-2009 12:26:46 23.6 C 6.38 g/m*3 23.6 C 0 km/h
1263 13-06-2009 12:38:46 24.2 C 6.16 g/m*3 24.2 C 0 km/h
1264 13-06-2009 12:50:46 24.4 C 5.79 g/m*3 24.4 C 0 km/h
1265 13-06-2009 13:02:45 25.3 C 6.09 g/m*3 25.3 C 0 km/h
1266 13-06-2009 13:14:45 25 C 5.75 g/m*3 25 C 0 km/h
1267 13-06-2009 13:26:45 25.5 C 5.68 g/m*3 25.5 C 0 km/h
1268 13-06-2009 13:38:46 26.6 C 5.54 g/m*3 26.6 C 0 km/h
1269 13-06-2009 13:50:45 27.1 C 5.69 g/m*3 27.1 C 0 km/h
1270 13-06-2009 14:02:45 26.9 C 5.37 g/m*3 26.9 C 0 km/h
1271 13-06-2009 14:14:45 25 C 5.75 g/m*3 25 C 0 km/h
1272 13-06-2009 14:26:45 25.4 C 6.12 g/m*3 25.4 C 0 km/h
1273 13-06-2009 14:38:45 25.4 C 6.12 g/m*3 25.4 C 0 km/h
1274 13-06-2009 14:50:45 26.5 C 6.51 g/m*3 26.5 C 0 km/h
1275 13-06-2009 15:02:44 25.8 C 6.02 g/m*3 25.8 C 0 km/h
Sensor: Nr:Datum:Temp:Abs-Feuchte:Windchill:Wind:
Aussen-T/F 1276 13-06-2009 15:14:44 26 C 6.33 g/m*3 26 C 0 km/h
1277 13-06-2009 15:26:44 26.7 C 6.33 g/m*3 26.7 C 0 km/h
1278 13-06-2009 15:38:44 28.1 C 6.29 g/m*3 28.1 C 0 km/h
1279 13-06-2009 15:50:44 28.8 C 6.25 g/m*3 28.8 C 0 km/h
1280 13-06-2009 16:02:44 28.2 C 6.05 g/m*3 28.2 C 0 km/h
1281 13-06-2009 16:14:44 28.4 C 6.12 g/m*3 28.4 C 0 km/h
1282 13-06-2009 16:26:44 27.5 C 5.82 g/m*3 27.5 C 0 km/h
1283 13-06-2009 16:38:44 27.9 C 6.76 g/m*3 27.9 C 0 km/h
1284 13-06-2009 16:50:43 29.9 C 6.33 g/m*3 29.9 C 0 km/h
1285 13-06-2009 17:02:44 30.5 C 6.23 g/m*3 30.5 C 0 km/h
1286 13-06-2009 17:14:43 30.9 C 6.37 g/m*3 30.9 C 0 km/h
1287 13-06-2009 17:26:43 30.1 C 6.1 g/m*3 30.1 C 0 km/h
1288 13-06-2009 17:38:43 29.8 C 6 g/m*3 29.8 C 0 km/h
1289 13-06-2009 17:50:43 28.8 C 6.25 g/m*3 28.8 C 0 km/h
1290 13-06-2009 18:02:43 27.9 C 6.22 g/m*3 27.9 C 0 km/h
1291 13-06-2009 18:14:43 28 C 5.98 g/m*3 28 C 0 km/h
1292 13-06-2009 18:26:43 27.3 C 6.02 g/m*3 27.3 C 0 km/h
1293 13-06-2009 18:38:42 27.5 C 6.08 g/m*3 27.5 C 0 km/h
1294 13-06-2009 18:50:43 27.4 C 6.05 g/m*3 27.4 C 0 km/h
1295 13-06-2009 19:02:42 27 C 6.18 g/m*3 27 C 0 km/h
1296 13-06-2009 19:14:42 27.8 C 6.19 g/m*3 27.8 C 0 km/h
1297 13-06-2009 19:26:42 27.7 C 6.42 g/m*3 27.7 C 0 km/h
1298 13-06-2009 19:38:42 27.6 C 6.38 g/m*3 27.6 C 0 km/h
1299 13-06-2009 19:50:42 26.9 C 6.4 g/m*3 26.9 C 0 km/h
1300 13-06-2009 20:02:41 26.8 C 6.36 g/m*3 26.8 C 0 km/h
Sensor: Nr:Datum:Temp:Abs-Feuchte:Windchill:Wind:
Aussen-T/F 1301 13-06-2009 20:14:42 26.1 C 6.37 g/m*3 26.1 C 0 km/h
1302 13-06-2009 20:26:42 26.1 C 6.37 g/m*3 26.1 C 0 km/h
1303 13-06-2009 20:38:42 25.5 C 6.63 g/m*3 25.5 C 0 km/h
1304 13-06-2009 20:50:41 24.6 C 7.2 g/m*3 24.6 C 0 km/h
1305 13-06-2009 21:02:42 23.7 C 7.7 g/m*3 23.7 C 0 km/h
1306 13-06-2009 21:14:41 22.7 C 7.88 g/m*3 22.7 C 0 km/h
1307 13-06-2009 21:26:41 21.6 C 7.59 g/m*3 21.6 C 0 km/h
1308 13-06-2009 21:38:41 20.7 C 7.56 g/m*3 20.7 C 0 km/h
1309 13-06-2009 21:50:40 19.8 C 7.52 g/m*3 19.8 C 0 km/h
1310 13-06-2009 22:02:41 19.5 C 7.72 g/m*3 19.5 C 0 km/h
1311 13-06-2009 22:14:40 19.1 C 7.54 g/m*3 19.1 C 0 km/h
1312 13-06-2009 22:26:40 19.1 C 7.54 g/m*3 19.1 C 0 km/h
1313 13-06-2009 22:38:41 18.9 C 7.45 g/m*3 18.9 C 0 km/h
1314 13-06-2009 22:51:41 18.6 C 7.64 g/m*3 18.6 C 0 km/h
1315 13-06-2009 23:03:41 18.2 C 7.46 g/m*3 18.2 C 0 km/h
1316 13-06-2009 23:15:41 18.1 C 7.57 g/m*3 18.1 C 0 km/h
1317 13-06-2009 23:27:41 17.9 C 7.79 g/m*3 17.9 C 0 km/h
1318 13-06-2009 23:39:41 17.3 C 7.51 g/m*3 17.3 C 0 km/h
1319 13-06-2009 23:51:41 17 C 7.52 g/m*3 17 C 0 km/h
1320 14-06-2009 00:03:41 16.8 C 7.72 g/m*3 16.8 C 0 km/h
1321 14-06-2009 00:15:41 16.5 C 7.72 g/m*3 16.5 C 0 km/h
1322 14-06-2009 00:27:41 16.3 C 7.77 g/m*3 16.3 C 0 km/h
1323 14-06-2009 00:39:41 16 C 8.04 g/m*3 16 C 0 km/h
1324 14-06-2009 00:51:41 15.6 C 8.11 g/m*3 15.6 C 0 km/h
1325 14-06-2009 01:03:41 15.6 C 7.98 g/m*3 15.6 C 0 km/h
Sensor: Nr:Datum:Temp:Abs-Feuchte:Windchill:Wind:
Aussen-T/F 1326 14-06-2009 01:15:41 15.4 C 7.88 g/m*3 15.4 C 0 km/h
1327 14-06-2009 01:27:41 15.2 C 7.79 g/m*3 15.2 C 0 km/h
1328 14-06-2009 01:39:41 15 C 8.08 g/m*3 15 C 0 km/h
1329 14-06-2009 01:51:41 14.8 C 8.11 g/m*3 14.8 C 0 km/h
1330 14-06-2009 02:03:41 14.7 C 8.18 g/m*3 14.7 C 0 km/h
1331 14-06-2009 02:15:41 14.6 C 8.26 g/m*3 14.6 C 0 km/h
1332 14-06-2009 02:27:42 14.3 C 8.23 g/m*3 14.3 C 0 km/h
1333 14-06-2009 02:39:42 14.1 C 8.37 g/m*3 14.1 C 0 km/h
1334 14-06-2009 02:51:42 14 C 8.44 g/m*3 14 C 0 km/h
1335 14-06-2009 03:03:42 13.9 C 8.51 g/m*3 13.9 C 0 km/h
1336 14-06-2009 03:15:42 13.6 C 8.36 g/m*3 13.6 C 0 km/h
1337 14-06-2009 03:27:42 13.6 C 8.36 g/m*3 13.6 C 0 km/h
1338 14-06-2009 03:39:42 13.4 C 8.37 g/m*3 13.4 C 0 km/h
1339 14-06-2009 03:51:42 13.4 C 8.37 g/m*3 13.4 C 0 km/h
1340 14-06-2009 04:03:42 13.1 C 8.22 g/m*3 13.1 C 0 km/h
1341 14-06-2009 04:15:42 12.9 C 8.23 g/m*3 12.9 C 0 km/h
1342 14-06-2009 04:27:42 12.8 C 8.29 g/m*3 12.8 C 0 km/h
1343 14-06-2009 04:39:42 12.7 C 8.35 g/m*3 12.7 C 0 km/h
1344 14-06-2009 04:51:42 12.5 C 8.25 g/m*3 12.5 C 0 km/h
1345 14-06-2009 05:03:42 12.4 C 8.3 g/m*3 12.4 C 0 km/h
1346 14-06-2009 05:15:42 12.2 C 8.2 g/m*3 12.2 C 0 km/h
1347 14-06-2009 05:27:42 12.2 C 8.31 g/m*3 12.2 C 0 km/h
1348 14-06-2009 05:39:42 12.1 C 8.26 g/m*3 12.1 C 0 km/h
1349 14-06-2009 05:51:42 12 C 8.31 g/m*3 12 C 0 km/h
1350 14-06-2009 06:03:42 12 C 8.31 g/m*3 12 C 0 km/h
Sensor: Nr:Datum:Temp:Abs-Feuchte:Windchill:Wind:
Aussen-T/F 1351 14-06-2009 06:15:43 12.4 C 8.52 g/m*3 12.4 C 0 km/h
1352 14-06-2009 06:27:43 12.8 C 8.62 g/m*3 12.8 C 0 km/h
1353 14-06-2009 06:39:43 13 C 8.62 g/m*3 13 C 0 km/h
1354 14-06-2009 06:51:43 13.2 C 8.61 g/m*3 13.2 C 0 km/h
1355 14-06-2009 07:03:43 13 C 8.51 g/m*3 13 C 0 km/h
1356 14-06-2009 07:15:43 13 C 8.62 g/m*3 13 C 0 km/h
1357 14-06-2009 07:27:43 13.1 C 8.67 g/m*3 13.1 C 0 km/h
1358 14-06-2009 07:39:43 13.4 C 8.72 g/m*3 13.4 C 0 km/h
1359 14-06-2009 07:51:43 13.4 C 8.72 g/m*3 13.4 C 0 km/h
1360 14-06-2009 08:03:41 13.6 C 8.71 g/m*3 13.6 C 0 km/h
1361 14-06-2009 08:15:41 13.6 C 8.71 g/m*3 13.6 C 0 km/h
1362 14-06-2009 08:27:41 13.8 C 8.58 g/m*3 13.8 C 0 km/h
1363 14-06-2009 08:39:41 14.2 C 8.55 g/m*3 14.2 C 0 km/h
1364 14-06-2009 08:51:40 14.8 C 8.87 g/m*3 14.8 C 0 km/h
1365 14-06-2009 09:03:41 15.3 C 8.88 g/m*3 15.3 C 0 km/h
1366 14-06-2009 09:15:41 15.9 C 8.94 g/m*3 15.9 C 0 km/h
1367 14-06-2009 09:27:41 16.7 C 9.24 g/m*3 16.7 C 0 km/h
1368 14-06-2009 09:39:41 17.6 C 9.3 g/m*3 17.6 C 0 km/h
1369 14-06-2009 09:51:40 18.3 C 9.07 g/m*3 18.3 C 0 km/h
1370 14-06-2009 10:03:40 19.4 C 9.34 g/m*3 19.4 C 0 km/h
1371 14-06-2009 10:15:40 20.1 C 9.21 g/m*3 20.1 C 0 km/h
1372 14-06-2009 10:27:40 20.8 C 9.05 g/m*3 20.8 C 0 km/h
1373 14-06-2009 10:39:39 21.6 C 8.72 g/m*3 21.6 C 0 km/h
1374 14-06-2009 10:51:40 21.7 C 8.39 g/m*3 21.7 C 0 km/h
1375 14-06-2009 11:03:39 22.5 C 8.39 g/m*3 22.5 C 0 km/h
Sensor: Nr:Datum:Temp:Abs-Feuchte:Windchill:Wind:
Aussen-T/F 1376 14-06-2009 11:15:39 23.7 C 8.77 g/m*3 23.7 C 0 km/h
1377 14-06-2009 11:27:39 24.8 C 8.88 g/m*3 24.8 C 0 km/h
1378 14-06-2009 11:39:40 25.5 C 8.52 g/m*3 25.5 C 0 km/h
1379 14-06-2009 11:51:39 26.1 C 7.59 g/m*3 26.1 C 0 km/h
1380 14-06-2009 12:03:39 26.8 C 7.64 g/m*3 26.8 C 0 km/h
1381 14-06-2009 12:15:39 26.4 C 7.22 g/m*3 26.4 C 0 km/h
1382 14-06-2009 12:27:39 27 C 7.72 g/m*3 27 C 0 km/h
1383 14-06-2009 12:39:39 26.1 C 7.1 g/m*3 26.1 C 0 km/h
1384 14-06-2009 12:51:38 27.9 C 7.3 g/m*3 27.9 C 0 km/h
1385 14-06-2009 13:03:39 27.5 C 7.14 g/m*3 27.5 C 0 km/h
1386 14-06-2009 13:15:38 28.3 C 7.46 g/m*3 28.3 C 0 km/h
1387 14-06-2009 13:27:38 28.2 C 7.42 g/m*3 28.2 C 0 km/h
1388 14-06-2009 13:39:38 28.2 C 7.42 g/m*3 28.2 C 0 km/h
1389 14-06-2009 13:51:37 27.8 C 6.99 g/m*3 27.8 C 0 km/h
1390 14-06-2009 14:03:38 28.7 C 7.63 g/m*3 28.7 C 0 km/h
1391 14-06-2009 14:15:38 28.9 C 7.71 g/m*3 28.9 C 0 km/h
1392 14-06-2009 14:27:38 28.3 C 7.74 g/m*3 28.3 C 0 km/h
1393 14-06-2009 14:39:37 28.6 C 7.59 g/m*3 28.6 C 0 km/h
1394 14-06-2009 14:51:38 28.6 C 7.59 g/m*3 28.6 C 0 km/h
1395 14-06-2009 15:03:37 29.1 C 7.51 g/m*3 29.1 C 0 km/h
1396 14-06-2009 15:15:37 29.6 C 7.42 g/m*3 29.6 C 0 km/h
1397 14-06-2009 15:27:37 29.6 C 7.42 g/m*3 29.6 C 0 km/h
1398 14-06-2009 15:39:36 30.2 C 7.66 g/m*3 30.2 C 0 km/h
1399 14-06-2009 15:51:37 30.3 C 7.09 g/m*3 30.3 C 0 km/h
1400 14-06-2009 16:03:36 30.4 C 7.13 g/m*3 30.4 C 0 km/h
Sensor: Nr:Datum:Temp:Abs-Feuchte:Windchill:Wind:
Aussen-T/F 1401 14-06-2009 16:15:36 30.3 C 7.09 g/m*3 30.3 C 0 km/h
1402 14-06-2009 16:27:36 30.9 C 7 g/m*3 30.9 C 0 km/h
1403 14-06-2009 16:39:37 31.5 C 7.23 g/m*3 31.5 C 0 km/h
1404 14-06-2009 16:51:36 30.8 C 6.65 g/m*3 30.8 C 0 km/h
1405 14-06-2009 17:03:36 31.2 C 6.47 g/m*3 31.2 C 0 km/h
1406 14-06-2009 17:15:36 31 C 6.72 g/m*3 31 C 0 km/h
1407 14-06-2009 17:27:36 31.2 C 6.47 g/m*3 31.2 C 0 km/h
1408 14-06-2009 17:39:36 30.7 C 7.24 g/m*3 30.7 C 0 km/h
1409 14-06-2009 17:51:35 26.2 C 8.86 g/m*3 26.2 C 0 km/h
1410 14-06-2009 18:03:36 24.8 C 10.7 g/m*3 24.8 C 0 km/h
1411 14-06-2009 18:15:35 26.4 C 9.71 g/m*3 26.4 C 0 km/h
1412 14-06-2009 18:27:35 27.9 C 10.01 g/m*3 27.9 C 0 km/h
1413 14-06-2009 18:39:35 27.2 C 9.63 g/m*3 27.2 C 0 km/h
1414 14-06-2009 18:51:35 25.1 C 10.88 g/m*3 25.1 C 0 km/h
1415 14-06-2009 19:03:35 24.6 C 11.93 g/m*3 24.6 C 0 km/h
1416 14-06-2009 19:15:35 22.4 C 14.1 g/m*3 22.4 C 0 km/h
1417 14-06-2009 19:27:35 22 C 15.72 g/m*3 22 C 0 km/h
1418 14-06-2009 19:39:34 22.4 C 16.09 g/m*3 22.4 C 0 km/h
1419 14-06-2009 19:51:35 22.3 C 15.6 g/m*3 22.3 C 0 km/h
1420 14-06-2009 20:03:34 21.8 C 14.97 g/m*3 21.8 C 0 km/h
1421 14-06-2009 20:15:34 21.6 C 14.79 g/m*3 21.6 C 0 km/h
1422 14-06-2009 20:27:34 21.2 C 14.27 g/m*3 21.2 C 0 km/h
1423 14-06-2009 20:39:34 20.7 C 14.4 g/m*3 20.7 C 0 km/h
1424 14-06-2009 20:51:34 20.6 C 14.86 g/m*3 20.6 C 0 km/h
1425 14-06-2009 21:03:34 20.4 C 14.86 g/m*3 20.4 C 0 km/h
Sensor: Nr:Datum:Temp:Abs-Feuchte:Windchill:Wind:
Aussen-T/F 1426 14-06-2009 21:15:33 20.4 C 15.04 g/m*3 20.4 C 0 km/h
1427 14-06-2009 21:27:33 20.4 C 15.04 g/m*3 20.4 C 0 km/h
1428 14-06-2009 21:39:33 20.1 C 14.78 g/m*3 20.1 C 0 km/h
1429 14-06-2009 21:51:33 20 C 14.52 g/m*3 20 C 0 km/h
1430 14-06-2009 22:03:33 19.9 C 14.43 g/m*3 19.9 C 0 km/h
1431 14-06-2009 22:16:34 19.8 C 14.18 g/m*3 19.8 C 0 km/h
1432 14-06-2009 22:28:34 19.8 C 14.18 g/m*3 19.8 C 0 km/h
1433 14-06-2009 22:40:34 19.8 C 14.18 g/m*3 19.8 C 0 km/h
1434 14-06-2009 22:52:34 19.7 C 13.92 g/m*3 19.7 C 0 km/h
1435 14-06-2009 23:04:34 19.1 C 13.61 g/m*3 19.1 C 0 km/h
1436 14-06-2009 23:16:34 18.9 C 13.77 g/m*3 18.9 C 0 km/h
1437 14-06-2009 23:28:34 18.7 C 13.77 g/m*3 18.7 C 0 km/h
1438 14-06-2009 23:40:34 18.7 C 13.93 g/m*3 18.7 C 0 km/h
1439 14-06-2009 23:52:34 18.5 C 13.61 g/m*3 18.5 C 0 km/h
1440 15-06-2009 00:04:34 18.4 C 13.53 g/m*3 18.4 C 0 km/h
1441 15-06-2009 00:16:34 18.3 C 13.45 g/m*3 18.3 C 0 km/h
1442 15-06-2009 00:28:34 18.2 C 13.37 g/m*3 18.2 C 0 km/h
1443 15-06-2009 00:40:34 18.3 C 13.6 g/m*3 18.3 C 0 km/h
1444 15-06-2009 00:52:34 18.3 C 13.45 g/m*3 18.3 C 0 km/h
1445 15-06-2009 01:04:34 17.9 C 13.13 g/m*3 17.9 C 0 km/h
1446 15-06-2009 01:16:34 17.7 C 12.98 g/m*3 17.7 C 0 km/h
1447 15-06-2009 01:28:34 17.5 C 12.82 g/m*3 17.5 C 0 km/h
1448 15-06-2009 01:40:35 17.3 C 12.67 g/m*3 17.3 C 0 km/h
1449 15-06-2009 01:52:35 17.3 C 12.82 g/m*3 17.3 C 0 km/h
1450 15-06-2009 02:04:35 17.2 C 12.74 g/m*3 17.2 C 0 km/h
Sensor: Nr:Datum:Temp:Abs-Feuchte:Windchill:Wind:
Aussen-T/F 1451 15-06-2009 02:16:35 17.1 C 12.66 g/m*3 17.1 C 0 km/h
1452 15-06-2009 02:28:35 17 C 12.59 g/m*3 17 C 0 km/h
1453 15-06-2009 02:40:35 16.9 C 12.51 g/m*3 16.9 C 0 km/h
1454 15-06-2009 02:52:35 16.9 C 12.51 g/m*3 16.9 C 0 km/h
1455 15-06-2009 03:04:35 17 C 12.59 g/m*3 17 C 0 km/h
1456 15-06-2009 03:16:35 17.1 C 12.66 g/m*3 17.1 C 0 km/h
1457 15-06-2009 03:28:35 17.1 C 12.66 g/m*3 17.1 C 0 km/h
1458 15-06-2009 03:40:35 17.2 C 12.59 g/m*3 17.2 C 0 km/h
1459 15-06-2009 03:52:35 17 C 12.3 g/m*3 17 C 0 km/h
1460 15-06-2009 04:04:35 16.8 C 12.3 g/m*3 16.8 C 0 km/h
1461 15-06-2009 04:16:35 16.8 C 12.44 g/m*3 16.8 C 0 km/h
1462 15-06-2009 04:28:35 16.6 C 12.29 g/m*3 16.6 C 0 km/h
1463 15-06-2009 04:40:35 16.4 C 12.14 g/m*3 16.4 C 0 km/h
1464 15-06-2009 04:52:35 16.3 C 12.07 g/m*3 16.3 C 0 km/h
1465 15-06-2009 05:04:35 16.3 C 12.21 g/m*3 16.3 C 0 km/h
1466 15-06-2009 05:16:35 16.4 C 12.42 g/m*3 16.4 C 0 km/h
1467 15-06-2009 05:28:36 16.5 C 12.5 g/m*3 16.5 C 0 km/h
1468 15-06-2009 05:40:36 16.6 C 12.57 g/m*3 16.6 C 0 km/h
1469 15-06-2009 05:52:36 16.6 C 12.57 g/m*3 16.6 C 0 km/h
1470 15-06-2009 06:04:36 16.8 C 12.58 g/m*3 16.8 C 0 km/h
1471 15-06-2009 06:16:36 16.5 C 12.36 g/m*3 16.5 C 0 km/h
1472 15-06-2009 06:28:36 16.8 C 12.58 g/m*3 16.8 C 0 km/h
1473 15-06-2009 06:40:36 16.9 C 12.51 g/m*3 16.9 C 0 km/h
1474 15-06-2009 06:52:36 17 C 12.44 g/m*3 17 C 0 km/h
1475 15-06-2009 07:04:36 17.2 C 12.45 g/m*3 17.2 C 0 km/h
Sensor: Nr:Datum:Temp:Abs-Feuchte:Windchill:Wind:
Aussen-T/F 1476 15-06-2009 07:16:34 16.8 C 12.3 g/m*3 16.8 C 0 km/h
1477 15-06-2009 07:28:34 17 C 12.3 g/m*3 17 C 0 km/h
1478 15-06-2009 07:40:34 17.3 C 12.52 g/m*3 17.3 C 0 km/h
1479 15-06-2009 07:52:33 17.5 C 12.52 g/m*3 17.5 C 0 km/h
1480 15-06-2009 08:04:34 17.8 C 12.75 g/m*3 17.8 C 0 km/h
1481 15-06-2009 08:16:33 17.8 C 12.75 g/m*3 17.8 C 0 km/h
1482 15-06-2009 08:28:33 17.9 C 12.98 g/m*3 17.9 C 0 km/h
1483 15-06-2009 08:40:33 18 C 12.9 g/m*3 18 C 0 km/h
1484 15-06-2009 08:52:33 18.1 C 12.98 g/m*3 18.1 C 0 km/h
1485 15-06-2009 09:04:32 18.5 C 13.13 g/m*3 18.5 C 0 km/h
1486 15-06-2009 09:16:33 18.5 C 12.97 g/m*3 18.5 C 0 km/h
1487 15-06-2009 09:28:34 18.5 C 12.82 g/m*3 18.5 C 0 km/h
1488 15-06-2009 09:40:32 18.5 C 12.82 g/m*3 18.5 C 0 km/h
1489 15-06-2009 09:52:32 18.3 C 12.66 g/m*3 18.3 C 0 km/h
1490 15-06-2009 10:04:32 18 C 12.44 g/m*3 18 C 0 km/h
1491 15-06-2009 10:16:32 17.9 C 12.83 g/m*3 17.9 C 0 km/h
1492 15-06-2009 10:28:32 17.9 C 12.98 g/m*3 17.9 C 0 km/h
1493 15-06-2009 10:40:32 17.8 C 13.05 g/m*3 17.8 C 0 km/h
1494 15-06-2009 10:52:32 17.6 C 12.9 g/m*3 17.6 C 0 km/h
1495 15-06-2009 11:04:32 17.2 C 12.74 g/m*3 17.2 C 0 km/h
1496 15-06-2009 11:16:31 17.2 C 12.89 g/m*3 17.2 C 0 km/h
1497 15-06-2009 11:28:31 17.3 C 13.11 g/m*3 17.3 C 0 km/h
1498 15-06-2009 11:40:31 17.3 C 13.11 g/m*3 17.3 C 0 km/h
1499 15-06-2009 11:52:31 17.3 C 13.26 g/m*3 17.3 C 0 km/h
1500 15-06-2009 12:04:31 17.5 C 13.57 g/m*3 17.5 C 0 km/h
Sensor: Nr:Datum:Temp:Abs-Feuchte:Windchill:Wind:
Aussen-T/F 1501 15-06-2009 12:16:31 17.5 C 13.57 g/m*3 17.5 C 0 km/h
1502 15-06-2009 12:28:31 17.5 C 13.57 g/m*3 17.5 C 0 km/h
1503 15-06-2009 12:40:30 17.8 C 13.96 g/m*3 17.8 C 0 km/h
1504 15-06-2009 12:52:31 18.1 C 14.06 g/m*3 18.1 C 0 km/h
1505 15-06-2009 13:04:30 18.3 C 14.23 g/m*3 18.3 C 0 km/h
1506 15-06-2009 13:16:30 17.9 C 14.05 g/m*3 17.9 C 0 km/h
1507 15-06-2009 13:28:30 18 C 13.98 g/m*3 18 C 0 km/h
1508 15-06-2009 13:40:30 18.3 C 14.23 g/m*3 18.3 C 0 km/h
1509 15-06-2009 13:52:30 18.4 C 14.31 g/m*3 18.4 C 0 km/h
1510 15-06-2009 14:04:30 18.2 C 14.14 g/m*3 18.2 C 0 km/h
1511 15-06-2009 14:16:30 17.9 C 14.05 g/m*3 17.9 C 0 km/h
1512 15-06-2009 14:28:30 17.9 C 14.05 g/m*3 17.9 C 0 km/h
1513 15-06-2009 14:40:30 17.8 C 14.12 g/m*3 17.8 C 0 km/h
1514 15-06-2009 14:52:29 17.6 C 13.95 g/m*3 17.6 C 0 km/h
1515 15-06-2009 15:04:29 17.8 C 14.12 g/m*3 17.8 C 0 km/h
1516 15-06-2009 15:16:29 17.9 C 14.2 g/m*3 17.9 C 0 km/h
1517 15-06-2009 15:28:29 17.9 C 14.2 g/m*3 17.9 C 0 km/h
1518 15-06-2009 15:40:29 17.1 C 13.54 g/m*3 17.1 C 0 km/h
1519 15-06-2009 15:52:28 16.8 C 13.44 g/m*3 16.8 C 0 km/h
1520 15-06-2009 16:04:29 16.4 C 13.12 g/m*3 16.4 C 0 km/h
1521 15-06-2009 16:16:29 16.2 C 12.96 g/m*3 16.2 C 0 km/h
1522 15-06-2009 16:28:29 16.2 C 12.96 g/m*3 16.2 C 0 km/h
1523 15-06-2009 16:40:28 16.1 C 12.88 g/m*3 16.1 C 0 km/h
1524 15-06-2009 16:52:29 16.2 C 12.96 g/m*3 16.2 C 0 km/h
1525 15-06-2009 17:04:28 15.8 C 12.65 g/m*3 15.8 C 0 km/h
Sensor: Nr:Datum:Temp:Abs-Feuchte:Windchill:Wind:
Aussen-T/F 1526 15-06-2009 17:16:28 16.1 C 12.75 g/m*3 16.1 C 0 km/h
1527 15-06-2009 17:28:28 16.4 C 12.98 g/m*3 16.4 C 0 km/h
1528 15-06-2009 17:40:28 16.8 C 13.3 g/m*3 16.8 C 0 km/h
1529 15-06-2009 17:52:28 16.6 C 13.14 g/m*3 16.6 C 0 km/h
1530 15-06-2009 18:04:28 16.6 C 13 g/m*3 16.6 C 0 km/h
1531 15-06-2009 18:16:27 16.4 C 12.84 g/m*3 16.4 C 0 km/h
1532 15-06-2009 18:28:27 16.3 C 12.76 g/m*3 16.3 C 0 km/h
1533 15-06-2009 18:40:28 16.2 C 12.69 g/m*3 16.2 C 0 km/h
1534 15-06-2009 18:52:27 15.7 C 12.04 g/m*3 15.7 C 0 km/h
1535 15-06-2009 19:04:27 15.8 C 11.85 g/m*3 15.8 C 0 km/h
1536 15-06-2009 19:16:26 15.7 C 11.77 g/m*3 15.7 C 0 km/h
1537 15-06-2009 19:28:26 15.5 C 11.76 g/m*3 15.5 C 0 km/h
1538 15-06-2009 19:40:27 15.4 C 11.82 g/m*3 15.4 C 0 km/h
1539 15-06-2009 19:52:26 15.2 C 11.81 g/m*3 15.2 C 0 km/h
1540 15-06-2009 20:04:26 15.1 C 11.87 g/m*3 15.1 C 0 km/h
1541 15-06-2009 20:16:27 15.2 C 11.94 g/m*3 15.2 C 0 km/h
1542 15-06-2009 20:28:27 15.2 C 12.07 g/m*3 15.2 C 0 km/h
1543 15-06-2009 20:40:26 15.1 C 12 g/m*3 15.1 C 0 km/h
1544 15-06-2009 20:52:26 14.9 C 11.98 g/m*3 14.9 C 0 km/h
1545 15-06-2009 21:04:26 14.7 C 11.71 g/m*3 14.7 C 0 km/h
1546 15-06-2009 21:16:26 14.8 C 11.78 g/m*3 14.8 C 0 km/h
1547 15-06-2009 21:28:26 14.9 C 11.98 g/m*3 14.9 C 0 km/h
1548 15-06-2009 21:40:26 14.8 C 11.91 g/m*3 14.8 C 0 km/h
1549 15-06-2009 21:52:25 14.8 C 11.91 g/m*3 14.8 C 0 km/h
1550 15-06-2009 22:04:25 14.8 C 11.91 g/m*3 14.8 C 0 km/h
Sensor: Nr:Datum:Temp:Abs-Feuchte:Windchill:Wind:
Aussen-T/F 1551 15-06-2009 22:17:26 14.6 C 11.76 g/m*3 14.6 C 0 km/h
1552 15-06-2009 22:29:26 14.7 C 11.71 g/m*3 14.7 C 0 km/h
1553 15-06-2009 22:41:26 14.4 C 11.37 g/m*3 14.4 C 0 km/h
1554 15-06-2009 22:53:26 14.1 C 11.04 g/m*3 14.1 C 0 km/h
1555 15-06-2009 23:05:26 14.1 C 11.04 g/m*3 14.1 C 0 km/h
1556 15-06-2009 23:17:26 14 C 10.86 g/m*3 14 C 0 km/h
1557 15-06-2009 23:29:26 13.8 C 10.84 g/m*3 13.8 C 0 km/h
1558 15-06-2009 23:41:26 13.7 C 10.78 g/m*3 13.7 C 0 km/h
1559 15-06-2009 23:53:26 13.6 C 10.71 g/m*3 13.6 C 0 km/h
1560 16-06-2009 00:05:26 13.5 C 10.64 g/m*3 13.5 C 0 km/h
1561 16-06-2009 00:17:26 13.4 C 10.58 g/m*3 13.4 C 0 km/h
1562 16-06-2009 00:29:26 13.2 C 10.45 g/m*3 13.2 C 0 km/h
1563 16-06-2009 00:41:26 13 C 10.43 g/m*3 13 C 0 km/h
1564 16-06-2009 00:53:26 12.8 C 10.3 g/m*3 12.8 C 0 km/h
1565 16-06-2009 01:05:27 12.8 C 10.42 g/m*3 12.8 C 0 km/h
1566 16-06-2009 01:17:27 12.7 C 10.35 g/m*3 12.7 C 0 km/h
1567 16-06-2009 01:29:27 12.5 C 10.22 g/m*3 12.5 C 0 km/h
1568 16-06-2009 01:41:27 12.3 C 10.1 g/m*3 12.3 C 0 km/h
1569 16-06-2009 01:53:27 12.1 C 9.97 g/m*3 12.1 C 0 km/h
1570 16-06-2009 02:05:27 12.1 C 9.97 g/m*3 12.1 C 0 km/h
1571 16-06-2009 02:17:27 12.1 C 9.97 g/m*3 12.1 C 0 km/h
1572 16-06-2009 02:29:27 12 C 10.02 g/m*3 12 C 0 km/h
1573 16-06-2009 02:41:27 12 C 10.02 g/m*3 12 C 0 km/h
1574 16-06-2009 02:53:27 12 C 10.02 g/m*3 12 C 0 km/h
1575 16-06-2009 03:05:27 12 C 10.02 g/m*3 12 C 0 km/h
Sensor: Nr:Datum:Temp:Abs-Feuchte:Windchill:Wind:
Aussen-T/F 1576 16-06-2009 03:17:27 12.1 C 10.08 g/m*3 12.1 C 0 km/h
1577 16-06-2009 03:29:27 12.1 C 10.08 g/m*3 12.1 C 0 km/h
1578 16-06-2009 03:41:27 12.1 C 10.19 g/m*3 12.1 C 0 km/h
1579 16-06-2009 03:53:27 11.8 C 10 g/m*3 11.8 C 0 km/h
1580 16-06-2009 04:05:27 11.8 C 10 g/m*3 11.8 C 0 km/h
1581 16-06-2009 04:17:27 12.1 C 10.19 g/m*3 12.1 C 0 km/h
1582 16-06-2009 04:29:27 12.1 C 10.19 g/m*3 12.1 C 0 km/h
1583 16-06-2009 04:41:27 12.1 C 10.19 g/m*3 12.1 C 0 km/h
1584 16-06-2009 04:53:28 12 C 10.12 g/m*3 12 C 0 km/h
1585 16-06-2009 05:05:28 12.1 C 10.19 g/m*3 12.1 C 0 km/h
1586 16-06-2009 05:17:28 12.2 C 10.25 g/m*3 12.2 C 0 km/h
1587 16-06-2009 05:29:28 12.4 C 10.38 g/m*3 12.4 C 0 km/h
1588 16-06-2009 05:41:28 12.4 C 10.38 g/m*3 12.4 C 0 km/h
1589 16-06-2009 05:53:28 12.4 C 10.38 g/m*3 12.4 C 0 km/h
1590 16-06-2009 06:05:28 12.4 C 10.38 g/m*3 12.4 C 0 km/h
1591 16-06-2009 06:17:28 12.4 C 10.38 g/m*3 12.4 C 0 km/h
1592 16-06-2009 06:29:28 12.4 C 10.38 g/m*3 12.4 C 0 km/h
1593 16-06-2009 06:41:28 12.3 C 10.32 g/m*3 12.3 C 0 km/h
1594 16-06-2009 06:53:26 12.3 C 10.32 g/m*3 12.3 C 0 km/h
1595 16-06-2009 07:05:26 12.3 C 10.32 g/m*3 12.3 C 0 km/h
1596 16-06-2009 07:17:26 12.4 C 10.38 g/m*3 12.4 C 0 km/h
1597 16-06-2009 07:29:26 12.5 C 10.44 g/m*3 12.5 C 0 km/h
1598 16-06-2009 07:41:26 12.6 C 10.51 g/m*3 12.6 C 0 km/h
1599 16-06-2009 07:53:25 12.6 C 10.51 g/m*3 12.6 C 0 km/h
1600 16-06-2009 08:05:26 12.8 C 10.64 g/m*3 12.8 C 0 km/h
Sensor: Nr:Datum:Temp:Abs-Feuchte:Windchill:Wind:
Aussen-T/F 1601 16-06-2009 08:17:25 12.7 C 10.58 g/m*3 12.7 C 0 km/h
1602 16-06-2009 08:29:25 12.9 C 10.71 g/m*3 12.9 C 0 km/h
1603 16-06-2009 08:41:25 13.2 C 10.91 g/m*3 13.2 C 0 km/h
1604 16-06-2009 08:53:25 13.2 C 10.91 g/m*3 13.2 C 0 km/h
1605 16-06-2009 09:05:25 13.6 C 11.18 g/m*3 13.6 C 0 km/h
1606 16-06-2009 09:17:25 13.5 C 11.11 g/m*3 13.5 C 0 km/h
1607 16-06-2009 09:29:25 14.1 C 11.41 g/m*3 14.1 C 0 km/h
1608 16-06-2009 09:41:24 14.5 C 11.44 g/m*3 14.5 C 0 km/h
1609 16-06-2009 09:53:25 14.4 C 11 g/m*3 14.4 C 0 km/h
1610 16-06-2009 10:05:24 14.7 C 10.58 g/m*3 14.7 C 0 km/h
1611 16-06-2009 10:17:24 15.2 C 10.25 g/m*3 15.2 C 0 km/h
1612 16-06-2009 10:29:24 16.5 C 10.53 g/m*3 16.5 C 0 km/h
1613 16-06-2009 10:41:24 16.1 C 10.01 g/m*3 16.1 C 0 km/h
1614 16-06-2009 10:53:24 16.6 C 10.17 g/m*3 16.6 C 0 km/h
1615 16-06-2009 11:05:23 17.7 C 9.81 g/m*3 17.7 C 0 km/h
1616 16-06-2009 11:17:23 17.5 C 9.39 g/m*3 17.5 C 0 km/h
1617 16-06-2009 11:29:23 18.1 C 9.43 g/m*3 18.1 C 0 km/h
1618 16-06-2009 11:41:24 18.7 C 8.65 g/m*3 18.7 C 0 km/h
1619 16-06-2009 11:53:23 19 C 8.47 g/m*3 19 C 0 km/h
1620 16-06-2009 12:05:23 19.8 C 7.34 g/m*3 19.8 C 0 km/h
1621 16-06-2009 12:17:23 20.2 C 7.52 g/m*3 20.2 C 0 km/h
1622 16-06-2009 12:29:23 20.8 C 7.24 g/m*3 20.8 C 0 km/h
1623 16-06-2009 12:41:23 21.4 C 6.75 g/m*3 21.4 C 0 km/h
1624 16-06-2009 12:53:22 20 C 6.74 g/m*3 20 C 0 km/h
1625 16-06-2009 13:05:23 21.6 C 6.64 g/m*3 21.6 C 0 km/h
Sensor: Nr:Datum:Temp:Abs-Feuchte:Windchill:Wind:
Aussen-T/F 1626 16-06-2009 13:17:23 21.7 C 6.49 g/m*3 21.7 C 0 km/h
1627 16-06-2009 13:29:23 21.5 C 6.6 g/m*3 21.5 C 0 km/h
1628 16-06-2009 13:41:22 23 C 5.96 g/m*3 23 C 0 km/h
1629 16-06-2009 13:53:23 23.6 C 5.96 g/m*3 23.6 C 0 km/h
1630 16-06-2009 14:05:22 22.8 C 5.69 g/m*3 22.8 C 0 km/h
1631 16-06-2009 14:17:22 22.3 C 5.92 g/m*3 22.3 C 0 km/h
1632 16-06-2009 14:29:23 22.3 C 5.92 g/m*3 22.3 C 0 km/h
1633 16-06-2009 14:41:21 22.3 C 6.12 g/m*3 22.3 C 0 km/h
1634 16-06-2009 14:53:22 20.7 C 5.94 g/m*3 20.7 C 0 km/h
1635 16-06-2009 15:05:21 19.9 C 6.36 g/m*3 19.9 C 0 km/h
1636 16-06-2009 15:17:21 20.3 C 6.86 g/m*3 20.3 C 0 km/h
1637 16-06-2009 15:29:21 21.6 C 7.02 g/m*3 21.6 C 0 km/h
1638 16-06-2009 15:41:22 20.7 C 6.12 g/m*3 20.7 C 0 km/h
1639 16-06-2009 15:53:21 18.8 C 9.34 g/m*3 18.8 C 0 km/h
1640 16-06-2009 16:05:21 20.1 C 12.34 g/m*3 20.1 C 0 km/h
1641 16-06-2009 16:17:20 22.4 C 13.31 g/m*3 22.4 C 0 km/h
1642 16-06-2009 16:29:20 21 C 8.79 g/m*3 21 C 0 km/h
1643 16-06-2009 16:41:21 20.4 C 7.78 g/m*3 20.4 C 0 km/h
1644 16-06-2009 16:53:20 20.7 C 6.66 g/m*3 20.7 C 0 km/h
1645 16-06-2009 17:05:20 20.3 C 7.03 g/m*3 20.3 C 0 km/h
1646 16-06-2009 17:17:20 19.6 C 7.26 g/m*3 19.6 C 0 km/h
1647 16-06-2009 17:29:20 19.6 C 8.61 g/m*3 19.6 C 0 km/h
1648 16-06-2009 17:41:20 20.1 C 8.87 g/m*3 20.1 C 0 km/h
1649 16-06-2009 17:53:19 20.9 C 8.56 g/m*3 20.9 C 0 km/h
1650 16-06-2009 18:05:20 23 C 8.43 g/m*3 23 C 0 km/h
Sensor: Nr:Datum:Temp:Abs-Feuchte:Windchill:Wind:
Aussen-T/F 1651 16-06-2009 18:17:20 23.7 C 8.13 g/m*3 23.7 C 0 km/h
1652 16-06-2009 18:29:20 23.3 C 8.15 g/m*3 23.3 C 0 km/h
1653 16-06-2009 18:41:19 24.7 C 7.92 g/m*3 24.7 C 0 km/h
1654 16-06-2009 18:53:20 22.1 C 7.22 g/m*3 22.1 C 0 km/h
1655 16-06-2009 19:05:19 20.8 C 7.97 g/m*3 20.8 C 0 km/h
1656 16-06-2009 19:17:19 22.3 C 7.9 g/m*3 22.3 C 0 km/h
1657 16-06-2009 19:29:19 20.2 C 7.69 g/m*3 20.2 C 0 km/h
1658 16-06-2009 19:41:18 20.5 C 8.01 g/m*3 20.5 C 0 km/h
1659 16-06-2009 19:53:19 20 C 7.6 g/m*3 20 C 0 km/h
1660 16-06-2009 20:05:19 20 C 7.95 g/m*3 20 C 0 km/h
1661 16-06-2009 20:17:18 20.6 C 7.87 g/m*3 20.6 C 0 km/h
1662 16-06-2009 20:29:18 20.1 C 7.65 g/m*3 20.1 C 0 km/h
1663 16-06-2009 20:41:19 19.6 C 7.6 g/m*3 19.6 C 0 km/h
1664 16-06-2009 20:53:18 19.5 C 7.89 g/m*3 19.5 C 0 km/h
1665 16-06-2009 21:05:18 19.3 C 8.13 g/m*3 19.3 C 0 km/h
1666 16-06-2009 21:17:18 18.9 C 8.59 g/m*3 18.9 C 0 km/h
1667 16-06-2009 21:29:19 18.2 C 8.7 g/m*3 18.2 C 0 km/h
1668 16-06-2009 21:41:17 17.3 C 8.84 g/m*3 17.3 C 0 km/h
1669 16-06-2009 21:53:18 16.7 C 8.95 g/m*3 16.7 C 0 km/h
1670 16-06-2009 22:05:17 16.1 C 8.91 g/m*3 16.1 C 0 km/h
1671 16-06-2009 22:17:17 15.7 C 8.96 g/m*3 15.7 C 0 km/h
1672 16-06-2009 22:29:17 15.2 C 8.96 g/m*3 15.2 C 0 km/h
1673 16-06-2009 22:42:17 15 C 9.1 g/m*3 15 C 0 km/h
1674 16-06-2009 22:54:17 14.9 C 9.43 g/m*3 14.9 C 0 km/h
1675 16-06-2009 23:06:17 14.8 C 9.37 g/m*3 14.8 C 0 km/h
Sensor: Nr:Datum:Temp:Abs-Feuchte:Windchill:Wind:
Aussen-T/F 1676 16-06-2009 23:18:17 14.6 C 9.39 g/m*3 14.6 C 0 km/h
1677 16-06-2009 23:30:17 14.5 C 9.45 g/m*3 14.5 C 0 km/h
1678 16-06-2009 23:42:17 14.3 C 9.46 g/m*3 14.3 C 0 km/h
1679 16-06-2009 23:54:17 14 C 9.41 g/m*3 14 C 0 km/h
1680 17-06-2009 00:06:17 13.7 C 9.35 g/m*3 13.7 C 0 km/h
1681 17-06-2009 00:18:18 13.7 C 9.47 g/m*3 13.7 C 0 km/h
1682 17-06-2009 00:30:18 13.6 C 9.53 g/m*3 13.6 C 0 km/h
1683 17-06-2009 00:42:18 13.4 C 9.42 g/m*3 13.4 C 0 km/h
1684 17-06-2009 00:54:18 13.3 C 9.36 g/m*3 13.3 C 0 km/h
1685 17-06-2009 01:06:18 13.1 C 9.24 g/m*3 13.1 C 0 km/h
1686 17-06-2009 01:18:18 12.9 C 9.24 g/m*3 12.9 C 0 km/h
1687 17-06-2009 01:30:18 12.8 C 9.18 g/m*3 12.8 C 0 km/h
1688 17-06-2009 01:42:18 12.6 C 9.18 g/m*3 12.6 C 0 km/h
1689 17-06-2009 01:54:18 12.5 C 9.35 g/m*3 12.5 C 0 km/h
1690 17-06-2009 02:06:18 12.2 C 9.17 g/m*3 12.2 C 0 km/h
1691 17-06-2009 02:18:18 11.9 C 9.21 g/m*3 11.9 C 0 km/h
1692 17-06-2009 02:30:18 11.8 C 9.16 g/m*3 11.8 C 0 km/h
1693 17-06-2009 02:42:18 11.6 C 9.04 g/m*3 11.6 C 0 km/h
1694 17-06-2009 02:54:18 11.5 C 8.99 g/m*3 11.5 C 0 km/h
1695 17-06-2009 03:06:18 11.5 C 8.99 g/m*3 11.5 C 0 km/h
1696 17-06-2009 03:18:18 11.4 C 8.93 g/m*3 11.4 C 0 km/h
1697 17-06-2009 03:30:18 11.8 C 9.26 g/m*3 11.8 C 0 km/h
1698 17-06-2009 03:42:18 12 C 9.27 g/m*3 12 C 0 km/h
1699 17-06-2009 03:54:18 12.2 C 9.28 g/m*3 12.2 C 0 km/h
1700 17-06-2009 04:06:18 12.2 C 9.17 g/m*3 12.2 C 0 km/h
Sensor: Nr:Datum:Temp:Abs-Feuchte:Windchill:Wind:
Aussen-T/F 1701 17-06-2009 04:18:19 12.2 C 9.17 g/m*3 12.2 C 0 km/h
1702 17-06-2009 04:30:19 12 C 8.95 g/m*3 12 C 0 km/h
1703 17-06-2009 04:42:19 11.9 C 9 g/m*3 11.9 C 0 km/h
1704 17-06-2009 04:54:19 11.9 C 9 g/m*3 11.9 C 0 km/h
1705 17-06-2009 05:06:19 12.1 C 9.01 g/m*3 12.1 C 0 km/h
1706 17-06-2009 05:18:19 11.8 C 8.95 g/m*3 11.8 C 0 km/h
1707 17-06-2009 05:30:19 11.8 C 8.95 g/m*3 11.8 C 0 km/h
1708 17-06-2009 05:42:19 11.6 C 8.94 g/m*3 11.6 C 0 km/h
1709 17-06-2009 05:54:19 11.5 C 8.88 g/m*3 11.5 C 0 km/h
1710 17-06-2009 06:06:19 11.3 C 8.87 g/m*3 11.3 C 0 km/h
1711 17-06-2009 06:18:19 11.3 C 8.98 g/m*3 11.3 C 0 km/h
1712 17-06-2009 06:30:19 11.4 C 9.03 g/m*3 11.4 C 0 km/h
1713 17-06-2009 06:42:19 11.2 C 8.82 g/m*3 11.2 C 0 km/h
1714 17-06-2009 06:54:19 11.3 C 8.87 g/m*3 11.3 C 0 km/h
1715 17-06-2009 07:06:17 11.5 C 9.09 g/m*3 11.5 C 0 km/h
1716 17-06-2009 07:18:18 11.7 C 9.1 g/m*3 11.7 C 0 km/h
1717 17-06-2009 07:30:18 11.9 C 9 g/m*3 11.9 C 0 km/h
1718 17-06-2009 07:42:18 12.3 C 9.12 g/m*3 12.3 C 0 km/h
1719 17-06-2009 07:54:17 12.5 C 9.13 g/m*3 12.5 C 0 km/h
1720 17-06-2009 08:06:17 13 C 9.19 g/m*3 13 C 0 km/h
1721 17-06-2009 08:18:17 13 C 9.07 g/m*3 13 C 0 km/h
1722 17-06-2009 08:30:16 13.4 C 9.3 g/m*3 13.4 C 0 km/h
1723 17-06-2009 08:42:16 14.2 C 9.52 g/m*3 14.2 C 0 km/h
1724 17-06-2009 08:54:17 14.1 C 9.1 g/m*3 14.1 C 0 km/h
1725 17-06-2009 09:06:16 14.1 C 9.1 g/m*3 14.1 C 0 km/h
Sensor: Nr:Datum:Temp:Abs-Feuchte:Windchill:Wind:
Aussen-T/F 1726 17-06-2009 09:18:16 15 C 9.36 g/m*3 15 C 0 km/h
1727 17-06-2009 09:30:17 15.6 C 9.44 g/m*3 15.6 C 0 km/h
1728 17-06-2009 09:42:17 15.9 C 9.48 g/m*3 15.9 C 0 km/h
1729 17-06-2009 09:54:16 15.8 C 9.83 g/m*3 15.8 C 0 km/h
1730 17-06-2009 10:06:15 16.9 C 10.36 g/m*3 16.9 C 0 km/h
1731 17-06-2009 10:18:16 17.4 C 9.93 g/m*3 17.4 C 0 km/h
1732 17-06-2009 10:30:16 18.2 C 9.79 g/m*3 18.2 C 0 km/h
1733 17-06-2009 10:42:16 18.3 C 9.22 g/m*3 18.3 C 0 km/h
1734 17-06-2009 10:54:15 19.6 C 9.28 g/m*3 19.6 C 0 km/h
1735 17-06-2009 11:06:16 19.8 C 8.88 g/m*3 19.8 C 0 km/h
1736 17-06-2009 11:18:15 20.9 C 9.11 g/m*3 20.9 C 0 km/h
1737 17-06-2009 11:30:15 22.2 C 9.03 g/m*3 22.2 C 0 km/h
1738 17-06-2009 11:42:15 21.7 C 8.2 g/m*3 21.7 C 0 km/h
1739 17-06-2009 11:54:15 22.6 C 8.04 g/m*3 22.6 C 0 km/h
1740 17-06-2009 12:06:15 24.1 C 7.66 g/m*3 24.1 C 0 km/h
1741 17-06-2009 12:18:15 25 C 6.45 g/m*3 25 C 0 km/h
1742 17-06-2009 12:30:14 23.9 C 7.36 g/m*3 23.9 C 0 km/h
1743 17-06-2009 12:42:14 25 C 6.91 g/m*3 25 C 0 km/h
1744 17-06-2009 12:54:15 25.4 C 7.06 g/m*3 25.4 C 0 km/h
1745 17-06-2009 13:06:14 25.7 C 6.46 g/m*3 25.7 C 0 km/h
1746 17-06-2009 13:18:14 28.5 C 6.71 g/m*3 28.5 C 0 km/h
1747 17-06-2009 13:30:13 28.9 C 5.71 g/m*3 28.9 C 0 km/h
1748 17-06-2009 13:42:13 29 C 5.74 g/m*3 29 C 0 km/h
1749 17-06-2009 13:54:14 28.8 C 5.68 g/m*3 28.8 C 0 km/h
1750 17-06-2009 14:06:13 28.1 C 6.02 g/m*3 28.1 C 0 km/h
Sensor: Nr:Datum:Temp:Abs-Feuchte:Windchill:Wind:
Aussen-T/F 1751 17-06-2009 14:18:13 27.3 C 6.54 g/m*3 27.3 C 0 km/h
1752 17-06-2009 14:30:14 27.8 C 6.72 g/m*3 27.8 C 0 km/h
1753 17-06-2009 14:42:14 27.2 C 5.99 g/m*3 27.2 C 0 km/h
1754 17-06-2009 14:54:13 28.6 C 6.18 g/m*3 28.6 C 0 km/h
1755 17-06-2009 15:06:13 28.8 C 5.68 g/m*3 28.8 C 0 km/h
1756 17-06-2009 15:18:13 27.3 C 5.76 g/m*3 27.3 C 0 km/h
1757 17-06-2009 15:30:13 28.1 C 5.74 g/m*3 28.1 C 0 km/h
1758 17-06-2009 15:42:13 29.9 C 6.03 g/m*3 29.9 C 0 km/h
1759 17-06-2009 15:54:12 29.2 C 5.81 g/m*3 29.2 C 0 km/h
1760 17-06-2009 16:06:13 29.2 C 5.81 g/m*3 29.2 C 0 km/h
1761 17-06-2009 16:18:13 29.7 C 5.97 g/m*3 29.7 C 0 km/h
1762 17-06-2009 16:30:12 30.4 C 6.2 g/m*3 30.4 C 0 km/h
1763 17-06-2009 16:42:12 30.3 C 6.16 g/m*3 30.3 C 0 km/h
1764 17-06-2009 16:54:13 30.6 C 6.26 g/m*3 30.6 C 0 km/h
1765 17-06-2009 17:06:12 30.8 C 6.33 g/m*3 30.8 C 0 km/h
1766 17-06-2009 17:18:12 30.9 C 6.37 g/m*3 30.9 C 0 km/h
1767 17-06-2009 17:30:11 31.1 C 6.43 g/m*3 31.1 C 0 km/h
1768 17-06-2009 17:42:11 30.8 C 6.33 g/m*3 30.8 C 0 km/h
1769 17-06-2009 17:54:12 30.6 C 6.26 g/m*3 30.6 C 0 km/h
1770 17-06-2009 18:06:11 30.7 C 6.3 g/m*3 30.7 C 0 km/h
1771 17-06-2009 18:18:11 30.6 C 6.26 g/m*3 30.6 C 0 km/h
1772 17-06-2009 18:30:12 30 C 6.06 g/m*3 30 C 0 km/h
1773 17-06-2009 18:42:12 29.1 C 6.35 g/m*3 29.1 C 0 km/h
1774 17-06-2009 18:54:11 29.8 C 6.3 g/m*3 29.8 C 0 km/h
1775 17-06-2009 19:06:11 28.7 C 7.63 g/m*3 28.7 C 0 km/h
Sensor: Nr:Datum:Temp:Abs-Feuchte:Windchill:Wind:
Aussen-T/F 1776 17-06-2009 19:18:10 27.6 C 7.71 g/m*3 27.6 C 0 km/h
1777 17-06-2009 19:30:11 26.8 C 8.14 g/m*3 26.8 C 0 km/h
1778 17-06-2009 19:42:11 25.9 C 8.47 g/m*3 25.9 C 0 km/h
1779 17-06-2009 19:54:10 25.3 C 8.43 g/m*3 25.3 C 0 km/h
1780 17-06-2009 20:06:10 24.5 C 8.5 g/m*3 24.5 C 0 km/h
1781 17-06-2009 20:18:10 24.3 C 8.63 g/m*3 24.3 C 0 km/h
1782 17-06-2009 20:30:10 24.2 C 8.8 g/m*3 24.2 C 0 km/h
1783 17-06-2009 20:42:10 24.1 C 8.53 g/m*3 24.1 C 0 km/h
1784 17-06-2009 20:54:09 23.5 C 8.67 g/m*3 23.5 C 0 km/h
1785 17-06-2009 21:06:10 22.8 C 8.94 g/m*3 22.8 C 0 km/h
1786 17-06-2009 21:18:09 22 C 8.73 g/m*3 22 C 0 km/h
1787 17-06-2009 21:30:09 21.4 C 8.62 g/m*3 21.4 C 0 km/h
1788 17-06-2009 21:42:09 20.8 C 8.51 g/m*3 20.8 C 0 km/h
1789 17-06-2009 21:54:09 20.4 C 8.49 g/m*3 20.4 C 0 km/h
1790 17-06-2009 22:06:09 20.2 C 8.22 g/m*3 20.2 C 0 km/h
1791 17-06-2009 22:18:09 20.3 C 7.91 g/m*3 20.3 C 0 km/h
1792 17-06-2009 22:31:10 20.4 C 7.61 g/m*3 20.4 C 0 km/h
1793 17-06-2009 22:43:10 20.4 C 7.78 g/m*3 20.4 C 0 km/h
1794 17-06-2009 22:55:10 19.9 C 8.25 g/m*3 19.9 C 0 km/h
1795 17-06-2009 23:07:10 19.6 C 8.27 g/m*3 19.6 C 0 km/h
1796 17-06-2009 23:19:10 19.5 C 7.72 g/m*3 19.5 C 0 km/h
1797 17-06-2009 23:31:10 19.2 C 7.91 g/m*3 19.2 C 0 km/h
1798 17-06-2009 23:43:10 18.8 C 8.37 g/m*3 18.8 C 0 km/h
1799 17-06-2009 23:55:10 18.4 C 8.34 g/m*3 18.4 C 0 km/h
1800 18-06-2009 00:07:10 18.2 C 8.24 g/m*3 18.2 C 0 km/h
Sensor: Nr:Datum:Temp:Abs-Feuchte:Windchill:Wind:
Aussen-T/F 1801 18-06-2009 00:19:10 17.9 C 8.4 g/m*3 17.9 C 0 km/h
1802 18-06-2009 00:31:10 17.6 C 8.4 g/m*3 17.6 C 0 km/h
1803 18-06-2009 00:43:10 17.4 C 8.45 g/m*3 17.4 C 0 km/h
1804 18-06-2009 00:55:10 17.1 C 8.3 g/m*3 17.1 C 0 km/h
1805 18-06-2009 01:07:10 16.9 C 8.34 g/m*3 16.9 C 0 km/h
1806 18-06-2009 01:19:10 16.7 C 8.53 g/m*3 16.7 C 0 km/h
1807 18-06-2009 01:31:10 16.6 C 8.62 g/m*3 16.6 C 0 km/h
1808 18-06-2009 01:43:10 16.4 C 8.79 g/m*3 16.4 C 0 km/h
1809 18-06-2009 01:55:10 16.2 C 8.96 g/m*3 16.2 C 0 km/h
1810 18-06-2009 02:07:10 16.2 C 8.96 g/m*3 16.2 C 0 km/h
1811 18-06-2009 02:19:10 15.9 C 9.07 g/m*3 15.9 C 0 km/h
1812 18-06-2009 02:31:11 15.7 C 9.1 g/m*3 15.7 C 0 km/h
1813 18-06-2009 02:43:11 15.4 C 9.33 g/m*3 15.4 C 0 km/h
1814 18-06-2009 02:55:11 15.4 C 9.33 g/m*3 15.4 C 0 km/h
1815 18-06-2009 03:07:11 15.1 C 9.42 g/m*3 15.1 C 0 km/h
1816 18-06-2009 03:19:11 15 C 9.49 g/m*3 15 C 0 km/h
1817 18-06-2009 03:31:11 14.8 C 9.5 g/m*3 14.8 C 0 km/h
1818 18-06-2009 03:43:11 14.7 C 9.44 g/m*3 14.7 C 0 km/h
1819 18-06-2009 03:55:11 14.5 C 9.58 g/m*3 14.5 C 0 km/h
1820 18-06-2009 04:07:11 14.4 C 9.64 g/m*3 14.4 C 0 km/h
1821 18-06-2009 04:19:11 14.5 C 9.7 g/m*3 14.5 C 0 km/h
1822 18-06-2009 04:31:11 14.3 C 9.58 g/m*3 14.3 C 0 km/h
1823 18-06-2009 04:43:11 13.8 C 9.41 g/m*3 13.8 C 0 km/h
1824 18-06-2009 04:55:11 13.7 C 9.59 g/m*3 13.7 C 0 km/h
1825 18-06-2009 05:07:11 13.5 C 9.71 g/m*3 13.5 C 0 km/h
Sensor: Nr:Datum:Temp:Abs-Feuchte:Windchill:Wind:
Aussen-T/F 1826 18-06-2009 05:19:11 13.4 C 9.65 g/m*3 13.4 C 0 km/h
1827 18-06-2009 05:31:11 13.5 C 9.71 g/m*3 13.5 C 0 km/h
1828 18-06-2009 05:43:11 13.7 C 9.59 g/m*3 13.7 C 0 km/h
1829 18-06-2009 05:55:11 13.7 C 9.59 g/m*3 13.7 C 0 km/h
1830 18-06-2009 06:07:12 13.5 C 9.47 g/m*3 13.5 C 0 km/h
1831 18-06-2009 06:19:12 13.7 C 9.71 g/m*3 13.7 C 0 km/h
1832 18-06-2009 06:31:12 14 C 9.65 g/m*3 14 C 0 km/h
1833 18-06-2009 06:43:12 14.3 C 9.71 g/m*3 14.3 C 0 km/h
1834 18-06-2009 06:55:12 14.6 C 9.64 g/m*3 14.6 C 0 km/h
1835 18-06-2009 07:07:10 14.9 C 9.69 g/m*3 14.9 C 0 km/h
1836 18-06-2009 07:19:09 15.5 C 9.91 g/m*3 15.5 C 0 km/h
1837 18-06-2009 07:31:10 16 C 9.81 g/m*3 16 C 0 km/h
1838 18-06-2009 07:43:10 16.2 C 9.79 g/m*3 16.2 C 0 km/h
1839 18-06-2009 07:55:09 16.4 C 9.91 g/m*3 16.4 C 0 km/h
1840 18-06-2009 08:07:09 16.7 C 10.09 g/m*3 16.7 C 0 km/h
1841 18-06-2009 08:19:10 16.9 C 10.21 g/m*3 16.9 C 0 km/h
1842 18-06-2009 08:31:09 16.9 C 10.21 g/m*3 16.9 C 0 km/h
1843 18-06-2009 08:43:09 17.2 C 10.25 g/m*3 17.2 C 0 km/h
1844 18-06-2009 08:55:09 17.5 C 10.29 g/m*3 17.5 C 0 km/h
1845 18-06-2009 09:07:09 18.1 C 10.35 g/m*3 18.1 C 0 km/h
1846 18-06-2009 09:19:08 18.4 C 10.38 g/m*3 18.4 C 0 km/h
1847 18-06-2009 09:31:08 18.4 C 10.38 g/m*3 18.4 C 0 km/h
1848 18-06-2009 09:43:08 18.7 C 10.57 g/m*3 18.7 C 0 km/h
1849 18-06-2009 09:55:08 18.9 C 10.53 g/m*3 18.9 C 0 km/h
1850 18-06-2009 10:07:08 19.4 C 10.51 g/m*3 19.4 C 0 km/h
Sensor: Nr:Datum:Temp:Abs-Feuchte:Windchill:Wind:
Aussen-T/F 1851 18-06-2009 10:19:08 19.6 C 10.47 g/m*3 19.6 C 0 km/h
1852 18-06-2009 10:31:08 19.7 C 10.53 g/m*3 19.7 C 0 km/h
1853 18-06-2009 10:43:08 20.1 C 10.43 g/m*3 20.1 C 0 km/h
1854 18-06-2009 10:55:08 21 C 10.44 g/m*3 21 C 0 km/h
1855 18-06-2009 11:07:07 21.9 C 10.81 g/m*3 21.9 C 0 km/h
1856 18-06-2009 11:19:08 22.5 C 9.99 g/m*3 22.5 C 0 km/h
1857 18-06-2009 11:31:07 22.9 C 9.2 g/m*3 22.9 C 0 km/h
1858 18-06-2009 11:43:07 23.4 C 9.46 g/m*3 23.4 C 0 km/h
1859 18-06-2009 11:55:07 22.9 C 9.4 g/m*3 22.9 C 0 km/h
1860 18-06-2009 12:07:08 22.8 C 9.75 g/m*3 22.8 C 0 km/h
1861 18-06-2009 12:19:07 23.8 C 9.68 g/m*3 23.8 C 0 km/h
1862 18-06-2009 12:31:07 23.3 C 9.41 g/m*3 23.3 C 0 km/h
1863 18-06-2009 12:43:07 22.8 C 9.96 g/m*3 22.8 C 0 km/h
1864 18-06-2009 12:55:06 22.7 C 10.3 g/m*3 22.7 C 0 km/h
1865 18-06-2009 13:07:07 22.1 C 9.76 g/m*3 22.1 C 0 km/h
1866 18-06-2009 13:19:06 21.7 C 10.68 g/m*3 21.7 C 0 km/h
1867 18-06-2009 13:31:06 22.4 C 10.72 g/m*3 22.4 C 0 km/h
1868 18-06-2009 13:43:06 22.9 C 10.01 g/m*3 22.9 C 0 km/h
1869 18-06-2009 13:55:06 22.6 C 10.25 g/m*3 22.6 C 0 km/h
1870 18-06-2009 14:07:06 22.7 C 10.3 g/m*3 22.7 C 0 km/h
1871 18-06-2009 14:19:06 23 C 11.1 g/m*3 23 C 0 km/h
1872 18-06-2009 14:31:05 23.7 C 10.91 g/m*3 23.7 C 0 km/h
1873 18-06-2009 14:43:05 23.4 C 10.93 g/m*3 23.4 C 0 km/h
1874 18-06-2009 14:55:06 22.5 C 10.19 g/m*3 22.5 C 0 km/h
1875 18-06-2009 15:07:05 22.5 C 10.79 g/m*3 22.5 C 0 km/h
Sensor: Nr:Datum:Temp:Abs-Feuchte:Windchill:Wind:
Aussen-T/F 1876 18-06-2009 15:19:05 22.3 C 10.47 g/m*3 22.3 C 0 km/h
1877 18-06-2009 15:31:05 22 C 11.26 g/m*3 22 C 0 km/h
1878 18-06-2009 15:43:05 21 C 11.91 g/m*3 21 C 0 km/h
1879 18-06-2009 15:55:05 20.9 C 11.66 g/m*3 20.9 C 0 km/h
1880 18-06-2009 16:07:04 21.3 C 11.93 g/m*3 21.3 C 0 km/h
1881 18-06-2009 16:19:05 22 C 11.84 g/m*3 22 C 0 km/h
1882 18-06-2009 16:31:05 22.4 C 11.52 g/m*3 22.4 C 0 km/h
1883 18-06-2009 16:43:05 22.5 C 11.39 g/m*3 22.5 C 0 km/h
1884 18-06-2009 16:55:04 22 C 11.26 g/m*3 22 C 0 km/h
1885 18-06-2009 17:07:05 22.2 C 11.78 g/m*3 22.2 C 0 km/h
1886 18-06-2009 17:19:04 22.3 C 11.85 g/m*3 22.3 C 0 km/h
1887 18-06-2009 17:31:04 22 C 12.03 g/m*3 22 C 0 km/h
1888 18-06-2009 17:43:04 22.6 C 12.25 g/m*3 22.6 C 0 km/h
1889 18-06-2009 17:55:04 23.3 C 11.5 g/m*3 23.3 C 0 km/h
1890 18-06-2009 18:07:04 23.4 C 11.14 g/m*3 23.4 C 0 km/h
1891 18-06-2009 18:19:03 24.5 C 10.07 g/m*3 24.5 C 0 km/h
1892 18-06-2009 18:31:03 24.8 C 10.47 g/m*3 24.8 C 0 km/h
1893 18-06-2009 18:43:03 24.8 C 10.02 g/m*3 24.8 C 0 km/h
1894 18-06-2009 18:55:04 24 C 10.23 g/m*3 24 C 0 km/h
1895 18-06-2009 19:07:03 23.7 C 10.69 g/m*3 23.7 C 0 km/h
1896 18-06-2009 19:19:03 24.5 C 10.07 g/m*3 24.5 C 0 km/h
1897 18-06-2009 19:31:02 23.9 C 10.17 g/m*3 23.9 C 0 km/h
1898 18-06-2009 19:43:02 24.4 C 9.79 g/m*3 24.4 C 0 km/h
1899 18-06-2009 19:55:03 24.8 C 9.79 g/m*3 24.8 C 0 km/h
1900 18-06-2009 20:07:02 25.2 C 9.54 g/m*3 25.2 C 0 km/h
Sensor: Nr:Datum:Temp:Abs-Feuchte:Windchill:Wind:
Aussen-T/F 1901 18-06-2009 20:19:02 24.9 C 9.61 g/m*3 24.9 C 0 km/h
1902 18-06-2009 20:31:03 23.4 C 10.09 g/m*3 23.4 C 0 km/h
1903 18-06-2009 20:43:03 23.3 C 10.25 g/m*3 23.3 C 0 km/h
1904 18-06-2009 20:55:02 22.9 C 10.42 g/m*3 22.9 C 0 km/h
1905 18-06-2009 21:07:02 22.2 C 10.41 g/m*3 22.2 C 0 km/h
1906 18-06-2009 21:19:02 21.4 C 10.5 g/m*3 21.4 C 0 km/h
1907 18-06-2009 21:31:02 21.1 C 10.32 g/m*3 21.1 C 0 km/h
1908 18-06-2009 21:43:02 20.8 C 10.68 g/m*3 20.8 C 0 km/h
1909 18-06-2009 21:55:02 20.2 C 10.67 g/m*3 20.2 C 0 km/h
1910 18-06-2009 22:08:27 20 C 10.71 g/m*3 20 C 0 km/h
1911 18-06-2009 22:20:27 19.7 C 10.7 g/m*3 19.7 C 0 km/h
1912 18-06-2009 22:32:27 19.6 C 10.64 g/m*3 19.6 C 0 km/h
1913 18-06-2009 22:44:27 19.5 C 10.74 g/m*3 19.5 C 0 km/h
1914 18-06-2009 22:56:27 19.2 C 10.72 g/m*3 19.2 C 0 km/h
1915 18-06-2009 23:08:27 18.9 C 10.85 g/m*3 18.9 C 0 km/h
1916 18-06-2009 23:20:27 18.6 C 10.98 g/m*3 18.6 C 0 km/h
1917 18-06-2009 23:32:28 18.4 C 10.85 g/m*3 18.4 C 0 km/h
1918 18-06-2009 23:44:28 18.2 C 10.88 g/m*3 18.2 C 0 km/h
1919 18-06-2009 23:56:28 18.1 C 10.82 g/m*3 18.1 C 0 km/h
1920 19-06-2009 00:08:28 18.1 C 10.82 g/m*3 18.1 C 0 km/h
1921 19-06-2009 00:20:28 17.9 C 11.15 g/m*3 17.9 C 0 km/h
1922 19-06-2009 00:32:28 17.5 C 11.03 g/m*3 17.5 C 0 km/h
1923 19-06-2009 00:44:28 17.2 C 10.98 g/m*3 17.2 C 0 km/h
1924 19-06-2009 00:56:28 17 C 11 g/m*3 17 C 0 km/h
1925 19-06-2009 01:08:28 17 C 11.14 g/m*3 17 C 0 km/h
Sensor: Nr:Datum:Temp:Abs-Feuchte:Windchill:Wind:
Aussen-T/F 1926 19-06-2009 01:20:28 16.7 C 11.08 g/m*3 16.7 C 0 km/h
1927 19-06-2009 01:32:28 16.6 C 11.02 g/m*3 16.6 C 0 km/h
1928 19-06-2009 01:44:28 16.2 C 10.89 g/m*3 16.2 C 0 km/h
1929 19-06-2009 01:56:28 16 C 10.76 g/m*3 16 C 0 km/h
1930 19-06-2009 02:08:28 15.9 C 10.97 g/m*3 15.9 C 0 km/h
1931 19-06-2009 02:20:28 15.8 C 10.9 g/m*3 15.8 C 0 km/h
1932 19-06-2009 02:32:28 15.6 C 10.77 g/m*3 15.6 C 0 km/h
1933 19-06-2009 02:44:28 15.5 C 10.84 g/m*3 15.5 C 0 km/h
1934 19-06-2009 02:56:28 15.4 C 10.77 g/m*3 15.4 C 0 km/h
1935 19-06-2009 03:08:28 15.2 C 10.64 g/m*3 15.2 C 0 km/h
1936 19-06-2009 03:20:29 15.1 C 10.71 g/m*3 15.1 C 0 km/h
1937 19-06-2009 03:32:29 15 C 10.64 g/m*3 15 C 0 km/h
1938 19-06-2009 03:44:29 14.8 C 10.51 g/m*3 14.8 C 0 km/h
1939 19-06-2009 03:56:29 14.7 C 10.45 g/m*3 14.7 C 0 km/h
1940 19-06-2009 04:08:29 14.7 C 10.32 g/m*3 14.7 C 0 km/h
1941 19-06-2009 04:20:29 14.7 C 10.2 g/m*3 14.7 C 0 km/h
1942 19-06-2009 04:32:29 14.8 C 10.13 g/m*3 14.8 C 0 km/h
1943 19-06-2009 04:44:29 14.8 C 10.13 g/m*3 14.8 C 0 km/h
1944 19-06-2009 04:56:29 14.9 C 10.2 g/m*3 14.9 C 0 km/h
1945 19-06-2009 05:08:29 14.8 C 10.13 g/m*3 14.8 C 0 km/h
1946 19-06-2009 05:20:29 14.7 C 9.95 g/m*3 14.7 C 0 km/h
1947 19-06-2009 05:32:29 14.8 C 9.88 g/m*3 14.8 C 0 km/h
1948 19-06-2009 05:44:29 14.7 C 9.82 g/m*3 14.7 C 0 km/h
1949 19-06-2009 05:56:29 14.4 C 9.77 g/m*3 14.4 C 0 km/h
1950 19-06-2009 06:08:29 14.4 C 9.77 g/m*3 14.4 C 0 km/h
Sensor: Nr:Datum:Temp:Abs-Feuchte:Windchill:Wind:
Aussen-T/F 1951 19-06-2009 06:20:02 14.5 C 9.83 g/m*3 14.5 C 0 km/h
1952 19-06-2009 06:32:01 14.6 C 9.89 g/m*3 14.6 C 0 km/h
1953 19-06-2009 06:44:01 14.8 C 9.63 g/m*3 14.8 C 0 km/h
1954 19-06-2009 06:56:02 15 C 9.75 g/m*3 15 C 0 km/h
1955 19-06-2009 07:08:01 15.2 C 9.73 g/m*3 15.2 C 0 km/h
1956 19-06-2009 07:20:01 15.4 C 9.59 g/m*3 15.4 C 0 km/h
1957 19-06-2009 07:32:01 15.5 C 9.52 g/m*3 15.5 C 0 km/h
1958 19-06-2009 07:44:01 15.8 C 9.42 g/m*3 15.8 C 0 km/h
1959 19-06-2009 07:56:01 16.1 C 9.32 g/m*3 16.1 C 0 km/h
1960 19-06-2009 08:08:01 16.4 C 9.35 g/m*3 16.4 C 0 km/h
1961 19-06-2009 08:20:00 16.4 C 9.07 g/m*3 16.4 C 0 km/h
1962 19-06-2009 08:32:00 16.9 C 9.21 g/m*3 16.9 C 0 km/h
1963 19-06-2009 08:44:00 16.8 C 8.86 g/m*3 16.8 C 0 km/h
1964 19-06-2009 08:56:00 17.2 C 9.08 g/m*3 17.2 C 0 km/h
1965 19-06-2009 09:07:59 17.3 C 8.4 g/m*3 17.3 C 0 km/h
1966 19-06-2009 09:20:00 17.1 C 8.73 g/m*3 17.1 C 0 km/h
1967 19-06-2009 09:32:00 17.1 C 8.44 g/m*3 17.1 C 0 km/h
1968 19-06-2009 09:44:00 17.2 C 8.35 g/m*3 17.2 C 0 km/h
1969 19-06-2009 09:56:59 17.4 C 8.45 g/m*3 17.4 C 0 km/h
1970 19-06-2009 10:08:00 17.8 C 8.2 g/m*3 17.8 C 0 km/h
1971 19-06-2009 10:20:59 17.8 C 7.74 g/m*3 17.8 C 0 km/h
1972 19-06-2009 10:32:59 18.3 C 7.82 g/m*3 18.3 C 0 km/h
1973 19-06-2009 10:44:59 18.3 C 7.19 g/m*3 18.3 C 0 km/h
1974 19-06-2009 10:56:59 18.9 C 7.13 g/m*3 18.9 C 0 km/h
1975 19-06-2009 11:08:59 19.1 C 7.05 g/m*3 19.1 C 0 km/h
Sensor: Nr:Datum:Temp:Abs-Feuchte:Windchill:Wind:
Aussen-T/F 1976 19-06-2009 11:20:59 19 C 7.17 g/m*3 19 C 0 km/h
1977 19-06-2009 11:32:58 19.2 C 7.59 g/m*3 19.2 C 0 km/h
1978 19-06-2009 11:44:59 19.3 C 7.63 g/m*3 19.3 C 0 km/h
1979 19-06-2009 11:56:59 19.6 C 7.93 g/m*3 19.6 C 0 km/h
1980 19-06-2009 12:08:58 19.6 C 6.75 g/m*3 19.6 C 0 km/h
1981 19-06-2009 12:20:58 19.4 C 6.67 g/m*3 19.4 C 0 km/h
1982 19-06-2009 12:32:57 20.4 C 6.72 g/m*3 20.4 C 0 km/h
1983 19-06-2009 12:44:58 20.9 C 6.37 g/m*3 20.9 C 0 km/h
1984 19-06-2009 12:56:58 21.1 C 5.71 g/m*3 21.1 C 0 km/h
1985 19-06-2009 13:08:57 22.7 C 5.66 g/m*3 22.7 C 0 km/h
1986 19-06-2009 13:20:57 21.9 C 6.18 g/m*3 21.9 C 0 km/h
1987 19-06-2009 13:32:58 22.3 C 5.73 g/m*3 22.3 C 0 km/h
1988 19-06-2009 13:44:57 23.3 C 5.44 g/m*3 23.3 C 0 km/h
1989 19-06-2009 13:56:57 23.3 C 5.44 g/m*3 23.3 C 0 km/h
1990 19-06-2009 14:08:57 22.6 C 5.22 g/m*3 22.6 C 0 km/h
1991 19-06-2009 14:20:57 22.6 C 5.83 g/m*3 22.6 C 0 km/h
1992 19-06-2009 14:32:57 21.7 C 5.53 g/m*3 21.7 C 0 km/h
1993 19-06-2009 14:44:56 22.1 C 6.05 g/m*3 22.1 C 0 km/h
1994 19-06-2009 14:56:56 23.6 C 5.32 g/m*3 23.6 C 0 km/h
1995 19-06-2009 15:08:57 21.5 C 5.28 g/m*3 21.5 C 0 km/h
1996 19-06-2009 15:20:57 22.5 C 4.99 g/m*3 22.5 C 0 km/h
1997 19-06-2009 15:32:56 22.2 C 5.1 g/m*3 22.2 C 0 km/h
1998 19-06-2009 15:44:56 22.5 C 5.39 g/m*3 22.5 C 0 km/h
1999 19-06-2009 15:56:56 23.3 C 5.23 g/m*3 23.3 C 0 km/h
2000 19-06-2009 16:08:56 22.2 C 4.52 g/m*3 22.2 C 0 km/h
Sensor: Nr:Datum:Temp:Abs-Feuchte:Windchill:Wind:
Aussen-T/F 2001 19-06-2009 16:20:56 22 C 4.66 g/m*3 22 C 0 km/h
2002 19-06-2009 16:32:55 22.5 C 3.99 g/m*3 22.5 C 0 km/h
2003 19-06-2009 16:44:56 23.5 C 4.44 g/m*3 23.5 C 0 km/h
2004 19-06-2009 16:56:57 22.8 C 4.06 g/m*3 22.8 C 0 km/h
2005 19-06-2009 17:08:55 22.7 C 4.04 g/m*3 22.7 C 0 km/h
2006 19-06-2009 17:20:55 22.4 C 4.17 g/m*3 22.4 C 0 km/h
2007 19-06-2009 17:32:55 22.8 C 4.88 g/m*3 22.8 C 0 km/h
2008 19-06-2009 17:44:55 23 C 5.14 g/m*3 23 C 0 km/h
2009 19-06-2009 17:56:55 22.5 C 5.39 g/m*3 22.5 C 0 km/h
2010 19-06-2009 18:08:55 22.8 C 5.28 g/m*3 22.8 C 0 km/h
2011 19-06-2009 18:20:54 22 C 4.85 g/m*3 22 C 0 km/h
2012 19-06-2009 18:32:55 23.6 C 5.1 g/m*3 23.6 C 0 km/h
2013 19-06-2009 18:44:54 21.4 C 5.25 g/m*3 21.4 C 0 km/h
2014 19-06-2009 18:56:54 23 C 4.93 g/m*3 23 C 0 km/h
2015 19-06-2009 19:08:54 22.3 C 4.94 g/m*3 22.3 C 0 km/h
2016 19-06-2009 19:20:53 22.3 C 5.33 g/m*3 22.3 C 0 km/h
2017 19-06-2009 19:32:54 22 C 5.24 g/m*3 22 C 0 km/h
2018 19-06-2009 19:44:54 21.8 C 5.76 g/m*3 21.8 C 0 km/h
2019 19-06-2009 19:56:54 21.6 C 5.69 g/m*3 21.6 C 0 km/h
2020 19-06-2009 20:08:53 20.6 C 5.55 g/m*3 20.6 C 0 km/h
2021 19-06-2009 20:20:54 20.8 C 5.79 g/m*3 20.8 C 0 km/h
2022 19-06-2009 20:32:53 20.4 C 5.66 g/m*3 20.4 C 0 km/h
2023 19-06-2009 20:44:53 20.2 C 5.77 g/m*3 20.2 C 0 km/h
2024 19-06-2009 20:56:53 19.5 C 5.54 g/m*3 19.5 C 0 km/h
2025 19-06-2009 21:08:53 19.3 C 5.64 g/m*3 19.3 C 0 km/h
Sensor: Nr:Datum:Temp:Abs-Feuchte:Windchill:Wind:
Aussen-T/F 2026 19-06-2009 21:20:53 18.5 C 5.54 g/m*3 18.5 C 0 km/h
2027 19-06-2009 21:32:53 17.9 C 5.5 g/m*3 17.9 C 0 km/h
2028 19-06-2009 21:44:52 17.5 C 5.37 g/m*3 17.5 C 0 km/h
2029 19-06-2009 21:56:52 17.2 C 5.42 g/m*3 17.2 C 0 km/h
2030 19-06-2009 22:08:53 16.8 C 5.29 g/m*3 16.8 C 0 km/h
2031 19-06-2009 22:20:52 16.6 C 5.37 g/m*3 16.6 C 0 km/h
2032 19-06-2009 22:32:53 16.2 C 5.24 g/m*3 16.2 C 0 km/h
2033 19-06-2009 22:45:53 16 C 5.31 g/m*3 16 C 0 km/h
2034 19-06-2009 22:57:53 15.8 C 5.38 g/m*3 15.8 C 0 km/h
2035 19-06-2009 23:09:53 15.4 C 5.39 g/m*3 15.4 C 0 km/h
2036 19-06-2009 23:21:53 15.1 C 5.42 g/m*3 15.1 C 0 km/h
2037 19-06-2009 23:33:54 14.8 C 5.83 g/m*3 14.8 C 0 km/h
2038 19-06-2009 23:45:54 14.4 C 6.06 g/m*3 14.4 C 0 km/h
2039 19-06-2009 23:57:54 14.1 C 6.19 g/m*3 14.1 C 0 km/h
2040 20-06-2009 00:09:54 13.6 C 6.36 g/m*3 13.6 C 0 km/h
2041 20-06-2009 00:21:54 13.3 C 6.59 g/m*3 13.3 C 0 km/h
2042 20-06-2009 00:33:54 13 C 6.58 g/m*3 13 C 0 km/h
2043 20-06-2009 00:45:54 12.8 C 6.83 g/m*3 12.8 C 0 km/h
2044 20-06-2009 00:57:54 12.6 C 6.86 g/m*3 12.6 C 0 km/h
2045 20-06-2009 01:09:54 12.3 C 6.84 g/m*3 12.3 C 0 km/h
2046 20-06-2009 01:21:54 11.9 C 6.99 g/m*3 11.9 C 0 km/h
2047 20-06-2009 01:33:54 12 C 7.03 g/m*3 12 C 0 km/h
2048 20-06-2009 01:45:54 11.7 C 7.11 g/m*3 11.7 C 0 km/h
2049 20-06-2009 01:57:54 11.5 C 7.13 g/m*3 11.5 C 0 km/h
2050 20-06-2009 02:09:54 11.3 C 7.14 g/m*3 11.3 C 0 km/h
Sensor: Nr:Datum:Temp:Abs-Feuchte:Windchill:Wind:
Aussen-T/F 2051 20-06-2009 02:21:54 11.1 C 7.05 g/m*3 11.1 C 0 km/h
2052 20-06-2009 02:33:54 10.9 C 7.16 g/m*3 10.9 C 0 km/h
2053 20-06-2009 02:45:54 10.7 C 7.17 g/m*3 10.7 C 0 km/h
2054 20-06-2009 02:57:54 10.5 C 7.18 g/m*3 10.5 C 0 km/h
2055 20-06-2009 03:09:54 10.4 C 7.04 g/m*3 10.4 C 0 km/h
2056 20-06-2009 03:21:55 10.2 C 7.04 g/m*3 10.2 C 0 km/h
2057 20-06-2009 03:33:55 10.1 C 7.09 g/m*3 10.1 C 0 km/h
2058 20-06-2009 03:45:55 10 C 7.14 g/m*3 10 C 0 km/h
2059 20-06-2009 03:57:55 9.8 C 7.14 g/m*3 9.8 C 0 km/h
2060 20-06-2009 04:09:55 9.7 C 7.19 g/m*3 9.7 C 0 km/h
2061 20-06-2009 04:21:55 9.6 C 7.15 g/m*3 9.6 C 0 km/h
2062 20-06-2009 04:33:55 9.4 C 7.05 g/m*3 9.4 C 0 km/h
2063 20-06-2009 04:45:55 9.3 C 7.01 g/m*3 9.3 C 0 km/h
2064 20-06-2009 04:57:55 9.2 C 7.05 g/m*3 9.2 C 0 km/h
2065 20-06-2009 05:09:55 9.2 C 6.97 g/m*3 9.2 C 0 km/h
2066 20-06-2009 05:21:55 9.1 C 6.92 g/m*3 9.1 C 0 km/h
2067 20-06-2009 05:33:55 9 C 7.05 g/m*3 9 C 0 km/h
2068 20-06-2009 05:45:55 8.9 C 7.1 g/m*3 8.9 C 0 km/h
2069 20-06-2009 05:57:55 8.7 C 7.09 g/m*3 8.7 C 0 km/h
2070 20-06-2009 06:09:55 8.8 C 7.14 g/m*3 8.8 C 0 km/h
2071 20-06-2009 06:21:55 8.9 C 7.18 g/m*3 8.9 C 0 km/h
2072 20-06-2009 06:33:55 9 C 7.14 g/m*3 9 C 0 km/h
2073 20-06-2009 06:45:55 9.3 C 7.19 g/m*3 9.3 C 0 km/h
2074 20-06-2009 06:57:55 9.4 C 7.15 g/m*3 9.4 C 0 km/h
2075 20-06-2009 07:09:56 9.7 C 7.28 g/m*3 9.7 C 0 km/h
Sensor: Nr:Datum:Temp:Abs-Feuchte:Windchill:Wind:
Aussen-T/F 2076 20-06-2009 07:21:56 10 C 7.24 g/m*3 10 C 0 km/h
2077 20-06-2009 07:33:53 10.8 C 7.51 g/m*3 10.8 C 0 km/h
2078 20-06-2009 07:45:53 11.2 C 7.3 g/m*3 11.2 C 0 km/h
2079 20-06-2009 07:57:53 11.7 C 7.53 g/m*3 11.7 C 0 km/h
2080 20-06-2009 08:09:52 12.2 C 7.45 g/m*3 12.2 C 0 km/h
2081 20-06-2009 08:21:53 12.7 C 7.57 g/m*3 12.7 C 0 km/h
2082 20-06-2009 08:33:53 12.9 C 7.55 g/m*3 12.9 C 0 km/h
2083 20-06-2009 08:45:52 13.5 C 7.6 g/m*3 13.5 C 0 km/h
2084 20-06-2009 08:57:52 13.5 C 7.49 g/m*3 13.5 C 0 km/h
2085 20-06-2009 09:09:53 13.1 C 7.42 g/m*3 13.1 C 0 km/h
2086 20-06-2009 09:21:52 13 C 7.48 g/m*3 13 C 0 km/h
2087 20-06-2009 09:33:52 13.4 C 7.56 g/m*3 13.4 C 0 km/h
2088 20-06-2009 09:45:51 13.6 C 7.53 g/m*3 13.6 C 0 km/h
2089 20-06-2009 09:57:51 13.2 C 7.46 g/m*3 13.2 C 0 km/h
2090 20-06-2009 10:09:52 13.1 C 7.53 g/m*3 13.1 C 0 km/h
2091 20-06-2009 10:21:51 13.2 C 7.58 g/m*3 13.2 C 0 km/h
2092 20-06-2009 10:33:51 13.5 C 7.6 g/m*3 13.5 C 0 km/h
2093 20-06-2009 10:45:52 13.7 C 7.58 g/m*3 13.7 C 0 km/h
2094 20-06-2009 10:57:52 14.1 C 7.65 g/m*3 14.1 C 0 km/h
2095 20-06-2009 11:09:51 14.8 C 7.85 g/m*3 14.8 C 0 km/h
2096 20-06-2009 11:21:51 15.4 C 7.75 g/m*3 15.4 C 0 km/h
2097 20-06-2009 11:33:50 16 C 7.63 g/m*3 16 C 0 km/h
2098 20-06-2009 11:45:51 15.8 C 7.67 g/m*3 15.8 C 0 km/h
2099 20-06-2009 11:57:51 16.5 C 7.58 g/m*3 16.5 C 0 km/h
2100 20-06-2009 12:09:50 17 C 7.23 g/m*3 17 C 0 km/h
Sensor: Nr:Datum:Temp:Abs-Feuchte:Windchill:Wind:
Aussen-T/F 2101 20-06-2009 12:21:50 18.2 C 6.37 g/m*3 18.2 C 0 km/h
2102 20-06-2009 12:33:51 19.4 C 6.17 g/m*3 19.4 C 0 km/h
2103 20-06-2009 12:45:50 19.8 C 6.32 g/m*3 19.8 C 0 km/h
2104 20-06-2009 12:57:50 21.1 C 6.08 g/m*3 21.1 C 0 km/h
2105 20-06-2009 13:09:50 21.4 C 6.19 g/m*3 21.4 C 0 km/h
2106 20-06-2009 13:21:49 19.6 C 6.25 g/m*3 19.6 C 0 km/h
2107 20-06-2009 13:33:50 17.8 C 6.68 g/m*3 17.8 C 0 km/h
2108 20-06-2009 13:45:49 14.5 C 6.22 g/m*3 14.5 C 0 km/h
2109 20-06-2009 13:57:49 12.6 C 8.3 g/m*3 12.6 C 0 km/h
2110 20-06-2009 14:09:49 13.4 C 9.76 g/m*3 13.4 C 0 km/h
2111 20-06-2009 14:21:49 14.8 C 10.51 g/m*3 14.8 C 0 km/h
2112 20-06-2009 14:33:49 15 C 10 g/m*3 15 C 0 km/h
2113 20-06-2009 14:45:49 15.6 C 10.24 g/m*3 15.6 C 0 km/h
2114 20-06-2009 14:57:49 16.4 C 9.91 g/m*3 16.4 C 0 km/h
2115 20-06-2009 15:09:49 17.1 C 10.04 g/m*3 17.1 C 0 km/h
2116 20-06-2009 15:21:49 17.4 C 10.08 g/m*3 17.4 C 0 km/h
2117 20-06-2009 15:33:48 16 C 9.26 g/m*3 16 C 0 km/h
2118 20-06-2009 15:45:48 14.6 C 9.89 g/m*3 14.6 C 0 km/h
2119 20-06-2009 15:57:48 14.7 C 10.32 g/m*3 14.7 C 0 km/h
2120 20-06-2009 16:09:48 15.6 C 11.04 g/m*3 15.6 C 0 km/h
2121 20-06-2009 16:21:48 16.4 C 10.75 g/m*3 16.4 C 0 km/h
2122 20-06-2009 16:33:48 16.1 C 10.14 g/m*3 16.1 C 0 km/h
2123 20-06-2009 16:45:48 16.1 C 10.01 g/m*3 16.1 C 0 km/h
2124 20-06-2009 16:57:48 17 C 9.41 g/m*3 17 C 0 km/h
2125 20-06-2009 17:09:48 17.3 C 8.99 g/m*3 17.3 C 0 km/h
Sensor: Nr:Datum:Temp:Abs-Feuchte:Windchill:Wind:
Aussen-T/F 2126 20-06-2009 17:21:47 17 C 8.97 g/m*3 17 C 0 km/h
2127 20-06-2009 17:33:47 16.8 C 9.44 g/m*3 16.8 C 0 km/h
2128 20-06-2009 17:45:47 16.4 C 9.49 g/m*3 16.4 C 0 km/h
2129 20-06-2009 17:57:47 16 C 9.67 g/m*3 16 C 0 km/h
2130 20-06-2009 18:09:47 17.3 C 9.13 g/m*3 17.3 C 0 km/h
2131 20-06-2009 18:21:46 18 C 7.99 g/m*3 18 C 0 km/h
2132 20-06-2009 18:33:47 17.7 C 8.6 g/m*3 17.7 C 0 km/h
2133 20-06-2009 18:45:46 17.8 C 7.89 g/m*3 17.8 C 0 km/h
2134 20-06-2009 18:57:46 17.9 C 8.24 g/m*3 17.9 C 0 km/h
2135 20-06-2009 19:09:46 17.8 C 8.5 g/m*3 17.8 C 0 km/h
2136 20-06-2009 19:21:47 18.3 C 8.6 g/m*3 18.3 C 0 km/h
2137 20-06-2009 19:33:46 17.8 C 8.5 g/m*3 17.8 C 0 km/h
2138 20-06-2009 19:45:46 16.7 C 8.53 g/m*3 16.7 C 0 km/h
2139 20-06-2009 19:57:46 15.5 C 8.99 g/m*3 15.5 C 0 km/h
2140 20-06-2009 20:09:45 14.9 C 9.3 g/m*3 14.9 C 0 km/h
2141 20-06-2009 20:21:46 15.4 C 9.2 g/m*3 15.4 C 0 km/h
2142 20-06-2009 20:33:46 16 C 8.58 g/m*3 16 C 0 km/h
2143 20-06-2009 20:45:45 15.9 C 8.4 g/m*3 15.9 C 0 km/h
2144 20-06-2009 20:57:45 15.3 C 8.36 g/m*3 15.3 C 0 km/h
2145 20-06-2009 21:09:45 15 C 8.21 g/m*3 15 C 0 km/h
2146 20-06-2009 21:21:45 14.5 C 7.84 g/m*3 14.5 C 0 km/h
2147 20-06-2009 21:33:45 14.3 C 7.49 g/m*3 14.3 C 0 km/h
2148 20-06-2009 21:45:45 14.2 C 6.96 g/m*3 14.2 C 0 km/h
2149 20-06-2009 21:57:45 14.1 C 6.8 g/m*3 14.1 C 0 km/h
2150 20-06-2009 22:09:45 14.1 C 7.16 g/m*3 14.1 C 0 km/h
Sensor: Nr:Datum:Temp:Abs-Feuchte:Windchill:Wind:
Aussen-T/F 2151 20-06-2009 22:21:44 13.9 C 7.19 g/m*3 13.9 C 0 km/h
2152 20-06-2009 22:33:45 14 C 7.24 g/m*3 14 C 0 km/h
2153 20-06-2009 22:45:44 13.9 C 7.43 g/m*3 13.9 C 0 km/h
2154 20-06-2009 22:57:44 13.9 C 7.43 g/m*3 13.9 C 0 km/h
2155 20-06-2009 23:09:44 13.8 C 7.51 g/m*3 13.8 C 0 km/h
2156 20-06-2009 23:21:43 13.8 C 7.74 g/m*3 13.8 C 0 km/h
2157 20-06-2009 23:33:44 13.7 C 7.82 g/m*3 13.7 C 0 km/h
2158 20-06-2009 23:45:43 13.5 C 7.72 g/m*3 13.5 C 0 km/h
2159 20-06-2009 23:57:43 13.6 C 7.18 g/m*3 13.6 C 0 km/h
2160 21-06-2009 00:09:43 13.6 C 7.18 g/m*3 13.6 C 0 km/h
2161 21-06-2009 00:21:43 13.5 C 7.13 g/m*3 13.5 C 0 km/h
2162 21-06-2009 00:33:43 13.4 C 7.09 g/m*3 13.4 C 0 km/h
2163 21-06-2009 00:45:43 13.3 C 7.16 g/m*3 13.3 C 0 km/h
2164 21-06-2009 00:57:43 13.2 C 7 g/m*3 13.2 C 0 km/h
2165 21-06-2009 01:09:43 13.2 C 6.89 g/m*3 13.2 C 0 km/h
2166 21-06-2009 01:21:42 13.2 C 6.89 g/m*3 13.2 C 0 km/h
2167 21-06-2009 01:34:44 13 C 6.92 g/m*3 13 C 0 km/h
2168 21-06-2009 01:46:44 12.5 C 7.04 g/m*3 12.5 C 0 km/h
2169 21-06-2009 01:58:44 12.3 C 7.06 g/m*3 12.3 C 0 km/h
2170 21-06-2009 02:10:45 12.1 C 7.08 g/m*3 12.1 C 0 km/h
2171 21-06-2009 02:22:45 11.8 C 7.26 g/m*3 11.8 C 0 km/h
2172 21-06-2009 02:34:45 11.5 C 7.23 g/m*3 11.5 C 0 km/h
2173 21-06-2009 02:46:45 11.4 C 7.49 g/m*3 11.4 C 0 km/h
2174 21-06-2009 02:58:45 11.3 C 7.65 g/m*3 11.3 C 0 km/h
2175 21-06-2009 03:10:45 11 C 7.71 g/m*3 11 C 0 km/h
Sensor: Nr:Datum:Temp:Abs-Feuchte:Windchill:Wind:
Aussen-T/F 2176 21-06-2009 03:22:45 10.8 C 7.81 g/m*3 10.8 C 0 km/h
2177 21-06-2009 03:34:45 10.8 C 7.91 g/m*3 10.8 C 0 km/h
2178 21-06-2009 03:46:45 10.9 C 7.86 g/m*3 10.9 C 0 km/h
2179 21-06-2009 03:58:45 10.6 C 7.71 g/m*3 10.6 C 0 km/h
2180 21-06-2009 04:10:45 10.3 C 7.66 g/m*3 10.3 C 0 km/h
2181 21-06-2009 04:22:45 10.1 C 7.56 g/m*3 10.1 C 0 km/h
2182 21-06-2009 04:34:45 9.9 C 7.84 g/m*3 9.9 C 0 km/h
2183 21-06-2009 04:46:45 10 C 7.89 g/m*3 10 C 0 km/h
2184 21-06-2009 04:58:45 10 C 7.89 g/m*3 10 C 0 km/h
2185 21-06-2009 05:10:45 9.9 C 7.94 g/m*3 9.9 C 0 km/h
2186 21-06-2009 05:22:45 9.8 C 7.98 g/m*3 9.8 C 0 km/h
2187 21-06-2009 05:34:45 9.8 C 7.98 g/m*3 9.8 C 0 km/h
2188 21-06-2009 05:46:45 9.8 C 7.98 g/m*3 9.8 C 0 km/h
2189 21-06-2009 05:58:46 10 C 7.89 g/m*3 10 C 0 km/h
2190 21-06-2009 06:10:46 9.9 C 8.03 g/m*3 9.9 C 0 km/h
2191 21-06-2009 06:22:46 9.8 C 8.07 g/m*3 9.8 C 0 km/h
2192 21-06-2009 06:34:46 10.1 C 8.13 g/m*3 10.1 C 0 km/h
2193 21-06-2009 06:46:46 10.2 C 8.09 g/m*3 10.2 C 0 km/h
2194 21-06-2009 06:58:46 10.4 C 8.1 g/m*3 10.4 C 0 km/h
2195 21-06-2009 07:10:46 10.6 C 8.2 g/m*3 10.6 C 0 km/h
2196 21-06-2009 07:22:46 11 C 8.31 g/m*3 11 C 0 km/h
2197 21-06-2009 07:34:46 11.3 C 8.36 g/m*3 11.3 C 0 km/h
2198 21-06-2009 07:46:46 11.5 C 8.57 g/m*3 11.5 C 0 km/h
2199 21-06-2009 07:58:46 11.7 C 8.47 g/m*3 11.7 C 0 km/h
2200 21-06-2009 08:10:46 11.6 C 8.42 g/m*3 11.6 C 0 km/h
Sensor: Nr:Datum:Temp:Abs-Feuchte:Windchill:Wind:
Aussen-T/F 2201 21-06-2009 08:22:46 12.1 C 8.47 g/m*3 12.1 C 0 km/h
2202 21-06-2009 08:34:46 12.3 C 8.47 g/m*3 12.3 C 0 km/h
2203 21-06-2009 08:46:46 12.8 C 8.51 g/m*3 12.8 C 0 km/h
2204 21-06-2009 08:58:46 13.4 C 8.37 g/m*3 13.4 C 0 km/h
2205 21-06-2009 09:10:44 14.4 C 8.28 g/m*3 14.4 C 0 km/h
2206 21-06-2009 09:22:43 14.7 C 8.06 g/m*3 14.7 C 0 km/h
2207 21-06-2009 09:34:44 15.3 C 7.97 g/m*3 15.3 C 0 km/h
2208 21-06-2009 09:46:43 15.4 C 7.88 g/m*3 15.4 C 0 km/h
2209 21-06-2009 09:58:43 15.5 C 7.93 g/m*3 15.5 C 0 km/h
2210 21-06-2009 10:10:43 16.2 C 8 g/m*3 16.2 C 0 km/h
2211 21-06-2009 10:22:43 16.5 C 7.72 g/m*3 16.5 C 0 km/h
2212 21-06-2009 10:34:43 16.4 C 7.68 g/m*3 16.4 C 0 km/h
2213 21-06-2009 10:46:43 16.8 C 7.72 g/m*3 16.8 C 0 km/h
2214 21-06-2009 10:58:43 16.8 C 7.72 g/m*3 16.8 C 0 km/h
2215 21-06-2009 11:10:42 17.8 C 7.89 g/m*3 17.8 C 0 km/h
2216 21-06-2009 11:22:43 17.7 C 7.24 g/m*3 17.7 C 0 km/h
2217 21-06-2009 11:34:42 16 C 6.95 g/m*3 16 C 0 km/h
2218 21-06-2009 11:46:42 14.2 C 7.57 g/m*3 14.2 C 0 km/h
2219 21-06-2009 11:58:42 13.3 C 8.32 g/m*3 13.3 C 0 km/h
2220 21-06-2009 12:10:42 13.3 C 8.9 g/m*3 13.3 C 0 km/h
2221 21-06-2009 12:22:42 13.7 C 9.35 g/m*3 13.7 C 0 km/h
2222 21-06-2009 12:34:42 15.6 C 9.97 g/m*3 15.6 C 0 km/h
2223 21-06-2009 12:46:42 14.9 C 8.79 g/m*3 14.9 C 0 km/h
2224 21-06-2009 12:58:42 12.8 C 8.51 g/m*3 12.8 C 0 km/h
2225 21-06-2009 13:10:42 12.8 C 9.3 g/m*3 12.8 C 0 km/h
Sensor: Nr:Datum:Temp:Abs-Feuchte:Windchill:Wind:
Aussen-T/F 2226 21-06-2009 13:22:41 12.5 C 9.35 g/m*3 12.5 C 0 km/h
2227 21-06-2009 13:34:41 12.5 C 9.46 g/m*3 12.5 C 0 km/h
2228 21-06-2009 13:46:41 12.4 C 9.51 g/m*3 12.4 C 0 km/h
2229 21-06-2009 13:58:41 13.3 C 10.17 g/m*3 13.3 C 0 km/h
2230 21-06-2009 14:10:41 14.2 C 10.62 g/m*3 14.2 C 0 km/h
2231 21-06-2009 14:22:40 14 C 10.01 g/m*3 14 C 0 km/h
2232 21-06-2009 14:34:41 13.9 C 9.83 g/m*3 13.9 C 0 km/h
2233 21-06-2009 14:46:40 13.9 C 9.71 g/m*3 13.9 C 0 km/h
2234 21-06-2009 14:58:40 14.3 C 10.07 g/m*3 14.3 C 0 km/h
2235 21-06-2009 15:10:40 14.8 C 10.51 g/m*3 14.8 C 0 km/h
2236 21-06-2009 15:22:40 14.9 C 10.71 g/m*3 14.9 C 0 km/h
2237 21-06-2009 15:34:40 15 C 10.51 g/m*3 15 C 0 km/h
2238 21-06-2009 15:46:39 15.9 C 10.97 g/m*3 15.9 C 0 km/h
2239 21-06-2009 15:58:39 16.9 C 10.36 g/m*3 16.9 C 0 km/h
2240 21-06-2009 16:10:40 17.2 C 9.37 g/m*3 17.2 C 0 km/h
2241 21-06-2009 16:22:40 17.4 C 9.19 g/m*3 17.4 C 0 km/h
2242 21-06-2009 16:34:39 18.1 C 9.58 g/m*3 18.1 C 0 km/h
2243 21-06-2009 16:46:40 18 C 8.6 g/m*3 18 C 0 km/h
2244 21-06-2009 16:58:40 18 C 8.29 g/m*3 18 C 0 km/h
2245 21-06-2009 17:10:39 18.1 C 8.81 g/m*3 18.1 C 0 km/h
2246 21-06-2009 17:22:39 19 C 8.47 g/m*3 19 C 0 km/h
2247 21-06-2009 17:34:38 19.8 C 7.86 g/m*3 19.8 C 0 km/h
2248 21-06-2009 17:46:39 21.1 C 7.55 g/m*3 21.1 C 0 km/h
2249 21-06-2009 17:58:40 20.1 C 7.13 g/m*3 20.1 C 0 km/h
2250 21-06-2009 18:10:38 19.1 C 8.52 g/m*3 19.1 C 0 km/h
Sensor: Nr:Datum:Temp:Abs-Feuchte:Windchill:Wind:
Aussen-T/F 2251 21-06-2009 18:22:38 19.2 C 8.74 g/m*3 19.2 C 0 km/h
2252 21-06-2009 18:34:39 19.3 C 8.29 g/m*3 19.3 C 0 km/h
2253 21-06-2009 18:46:38 18.2 C 7.62 g/m*3 18.2 C 0 km/h
2254 21-06-2009 18:58:38 14.3 C 8.11 g/m*3 14.3 C 0 km/h
2255 21-06-2009 19:10:38 12.8 C 8.74 g/m*3 12.8 C 0 km/h
2256 21-06-2009 19:22:38 12.5 C 9.24 g/m*3 12.5 C 0 km/h
2257 21-06-2009 19:34:38 12.5 C 9.46 g/m*3 12.5 C 0 km/h
2258 21-06-2009 19:46:37 13.2 C 9.87 g/m*3 13.2 C 0 km/h
2259 21-06-2009 19:58:37 13.8 C 10.01 g/m*3 13.8 C 0 km/h
2260 21-06-2009 20:10:38 14.1 C 10.19 g/m*3 14.1 C 0 km/h
2261 21-06-2009 20:22:37 13.5 C 9.71 g/m*3 13.5 C 0 km/h
2262 21-06-2009 20:34:37 13.3 C 9.7 g/m*3 13.3 C 0 km/h
2263 21-06-2009 20:46:37 13.1 C 9.59 g/m*3 13.1 C 0 km/h
2264 21-06-2009 20:58:37 13.1 C 9.59 g/m*3 13.1 C 0 km/h
2265 21-06-2009 21:10:36 12.6 C 9.29 g/m*3 12.6 C 0 km/h
2266 21-06-2009 21:22:37 12.4 C 9.29 g/m*3 12.4 C 0 km/h
2267 21-06-2009 21:34:37 11.7 C 8.89 g/m*3 11.7 C 0 km/h
2268 21-06-2009 21:46:36 11.3 C 8.87 g/m*3 11.3 C 0 km/h
2269 21-06-2009 21:58:36 11.1 C 8.76 g/m*3 11.1 C 0 km/h
2270 21-06-2009 22:10:37 11.1 C 8.86 g/m*3 11.1 C 0 km/h
2271 21-06-2009 22:22:36 11 C 8.81 g/m*3 11 C 0 km/h
2272 21-06-2009 22:35:37 10.8 C 8.8 g/m*3 10.8 C 0 km/h
2273 21-06-2009 22:47:38 10.8 C 8.8 g/m*3 10.8 C 0 km/h
2274 21-06-2009 22:59:38 11 C 8.91 g/m*3 11 C 0 km/h
2275 21-06-2009 23:11:38 11.1 C 9.07 g/m*3 11.1 C 0 km/h
Sensor: Nr:Datum:Temp:Abs-Feuchte:Windchill:Wind:
Aussen-T/F 2276 21-06-2009 23:23:38 11.1 C 9.07 g/m*3 11.1 C 0 km/h
2277 21-06-2009 23:35:38 10.9 C 8.95 g/m*3 10.9 C 0 km/h
2278 21-06-2009 23:47:38 11 C 9.01 g/m*3 11 C 0 km/h
2279 21-06-2009 23:59:38 11.2 C 9.12 g/m*3 11.2 C 0 km/h
2280 22-06-2009 00:11:38 11.4 C 9.24 g/m*3 11.4 C 0 km/h
2281 22-06-2009 00:23:38 11.4 C 9.24 g/m*3 11.4 C 0 km/h
2282 22-06-2009 00:35:38 11.1 C 8.96 g/m*3 11.1 C 0 km/h
2283 22-06-2009 00:47:38 10.7 C 8.74 g/m*3 10.7 C 0 km/h
2284 22-06-2009 00:59:38 10.3 C 8.52 g/m*3 10.3 C 0 km/h
2285 22-06-2009 01:11:38 10 C 8.27 g/m*3 10 C 0 km/h
2286 22-06-2009 01:23:38 9.9 C 8.4 g/m*3 9.9 C 0 km/h
2287 22-06-2009 01:35:38 10 C 8.36 g/m*3 10 C 0 km/h
2288 22-06-2009 01:47:38 10.1 C 8.51 g/m*3 10.1 C 0 km/h
2289 22-06-2009 01:59:38 10.2 C 8.56 g/m*3 10.2 C 0 km/h
2290 22-06-2009 02:11:38 10.2 C 8.56 g/m*3 10.2 C 0 km/h
2291 22-06-2009 02:23:38 10 C 8.46 g/m*3 10 C 0 km/h
2292 22-06-2009 02:35:39 9.8 C 8.44 g/m*3 9.8 C 0 km/h
2293 22-06-2009 02:47:39 10 C 8.46 g/m*3 10 C 0 km/h
2294 22-06-2009 02:59:39 10.1 C 8.51 g/m*3 10.1 C 0 km/h
2295 22-06-2009 03:11:39 10.3 C 8.52 g/m*3 10.3 C 0 km/h
2296 22-06-2009 03:23:39 10.4 C 8.58 g/m*3 10.4 C 0 km/h
2297 22-06-2009 03:35:39 10.3 C 8.43 g/m*3 10.3 C 0 km/h
2298 22-06-2009 03:47:39 10.5 C 8.44 g/m*3 10.5 C 0 km/h
2299 22-06-2009 03:59:39 10.6 C 8.39 g/m*3 10.6 C 0 km/h
2300 22-06-2009 04:11:39 10.5 C 8.34 g/m*3 10.5 C 0 km/h
Sensor: Nr:Datum:Temp:Abs-Feuchte:Windchill:Wind:
Aussen-T/F 2301 22-06-2009 04:23:39 10.4 C 8.29 g/m*3 10.4 C 0 km/h
2302 22-06-2009 04:35:39 10.4 C 8.19 g/m*3 10.4 C 0 km/h
2303 22-06-2009 04:47:39 10.4 C 8.1 g/m*3 10.4 C 0 km/h
2304 22-06-2009 04:59:39 10.4 C 8.19 g/m*3 10.4 C 0 km/h
2305 22-06-2009 05:11:39 10.4 C 8.1 g/m*3 10.4 C 0 km/h
2306 22-06-2009 05:23:39 10.5 C 8.15 g/m*3 10.5 C 0 km/h
2307 22-06-2009 05:35:39 10.5 C 8.15 g/m*3 10.5 C 0 km/h
2308 22-06-2009 05:47:39 10.4 C 8.1 g/m*3 10.4 C 0 km/h
2309 22-06-2009 05:59:39 10.4 C 8.19 g/m*3 10.4 C 0 km/h
2310 22-06-2009 06:11:39 10.5 C 8.24 g/m*3 10.5 C 0 km/h
2311 22-06-2009 06:23:39 10.6 C 8.2 g/m*3 10.6 C 0 km/h
2312 22-06-2009 06:35:40 10.7 C 8.25 g/m*3 10.7 C 0 km/h
2313 22-06-2009 06:47:40 10.8 C 8.3 g/m*3 10.8 C 0 km/h
2314 22-06-2009 06:59:40 10.9 C 8.26 g/m*3 10.9 C 0 km/h
2315 22-06-2009 07:11:37 11 C 8.31 g/m*3 11 C 0 km/h
2316 22-06-2009 07:23:37 11.2 C 8.41 g/m*3 11.2 C 0 km/h
2317 22-06-2009 07:35:37 11.5 C 8.57 g/m*3 11.5 C 0 km/h
2318 22-06-2009 07:47:37 11.8 C 8.63 g/m*3 11.8 C 0 km/h
2319 22-06-2009 07:59:37 11.8 C 8.31 g/m*3 11.8 C 0 km/h
2320 22-06-2009 08:11:36 12.1 C 8.36 g/m*3 12.1 C 0 km/h
2321 22-06-2009 08:23:37 12.2 C 8.09 g/m*3 12.2 C 0 km/h
2322 22-06-2009 08:35:37 12.5 C 8.25 g/m*3 12.5 C 0 km/h
2323 22-06-2009 08:47:36 12.8 C 8.18 g/m*3 12.8 C 0 km/h
2324 22-06-2009 08:59:36 13.4 C 7.9 g/m*3 13.4 C 0 km/h
2325 22-06-2009 09:11:36 13.4 C 7.9 g/m*3 13.4 C 0 km/h
Sensor: Nr:Datum:Temp:Abs-Feuchte:Windchill:Wind:
Aussen-T/F 2326 22-06-2009 09:23:36 13.7 C 7.82 g/m*3 13.7 C 0 km/h
2327 22-06-2009 09:35:36 14 C 7.12 g/m*3 14 C 0 km/h
2328 22-06-2009 09:47:35 15 C 7.05 g/m*3 15 C 0 km/h
2329 22-06-2009 09:59:35 14.9 C 6.75 g/m*3 14.9 C 0 km/h
2330 22-06-2009 10:11:36 14.6 C 6.76 g/m*3 14.6 C 0 km/h
2331 22-06-2009 10:23:35 14.9 C 6.75 g/m*3 14.9 C 0 km/h
2332 22-06-2009 10:35:35 14.6 C 6.76 g/m*3 14.6 C 0 km/h
2333 22-06-2009 10:47:35 14.8 C 6.97 g/m*3 14.8 C 0 km/h
2334 22-06-2009 10:59:35 15.4 C 6.57 g/m*3 15.4 C 0 km/h
2335 22-06-2009 11:11:35 16 C 6.27 g/m*3 16 C 0 km/h
2336 22-06-2009 11:23:35 16.3 C 6.52 g/m*3 16.3 C 0 km/h
2337 22-06-2009 11:35:34 16.5 C 6.18 g/m*3 16.5 C 0 km/h
2338 22-06-2009 11:47:35 17.1 C 6.4 g/m*3 17.1 C 0 km/h
2339 22-06-2009 11:59:35 16.8 C 6.29 g/m*3 16.8 C 0 km/h
2340 22-06-2009 12:11:34 16.5 C 6.18 g/m*3 16.5 C 0 km/h
2341 22-06-2009 12:23:34 16.3 C 6.24 g/m*3 16.3 C 0 km/h
2342 22-06-2009 12:35:34 18.9 C 6.64 g/m*3 18.9 C 0 km/h
2343 22-06-2009 12:47:34 21.4 C 5.81 g/m*3 21.4 C 0 km/h
2344 22-06-2009 12:59:34 20.1 C 5.39 g/m*3 20.1 C 0 km/h
2345 22-06-2009 13:11:33 18 C 5.68 g/m*3 18 C 0 km/h
2346 22-06-2009 13:23:34 18 C 5.53 g/m*3 18 C 0 km/h
2347 22-06-2009 13:35:34 18.4 C 6.13 g/m*3 18.4 C 0 km/h
2348 22-06-2009 13:47:33 18.9 C 5.67 g/m*3 18.9 C 0 km/h
2349 22-06-2009 13:59:33 17.7 C 5.73 g/m*3 17.7 C 0 km/h
2350 22-06-2009 14:11:34 17.3 C 6.04 g/m*3 17.3 C 0 km/h
Sensor: Nr:Datum:Temp:Abs-Feuchte:Windchill:Wind:
Aussen-T/F 2351 22-06-2009 14:23:33 18.5 C 6.01 g/m*3 18.5 C 0 km/h
2352 22-06-2009 14:35:33 18.8 C 6.12 g/m*3 18.8 C 0 km/h
2353 22-06-2009 14:47:32 19 C 5.87 g/m*3 19 C 0 km/h
2354 22-06-2009 14:59:32 18.5 C 5.7 g/m*3 18.5 C 0 km/h
2355 22-06-2009 15:11:33 18 C 5.99 g/m*3 18 C 0 km/h
2356 22-06-2009 15:23:32 17.5 C 6.11 g/m*3 17.5 C 0 km/h
2357 22-06-2009 15:35:32 18.1 C 6.03 g/m*3 18.1 C 0 km/h
2358 22-06-2009 15:47:32 17.9 C 6.11 g/m*3 17.9 C 0 km/h
2359 22-06-2009 15:59:32 18.4 C 5.98 g/m*3 18.4 C 0 km/h
2360 22-06-2009 16:11:32 18.5 C 5.85 g/m*3 18.5 C 0 km/h
2361 22-06-2009 16:23:32 18.9 C 5.83 g/m*3 18.9 C 0 km/h
2362 22-06-2009 16:35:32 20.1 C 6.08 g/m*3 20.1 C 0 km/h
2363 22-06-2009 16:47:32 19.9 C 6.01 g/m*3 19.9 C 0 km/h
2364 22-06-2009 16:59:32 19.8 C 5.81 g/m*3 19.8 C 0 km/h
2365 22-06-2009 17:11:31 21.4 C 6 g/m*3 21.4 C 0 km/h
2366 22-06-2009 17:23:31 21.1 C 5.71 g/m*3 21.1 C 0 km/h
2367 22-06-2009 17:35:31 20.2 C 5.77 g/m*3 20.2 C 0 km/h
2368 22-06-2009 17:47:31 19.8 C 5.98 g/m*3 19.8 C 0 km/h
2369 22-06-2009 17:59:32 22.4 C 5.96 g/m*3 22.4 C 0 km/h
2370 22-06-2009 18:11:30 23.8 C 5.59 g/m*3 23.8 C 0 km/h
2371 22-06-2009 18:23:31 22.5 C 5.59 g/m*3 22.5 C 0 km/h
2372 22-06-2009 18:35:31 21.2 C 5.56 g/m*3 21.2 C 0 km/h
2373 22-06-2009 18:47:30 22.1 C 5.66 g/m*3 22.1 C 0 km/h
2374 22-06-2009 18:59:30 22.7 C 5.66 g/m*3 22.7 C 0 km/h
2375 22-06-2009 19:11:31 21.1 C 5.71 g/m*3 21.1 C 0 km/h
Sensor: Nr:Datum:Temp:Abs-Feuchte:Windchill:Wind:
Aussen-T/F 2376 22-06-2009 19:23:30 20.8 C 5.98 g/m*3 20.8 C 0 km/h
2377 22-06-2009 19:35:30 20.5 C 5.69 g/m*3 20.5 C 0 km/h
2378 22-06-2009 19:47:30 20.6 C 6.09 g/m*3 20.6 C 0 km/h
2379 22-06-2009 19:59:30 20.8 C 6.16 g/m*3 20.8 C 0 km/h
2380 22-06-2009 20:11:30 19.8 C 5.98 g/m*3 19.8 C 0 km/h
2381 22-06-2009 20:23:29 19.1 C 6.07 g/m*3 19.1 C 0 km/h
2382 22-06-2009 20:35:29 18.7 C 6.08 g/m*3 18.7 C 0 km/h
2383 22-06-2009 20:47:29 18.5 C 6.65 g/m*3 18.5 C 0 km/h
2384 22-06-2009 20:59:29 18.2 C 6.37 g/m*3 18.2 C 0 km/h
2385 22-06-2009 21:11:29 17.9 C 6.57 g/m*3 17.9 C 0 km/h
2386 22-06-2009 21:23:29 17.6 C 6.75 g/m*3 17.6 C 0 km/h
2387 22-06-2009 21:35:28 17.2 C 6.88 g/m*3 17.2 C 0 km/h
2388 22-06-2009 21:47:29 17 C 6.51 g/m*3 17 C 0 km/h
2389 22-06-2009 21:59:29 16.8 C 6.58 g/m*3 16.8 C 0 km/h
2390 22-06-2009 22:11:28 16.6 C 7.06 g/m*3 16.6 C 0 km/h
2391 22-06-2009 22:23:28 16.2 C 7.03 g/m*3 16.2 C 0 km/h
2392 22-06-2009 22:36:12 15.8 C 7.27 g/m*3 15.8 C 0 km/h
2393 22-06-2009 22:48:12 15.3 C 7.31 g/m*3 15.3 C 0 km/h
2394 22-06-2009 23:00:12 14.7 C 7.55 g/m*3 14.7 C 0 km/h
2395 22-06-2009 23:12:12 14.4 C 7.54 g/m*3 14.4 C 0 km/h
2396 22-06-2009 23:24:12 14 C 7.36 g/m*3 14 C 0 km/h
2397 22-06-2009 23:36:12 13.9 C 7.67 g/m*3 13.9 C 0 km/h
2398 22-06-2009 23:48:12 13.7 C 7.58 g/m*3 13.7 C 0 km/h
2399 23-06-2009 00:00:12 13.6 C 7.53 g/m*3 13.6 C 0 km/h
2400 23-06-2009 00:12:12 13.6 C 7.77 g/m*3 13.6 C 0 km/h
Sensor: Nr:Datum:Temp:Abs-Feuchte:Windchill:Wind:
Aussen-T/F 2401 23-06-2009 00:24:12 13.6 C 7.65 g/m*3 13.6 C 0 km/h
2402 23-06-2009 00:36:12 13.4 C 7.67 g/m*3 13.4 C 0 km/h
2403 23-06-2009 00:48:12 13.3 C 7.63 g/m*3 13.3 C 0 km/h
2404 23-06-2009 01:00:12 13.3 C 7.51 g/m*3 13.3 C 0 km/h
2405 23-06-2009 01:12:13 13.3 C 7.74 g/m*3 13.3 C 0 km/h
2406 23-06-2009 01:24:13 13.2 C 7.69 g/m*3 13.2 C 0 km/h
2407 23-06-2009 01:36:13 13.2 C 7.69 g/m*3 13.2 C 0 km/h
2408 23-06-2009 01:48:13 13 C 7.71 g/m*3 13 C 0 km/h
2409 23-06-2009 02:00:13 12.7 C 7.9 g/m*3 12.7 C 0 km/h
2410 23-06-2009 02:12:13 12.4 C 7.87 g/m*3 12.4 C 0 km/h
2411 23-06-2009 02:24:13 12.2 C 7.99 g/m*3 12.2 C 0 km/h
2412 23-06-2009 02:36:13 12.2 C 7.99 g/m*3 12.2 C 0 km/h
2413 23-06-2009 02:48:13 12.1 C 7.94 g/m*3 12.1 C 0 km/h
2414 23-06-2009 03:00:13 12 C 7.89 g/m*3 12 C 0 km/h
2415 23-06-2009 03:12:13 12 C 7.89 g/m*3 12 C 0 km/h
2416 23-06-2009 03:24:13 11.8 C 8 g/m*3 11.8 C 0 km/h
2417 23-06-2009 03:36:13 11.5 C 7.85 g/m*3 11.5 C 0 km/h
2418 23-06-2009 03:48:13 11.5 C 7.95 g/m*3 11.5 C 0 km/h
2419 23-06-2009 04:00:13 11.4 C 8.01 g/m*3 11.4 C 0 km/h
2420 23-06-2009 04:12:13 11.3 C 7.96 g/m*3 11.3 C 0 km/h
2421 23-06-2009 04:24:13 11.1 C 7.86 g/m*3 11.1 C 0 km/h
2422 23-06-2009 04:36:13 11.1 C 7.96 g/m*3 11.1 C 0 km/h
2423 23-06-2009 04:48:13 11 C 8.01 g/m*3 11 C 0 km/h
2424 23-06-2009 05:00:13 11.1 C 8.06 g/m*3 11.1 C 0 km/h
2425 23-06-2009 05:12:14 10.9 C 8.06 g/m*3 10.9 C 0 km/h
Sensor: Nr:Datum:Temp:Abs-Feuchte:Windchill:Wind:
Aussen-T/F 2426 23-06-2009 05:24:14 10.8 C 8.01 g/m*3 10.8 C 0 km/h
2427 23-06-2009 05:36:14 10.7 C 8.05 g/m*3 10.7 C 0 km/h
2428 23-06-2009 05:48:14 10.6 C 8 g/m*3 10.6 C 0 km/h
2429 23-06-2009 06:00:14 10.8 C 8.2 g/m*3 10.8 C 0 km/h
2430 23-06-2009 06:12:29 11.1 C 8.26 g/m*3 11.1 C 0 km/h
2431 23-06-2009 06:24:28 11.3 C 8.36 g/m*3 11.3 C 0 km/h
2432 23-06-2009 06:36:28 11.6 C 8.52 g/m*3 11.6 C 0 km/h
2433 23-06-2009 06:48:28 11.8 C 8.53 g/m*3 11.8 C 0 km/h
2434 23-06-2009 07:00:28 12.1 C 8.47 g/m*3 12.1 C 0 km/h
2435 23-06-2009 07:12:28 12.5 C 8.58 g/m*3 12.5 C 0 km/h
2436 23-06-2009 07:24:28 12.8 C 8.62 g/m*3 12.8 C 0 km/h
2437 23-06-2009 07:36:28 13 C 8.39 g/m*3 13 C 0 km/h
2438 23-06-2009 07:48:27 12.8 C 8.4 g/m*3 12.8 C 0 km/h
2439 23-06-2009 08:00:28 12.7 C 8.35 g/m*3 12.7 C 0 km/h
2440 23-06-2009 08:12:28 12.9 C 8.45 g/m*3 12.9 C 0 km/h
2441 23-06-2009 08:24:27 13.1 C 8.44 g/m*3 13.1 C 0 km/h
2442 23-06-2009 08:36:27 13.4 C 8.49 g/m*3 13.4 C 0 km/h
2443 23-06-2009 08:48:27 13.8 C 8.58 g/m*3 13.8 C 0 km/h
2444 23-06-2009 09:00:27 14 C 8.32 g/m*3 14 C 0 km/h
2445 23-06-2009 09:12:27 14.6 C 8.51 g/m*3 14.6 C 0 km/h
2446 23-06-2009 09:24:26 14.9 C 8.28 g/m*3 14.9 C 0 km/h
2447 23-06-2009 09:36:27 15.4 C 8.15 g/m*3 15.4 C 0 km/h
2448 23-06-2009 09:48:26 16.2 C 8.14 g/m*3 16.2 C 0 km/h
2449 23-06-2009 10:00:26 16.6 C 7.63 g/m*3 16.6 C 0 km/h
2450 23-06-2009 10:12:26 17.1 C 8.01 g/m*3 17.1 C 0 km/h
Sensor: Nr:Datum:Temp:Abs-Feuchte:Windchill:Wind:
Aussen-T/F 2451 23-06-2009 10:24:02 17.2 C 8.05 g/m*3 17.2 C 0 km/h
2452 23-06-2009 10:36:02 17.5 C 8.05 g/m*3 17.5 C 0 km/h
2453 23-06-2009 10:48:01 18 C 7.68 g/m*3 18 C 0 km/h
2454 23-06-2009 11:00:01 18.2 C 7.46 g/m*3 18.2 C 0 km/h
2455 23-06-2009 11:12:02 19.4 C 7.51 g/m*3 19.4 C 0 km/h
2456 23-06-2009 11:24:02 20.2 C 7.34 g/m*3 20.2 C 0 km/h
2457 23-06-2009 11:36:01 20.1 C 7.47 g/m*3 20.1 C 0 km/h
2458 23-06-2009 11:48:02 21.2 C 7.97 g/m*3 21.2 C 0 km/h
2459 23-06-2009 12:00:02 20.8 C 7.42 g/m*3 20.8 C 0 km/h
2460 23-06-2009 12:12:01 21.8 C 6.91 g/m*3 21.8 C 0 km/h
2461 23-06-2009 12:24:01 21.5 C 6.79 g/m*3 21.5 C 0 km/h
2462 23-06-2009 12:36:00 23.2 C 6.44 g/m*3 23.2 C 0 km/h
2463 23-06-2009 12:48:01 24.2 C 6.38 g/m*3 24.2 C 0 km/h
2464 23-06-2009 13:00:01 24 C 6.31 g/m*3 24 C 0 km/h
2465 23-06-2009 13:12:00 24.8 C 6.37 g/m*3 24.8 C 0 km/h
2466 23-06-2009 13:24:00 24.5 C 6.27 g/m*3 24.5 C 0 km/h
2467 23-06-2009 13:36:01 24.1 C 6.35 g/m*3 24.1 C 0 km/h
2468 23-06-2009 13:48:00 24.9 C 6.18 g/m*3 24.9 C 0 km/h
2469 23-06-2009 14:00:00 23.8 C 5.81 g/m*3 23.8 C 0 km/h
2470 23-06-2009 14:12:00 24.4 C 5.79 g/m*3 24.4 C 0 km/h
2471 23-06-2009 14:24:00 24.3 C 5.97 g/m*3 24.3 C 0 km/h
2472 23-06-2009 14:36:00 25.2 C 6.05 g/m*3 25.2 C 0 km/h
2473 23-06-2009 14:48:59 24.7 C 5.66 g/m*3 24.7 C 0 km/h
2474 23-06-2009 14:59:59 24.6 C 5.63 g/m*3 24.6 C 0 km/h
2475 23-06-2009 15:12:00 24.6 C 5.63 g/m*3 24.6 C 0 km/h
Sensor: Nr:Datum:Temp:Abs-Feuchte:Windchill:Wind:
Aussen-T/F 2476 23-06-2009 15:24:59 25.1 C 5.79 g/m*3 25.1 C 0 km/h
2477 23-06-2009 15:36:59 26.6 C 5.54 g/m*3 26.6 C 0 km/h
2478 23-06-2009 15:48:58 25.6 C 5.71 g/m*3 25.6 C 0 km/h
2479 23-06-2009 16:00:59 25.9 C 5.08 g/m*3 25.9 C 0 km/h
2480 23-06-2009 16:12:59 26.8 C 5.6 g/m*3 26.8 C 0 km/h
2481 23-06-2009 16:24:59 27.4 C 5.26 g/m*3 27.4 C 0 km/h
2482 23-06-2009 16:36:58 25.8 C 5.54 g/m*3 25.8 C 0 km/h
2483 23-06-2009 16:48:59 26 C 5.84 g/m*3 26 C 0 km/h
2484 23-06-2009 17:00:58 25.2 C 5.35 g/m*3 25.2 C 0 km/h
2485 23-06-2009 17:12:58 24.7 C 5.66 g/m*3 24.7 C 0 km/h
2486 23-06-2009 17:24:58 24.8 C 5.69 g/m*3 24.8 C 0 km/h
2487 23-06-2009 17:36:57 24.5 C 5.37 g/m*3 24.5 C 0 km/h
2488 23-06-2009 17:48:58 24.7 C 5.66 g/m*3 24.7 C 0 km/h
2489 23-06-2009 18:00:58 27.3 C 5.49 g/m*3 27.3 C 0 km/h
2490 23-06-2009 18:12:58 27.2 C 5.46 g/m*3 27.2 C 0 km/h
2491 23-06-2009 18:24:57 28.1 C 5.47 g/m*3 28.1 C 0 km/h
2492 23-06-2009 18:36:58 29.5 C 5.9 g/m*3 29.5 C 0 km/h
2493 23-06-2009 18:48:57 28.3 C 5.53 g/m*3 28.3 C 0 km/h
2494 23-06-2009 19:00:57 26.2 C 5.17 g/m*3 26.2 C 0 km/h
2495 23-06-2009 19:12:57 25.1 C 5.56 g/m*3 25.1 C 0 km/h
2496 23-06-2009 19:24:57 24.4 C 5.56 g/m*3 24.4 C 0 km/h
2497 23-06-2009 19:36:57 24.5 C 5.6 g/m*3 24.5 C 0 km/h
2498 23-06-2009 19:48:56 23.9 C 5.62 g/m*3 23.9 C 0 km/h
2499 23-06-2009 20:00:56 23.5 C 5.71 g/m*3 23.5 C 0 km/h
2500 23-06-2009 20:12:56 23.7 C 5.78 g/m*3 23.7 C 0 km/h
Sensor: Nr:Datum:Temp:Abs-Feuchte:Windchill:Wind:
Aussen-T/F 2501 23-06-2009 20:24:57 24.4 C 5.79 g/m*3 24.4 C 0 km/h
2502 23-06-2009 20:36:56 24.1 C 5.69 g/m*3 24.1 C 0 km/h
2503 23-06-2009 20:48:56 23.5 C 6.13 g/m*3 23.5 C 0 km/h
2504 23-06-2009 21:00:56 22.9 C 6.34 g/m*3 22.9 C 0 km/h
2505 23-06-2009 21:12:56 22.3 C 6.91 g/m*3 22.3 C 0 km/h
2506 23-06-2009 21:24:56 21.6 C 7.21 g/m*3 21.6 C 0 km/h
2507 23-06-2009 21:36:56 20.9 C 7.29 g/m*3 20.9 C 0 km/h
2508 23-06-2009 21:48:55 20.4 C 7.25 g/m*3 20.4 C 0 km/h
2509 23-06-2009 22:00:56 19.8 C 7.17 g/m*3 19.8 C 0 km/h
2510 23-06-2009 22:12:56 19.5 C 7.22 g/m*3 19.5 C 0 km/h
2511 23-06-2009 22:25:57 19.5 C 7.38 g/m*3 19.5 C 0 km/h
2512 23-06-2009 22:37:57 19.2 C 7.42 g/m*3 19.2 C 0 km/h
2513 23-06-2009 22:49:57 18.9 C 7.45 g/m*3 18.9 C 0 km/h
2514 23-06-2009 23:01:57 18.7 C 7.68 g/m*3 18.7 C 0 km/h
2515 23-06-2009 23:13:57 18.6 C 7.64 g/m*3 18.6 C 0 km/h
2516 23-06-2009 23:25:57 18.6 C 7.64 g/m*3 18.6 C 0 km/h
2517 23-06-2009 23:37:57 18.5 C 7.91 g/m*3 18.5 C 0 km/h
2518 23-06-2009 23:49:57 18.5 C 7.75 g/m*3 18.5 C 0 km/h
2519 24-06-2009 00:01:57 18.4 C 7.86 g/m*3 18.4 C 0 km/h
2520 24-06-2009 00:13:57 18.3 C 7.97 g/m*3 18.3 C 0 km/h
2521 24-06-2009 00:25:57 18.1 C 7.88 g/m*3 18.1 C 0 km/h
2522 24-06-2009 00:37:57 18.1 C 7.88 g/m*3 18.1 C 0 km/h
2523 24-06-2009 00:49:57 17.8 C 7.89 g/m*3 17.8 C 0 km/h
2524 24-06-2009 01:01:57 17.6 C 8.1 g/m*3 17.6 C 0 km/h
2525 24-06-2009 01:13:57 17.5 C 7.9 g/m*3 17.5 C 0 km/h
Sensor: Nr:Datum:Temp:Abs-Feuchte:Windchill:Wind:
Aussen-T/F 2526 24-06-2009 01:25:57 17.5 C 7.9 g/m*3 17.5 C 0 km/h
2527 24-06-2009 01:37:57 17.3 C 7.96 g/m*3 17.3 C 0 km/h
2528 24-06-2009 01:49:57 17 C 7.67 g/m*3 17 C 0 km/h
2529 24-06-2009 02:01:57 17 C 7.67 g/m*3 17 C 0 km/h
2530 24-06-2009 02:13:57 16.9 C 7.91 g/m*3 16.9 C 0 km/h
2531 24-06-2009 02:25:58 16.4 C 7.68 g/m*3 16.4 C 0 km/h
2532 24-06-2009 02:37:58 16.3 C 7.63 g/m*3 16.3 C 0 km/h
2533 24-06-2009 02:49:58 16.1 C 7.54 g/m*3 16.1 C 0 km/h
2534 24-06-2009 03:01:58 15.7 C 7.63 g/m*3 15.7 C 0 km/h
2535 24-06-2009 03:13:58 15.5 C 7.67 g/m*3 15.5 C 0 km/h
2536 24-06-2009 03:25:58 15.3 C 7.57 g/m*3 15.3 C 0 km/h
2537 24-06-2009 03:37:58 15 C 7.57 g/m*3 15 C 0 km/h
2538 24-06-2009 03:49:58 14.8 C 7.73 g/m*3 14.8 C 0 km/h
2539 24-06-2009 04:01:58 14.7 C 7.68 g/m*3 14.7 C 0 km/h
2540 24-06-2009 04:13:58 14.4 C 7.66 g/m*3 14.4 C 0 km/h
2541 24-06-2009 04:25:58 14.4 C 7.66 g/m*3 14.4 C 0 km/h
2542 24-06-2009 04:37:58 14.3 C 7.62 g/m*3 14.3 C 0 km/h
2543 24-06-2009 04:49:58 14.4 C 7.54 g/m*3 14.4 C 0 km/h
2544 24-06-2009 05:01:58 14.1 C 7.4 g/m*3 14.1 C 0 km/h
2545 24-06-2009 05:13:58 13.8 C 7.39 g/m*3 13.8 C 0 km/h
2546 24-06-2009 05:25:58 13.7 C 7.34 g/m*3 13.7 C 0 km/h
2547 24-06-2009 05:37:58 13.6 C 7.53 g/m*3 13.6 C 0 km/h
2548 24-06-2009 05:49:58 13.6 C 7.3 g/m*3 13.6 C 0 km/h
2549 24-06-2009 06:01:58 13.5 C 7.25 g/m*3 13.5 C 0 km/h
2550 24-06-2009 06:13:59 13.6 C 7.3 g/m*3 13.6 C 0 km/h
Sensor: Nr:Datum:Temp:Abs-Feuchte:Windchill:Wind:
Aussen-T/F 2551 24-06-2009 06:25:59 13.6 C 7.3 g/m*3 13.6 C 0 km/h
2552 24-06-2009 06:37:59 13.6 C 7.53 g/m*3 13.6 C 0 km/h
2553 24-06-2009 06:49:59 13.5 C 7.49 g/m*3 13.5 C 0 km/h
2554 24-06-2009 07:01:56 13.7 C 7.58 g/m*3 13.7 C 0 km/h
2555 24-06-2009 07:13:56 13.7 C 7.46 g/m*3 13.7 C 0 km/h
2556 24-06-2009 07:25:56 13.9 C 7.55 g/m*3 13.9 C 0 km/h
2557 24-06-2009 07:37:56 14.1 C 7.4 g/m*3 14.1 C 0 km/h
2558 24-06-2009 07:49:56 14.2 C 7.45 g/m*3 14.2 C 0 km/h
2559 24-06-2009 08:01:56 14.6 C 7.51 g/m*3 14.6 C 0 km/h
2560 24-06-2009 08:13:56 14.8 C 7.47 g/m*3 14.8 C 0 km/h
2561 24-06-2009 08:25:56 15.2 C 7.53 g/m*3 15.2 C 0 km/h
2562 24-06-2009 08:37:56 15.4 C 7.62 g/m*3 15.4 C 0 km/h
2563 24-06-2009 08:49:55 16 C 7.77 g/m*3 16 C 0 km/h
2564 24-06-2009 09:01:56 16.6 C 7.2 g/m*3 16.6 C 0 km/h
2565 24-06-2009 09:13:56 17.3 C 7.51 g/m*3 17.3 C 0 km/h
2566 24-06-2009 09:25:55 17.8 C 7.29 g/m*3 17.8 C 0 km/h
2567 24-06-2009 09:37:55 18.3 C 7.19 g/m*3 18.3 C 0 km/h
2568 24-06-2009 09:49:54 18.8 C 7.25 g/m*3 18.8 C 0 km/h
2569 24-06-2009 10:01:55 19.4 C 6.84 g/m*3 19.4 C 0 km/h
2570 24-06-2009 10:13:55 20.4 C 7.25 g/m*3 20.4 C 0 km/h
2571 24-06-2009 10:25:54 21.1 C 6.82 g/m*3 21.1 C 0 km/h
2572 24-06-2009 10:37:54 21.5 C 6.22 g/m*3 21.5 C 0 km/h
2573 24-06-2009 10:49:54 22 C 6.02 g/m*3 22 C 0 km/h
2574 24-06-2009 11:01:54 22.4 C 5.96 g/m*3 22.4 C 0 km/h
2575 24-06-2009 11:13:54 22.8 C 6.1 g/m*3 22.8 C 0 km/h
Sensor: Nr:Datum:Temp:Abs-Feuchte:Windchill:Wind:
Aussen-T/F 2576 24-06-2009 11:25:54 23.2 C 6.24 g/m*3 23.2 C 0 km/h
2577 24-06-2009 11:37:54 23.8 C 6.02 g/m*3 23.8 C 0 km/h
2578 24-06-2009 11:49:54 24.6 C 5.63 g/m*3 24.6 C 0 km/h
2579 24-06-2009 12:01:53 25.6 C 6.19 g/m*3 25.6 C 0 km/h
2580 24-06-2009 12:13:53 26 C 5.6 g/m*3 26 C 0 km/h
2581 24-06-2009 12:25:54 26.4 C 5.97 g/m*3 26.4 C 0 km/h
2582 24-06-2009 12:37:53 27.2 C 5.46 g/m*3 27.2 C 0 km/h
2583 24-06-2009 12:49:53 27.7 C 5.62 g/m*3 27.7 C 0 km/h
2584 24-06-2009 13:01:52 28.5 C 5.59 g/m*3 28.5 C 0 km/h
2585 24-06-2009 13:13:52 29 C 5.74 g/m*3 29 C 0 km/h
2586 24-06-2009 13:25:53 29.5 C 5.9 g/m*3 29.5 C 0 km/h
2587 24-06-2009 13:37:53 29.8 C 6 g/m*3 29.8 C 0 km/h
2588 24-06-2009 13:49:52 29.7 C 5.97 g/m*3 29.7 C 0 km/h
2589 24-06-2009 14:01:53 29.5 C 5.9 g/m*3 29.5 C 0 km/h
2590 24-06-2009 14:13:53 28.6 C 5.62 g/m*3 28.6 C 0 km/h
2591 24-06-2009 14:25:52 28.1 C 5.74 g/m*3 28.1 C 0 km/h
2592 24-06-2009 14:37:52 28.5 C 6.43 g/m*3 28.5 C 0 km/h
2593 24-06-2009 14:49:52 28.8 C 5.97 g/m*3 28.8 C 0 km/h
2594 24-06-2009 15:01:52 29.4 C 5.87 g/m*3 29.4 C 0 km/h
2595 24-06-2009 15:13:52 29.9 C 6.03 g/m*3 29.9 C 0 km/h
2596 24-06-2009 15:25:51 30.3 C 6.16 g/m*3 30.3 C 0 km/h
2597 24-06-2009 15:37:51 30.1 C 6.1 g/m*3 30.1 C 0 km/h
2598 24-06-2009 15:49:52 30.4 C 6.2 g/m*3 30.4 C 0 km/h
2599 24-06-2009 16:01:51 30.6 C 6.26 g/m*3 30.6 C 0 km/h
2600 24-06-2009 16:13:51 30.9 C 6.37 g/m*3 30.9 C 0 km/h
Sensor: Nr:Datum:Temp:Abs-Feuchte:Windchill:Wind:
Aussen-T/F 2601 24-06-2009 16:25:51 31.2 C 6.47 g/m*3 31.2 C 0 km/h
2602 24-06-2009 16:37:51 31.2 C 6.47 g/m*3 31.2 C 0 km/h
2603 24-06-2009 16:49:51 31.3 C 6.5 g/m*3 31.3 C 0 km/h
2604 24-06-2009 17:01:50 31.7 C 6.64 g/m*3 31.7 C 0 km/h
2605 24-06-2009 17:13:50 31.8 C 6.68 g/m*3 31.8 C 0 km/h
2606 24-06-2009 17:25:51 31.7 C 6.64 g/m*3 31.7 C 0 km/h
2607 24-06-2009 17:37:51 32.3 C 6.86 g/m*3 32.3 C 0 km/h
2608 24-06-2009 17:49:50 31.9 C 6.72 g/m*3 31.9 C 0 km/h
2609 24-06-2009 18:01:50 32.1 C 6.79 g/m*3 32.1 C 0 km/h
2610 24-06-2009 18:13:50 32.1 C 6.79 g/m*3 32.1 C 0 km/h
2611 24-06-2009 18:25:50 31.7 C 6.64 g/m*3 31.7 C 0 km/h
2612 24-06-2009 18:37:50 31.2 C 6.47 g/m*3 31.2 C 0 km/h
2613 24-06-2009 18:49:49 30.5 C 6.23 g/m*3 30.5 C 0 km/h
2614 24-06-2009 19:01:50 30 C 6.67 g/m*3 30 C 0 km/h
2615 24-06-2009 19:13:51 29 C 6.89 g/m*3 29 C 0 km/h
2616 24-06-2009 19:25:49 30.7 C 6.3 g/m*3 30.7 C 0 km/h
2617 24-06-2009 19:37:49 30.2 C 6.44 g/m*3 30.2 C 0 km/h
2618 24-06-2009 19:49:49 28.6 C 7.31 g/m*3 28.6 C 0 km/h
2619 24-06-2009 20:01:49 28.3 C 7.74 g/m*3 28.3 C 0 km/h
2620 24-06-2009 20:13:49 27.3 C 7.85 g/m*3 27.3 C 0 km/h
2621 24-06-2009 20:25:49 26.5 C 7.76 g/m*3 26.5 C 0 km/h
2622 24-06-2009 20:37:48 25.8 C 7.7 g/m*3 25.8 C 0 km/h
2623 24-06-2009 20:49:49 24.9 C 8.01 g/m*3 24.9 C 0 km/h
2624 24-06-2009 21:01:48 24.4 C 7.79 g/m*3 24.4 C 0 km/h
2625 24-06-2009 21:13:48 24 C 7.83 g/m*3 24 C 0 km/h
Sensor: Nr:Datum:Temp:Abs-Feuchte:Windchill:Wind:
Aussen-T/F 2626 24-06-2009 21:25:48 23.7 C 7.91 g/m*3 23.7 C 0 km/h
2627 24-06-2009 21:37:48 23.7 C 8.13 g/m*3 23.7 C 0 km/h
2628 24-06-2009 21:49:48 23.8 C 8.39 g/m*3 23.8 C 0 km/h
2629 24-06-2009 22:02:01 23.6 C 8.29 g/m*3 23.6 C 0 km/h
2630 24-06-2009 22:14:01 23.5 C 8.46 g/m*3 23.5 C 0 km/h
2631 24-06-2009 22:26:01 23.3 C 8.15 g/m*3 23.3 C 0 km/h
2632 24-06-2009 22:38:01 23.3 C 8.15 g/m*3 23.3 C 0 km/h
2633 24-06-2009 22:50:01 23.1 C 7.86 g/m*3 23.1 C 0 km/h
2634 24-06-2009 23:02:02 22.7 C 8.08 g/m*3 22.7 C 0 km/h
2635 24-06-2009 23:14:02 22.5 C 8.19 g/m*3 22.5 C 0 km/h
2636 24-06-2009 23:26:02 22.4 C 8.14 g/m*3 22.4 C 0 km/h
2637 24-06-2009 23:38:02 21.9 C 8.49 g/m*3 21.9 C 0 km/h
2638 24-06-2009 23:50:02 21.6 C 8.35 g/m*3 21.6 C 0 km/h
2639 25-06-2009 00:02:02 21.4 C 8.44 g/m*3 21.4 C 0 km/h
2640 25-06-2009 00:14:02 21.3 C 8.39 g/m*3 21.3 C 0 km/h
2641 25-06-2009 00:26:02 21.5 C 8.67 g/m*3 21.5 C 0 km/h
2642 25-06-2009 00:38:02 21.4 C 8.81 g/m*3 21.4 C 0 km/h
2643 25-06-2009 00:50:02 20.9 C 9.11 g/m*3 20.9 C 0 km/h
2644 25-06-2009 01:02:02 20.7 C 9 g/m*3 20.7 C 0 km/h
2645 25-06-2009 01:14:02 20.6 C 8.95 g/m*3 20.6 C 0 km/h
2646 25-06-2009 01:26:02 20.2 C 8.74 g/m*3 20.2 C 0 km/h
2647 25-06-2009 01:38:02 19.7 C 8.83 g/m*3 19.7 C 0 km/h
2648 25-06-2009 01:50:02 19.3 C 8.79 g/m*3 19.3 C 0 km/h
2649 25-06-2009 02:02:02 19.1 C 9.02 g/m*3 19.1 C 0 km/h
2650 25-06-2009 02:14:02 18.8 C 9.18 g/m*3 18.8 C 0 km/h
Sensor: Nr:Datum:Temp:Abs-Feuchte:Windchill:Wind:
Aussen-T/F 2651 25-06-2009 02:26:02 18.7 C 9.13 g/m*3 18.7 C 0 km/h
2652 25-06-2009 02:38:02 18.5 C 9.02 g/m*3 18.5 C 0 km/h
2653 25-06-2009 02:50:02 18.2 C 9.01 g/m*3 18.2 C 0 km/h
2654 25-06-2009 03:02:03 18.1 C 9.12 g/m*3 18.1 C 0 km/h
2655 25-06-2009 03:14:03 17.9 C 9.31 g/m*3 17.9 C 0 km/h
2656 25-06-2009 03:26:03 17.7 C 9.35 g/m*3 17.7 C 0 km/h
2657 25-06-2009 03:38:03 17.4 C 9.34 g/m*3 17.4 C 0 km/h
2658 25-06-2009 03:50:03 17.1 C 9.61 g/m*3 17.1 C 0 km/h
2659 25-06-2009 04:02:03 16.7 C 9.52 g/m*3 16.7 C 0 km/h
2660 25-06-2009 04:14:03 16.7 C 9.38 g/m*3 16.7 C 0 km/h
2661 25-06-2009 04:26:03 16.7 C 9.38 g/m*3 16.7 C 0 km/h
2662 25-06-2009 04:38:03 16.5 C 9.13 g/m*3 16.5 C 0 km/h
2663 25-06-2009 04:50:03 16.4 C 9.07 g/m*3 16.4 C 0 km/h
2664 25-06-2009 05:02:03 16.3 C 9.16 g/m*3 16.3 C 0 km/h
2665 25-06-2009 05:14:03 16.1 C 9.05 g/m*3 16.1 C 0 km/h
2666 25-06-2009 05:26:03 15.9 C 9.21 g/m*3 15.9 C 0 km/h
2667 25-06-2009 05:38:03 15.9 C 9.21 g/m*3 15.9 C 0 km/h
2668 25-06-2009 05:50:03 16 C 8.99 g/m*3 16 C 0 km/h
2669 25-06-2009 06:02:03 16.1 C 9.05 g/m*3 16.1 C 0 km/h
2670 25-06-2009 06:14:03 16.1 C 9.18 g/m*3 16.1 C 0 km/h
2671 25-06-2009 06:26:01 16.1 C 9.32 g/m*3 16.1 C 0 km/h
2672 25-06-2009 06:38:02 16.2 C 9.38 g/m*3 16.2 C 0 km/h
2673 25-06-2009 06:50:01 16.1 C 9.46 g/m*3 16.1 C 0 km/h
2674 25-06-2009 07:02:01 16.3 C 9.57 g/m*3 16.3 C 0 km/h
2675 25-06-2009 07:14:01 16.4 C 9.63 g/m*3 16.4 C 0 km/h
Sensor: Nr:Datum:Temp:Abs-Feuchte:Windchill:Wind:
Aussen-T/F 2676 25-06-2009 07:26:01 16.6 C 9.61 g/m*3 16.6 C 0 km/h
2677 25-06-2009 07:38:00 16.6 C 9.46 g/m*3 16.6 C 0 km/h
2678 25-06-2009 07:50:01 16.9 C 9.64 g/m*3 16.9 C 0 km/h
2679 25-06-2009 08:02:01 17.3 C 9.87 g/m*3 17.3 C 0 km/h
2680 25-06-2009 08:14:01 17.7 C 9.81 g/m*3 17.7 C 0 km/h
2681 25-06-2009 08:26:00 18 C 9.83 g/m*3 18 C 0 km/h
2682 25-06-2009 08:38:00 18.5 C 9.81 g/m*3 18.5 C 0 km/h
2683 25-06-2009 08:50:00 19.2 C 9.07 g/m*3 19.2 C 0 km/h
2684 25-06-2009 09:02:00 19.7 C 9.34 g/m*3 19.7 C 0 km/h
2685 25-06-2009 09:14:00 20.3 C 9.15 g/m*3 20.3 C 0 km/h
2686 25-06-2009 09:26:59 20.8 C 9.23 g/m*3 20.8 C 0 km/h
2687 25-06-2009 09:38:00 21.4 C 9.37 g/m*3 21.4 C 0 km/h
2688 25-06-2009 09:50:59 21.7 C 8.97 g/m*3 21.7 C 0 km/h
2689 25-06-2009 10:02:59 22 C 8.73 g/m*3 22 C 0 km/h
2690 25-06-2009 10:14:00 23 C 9.25 g/m*3 23 C 0 km/h
2691 25-06-2009 10:26:00 23.5 C 9.09 g/m*3 23.5 C 0 km/h
2692 25-06-2009 10:38:59 23.8 C 9.25 g/m*3 23.8 C 0 km/h
2693 25-06-2009 10:50:59 24.4 C 9.12 g/m*3 24.4 C 0 km/h
2694 25-06-2009 11:02:59 24.8 C 9.1 g/m*3 24.8 C 0 km/h
2695 25-06-2009 11:14:59 26.1 C 9.06 g/m*3 26.1 C 0 km/h
2696 25-06-2009 11:26:59 26.2 C 8.37 g/m*3 26.2 C 0 km/h
2697 25-06-2009 11:38:58 26.3 C 9.16 g/m*3 26.3 C 0 km/h
2698 25-06-2009 11:50:59 26.9 C 8.7 g/m*3 26.9 C 0 km/h
2699 25-06-2009 12:02:58 26.8 C 8.91 g/m*3 26.8 C 0 km/h
2700 25-06-2009 12:14:58 27.9 C 8.65 g/m*3 27.9 C 0 km/h
Sensor: Nr:Datum:Temp:Abs-Feuchte:Windchill:Wind:
Aussen-T/F 2701 25-06-2009 12:26:58 28.4 C 8.34 g/m*3 28.4 C 0 km/h
2702 25-06-2009 12:38:58 28.8 C 8.81 g/m*3 28.8 C 0 km/h
2703 25-06-2009 12:50:58 30.1 C 8.54 g/m*3 30.1 C 0 km/h
2704 25-06-2009 13:02:57 30.3 C 8.32 g/m*3 30.3 C 0 km/h
2705 25-06-2009 13:14:57 31 C 8 g/m*3 31 C 0 km/h
2706 25-06-2009 13:26:57 30 C 8.19 g/m*3 30 C 0 km/h
2707 25-06-2009 13:38:58 30.7 C 7.87 g/m*3 30.7 C 0 km/h
2708 25-06-2009 13:50:57 30.2 C 8.28 g/m*3 30.2 C 0 km/h
2709 25-06-2009 14:02:57 29.7 C 8.65 g/m*3 29.7 C 0 km/h
2710 25-06-2009 14:14:57 30.6 C 7.83 g/m*3 30.6 C 0 km/h
2711 25-06-2009 14:26:57 30.4 C 8.37 g/m*3 30.4 C 0 km/h
2712 25-06-2009 14:38:57 30.4 C 8.37 g/m*3 30.4 C 0 km/h
2713 25-06-2009 14:50:56 31.1 C 8.04 g/m*3 31.1 C 0 km/h
2714 25-06-2009 15:02:57 31.3 C 7.81 g/m*3 31.3 C 0 km/h
2715 25-06-2009 15:14:56 30.9 C 8.28 g/m*3 30.9 C 0 km/h
2716 25-06-2009 15:26:56 31.2 C 8.09 g/m*3 31.2 C 0 km/h
2717 25-06-2009 15:38:56 31.9 C 7.39 g/m*3 31.9 C 0 km/h
2718 25-06-2009 15:50:56 31.9 C 7.05 g/m*3 31.9 C 0 km/h
2719 25-06-2009 16:02:56 31.5 C 8.22 g/m*3 31.5 C 0 km/h
2720 25-06-2009 16:14:56 31.8 C 7.35 g/m*3 31.8 C 0 km/h
2721 25-06-2009 16:26:56 31.8 C 7.01 g/m*3 31.8 C 0 km/h
2722 25-06-2009 16:38:55 31.7 C 7.31 g/m*3 31.7 C 0 km/h
2723 25-06-2009 16:50:56 32.3 C 6.86 g/m*3 32.3 C 0 km/h
2724 25-06-2009 17:02:55 32.5 C 6.93 g/m*3 32.5 C 0 km/h
2725 25-06-2009 17:14:55 32.5 C 6.93 g/m*3 32.5 C 0 km/h
Sensor: Nr:Datum:Temp:Abs-Feuchte:Windchill:Wind:
Aussen-T/F 2726 25-06-2009 17:26:55 32.4 C 6.9 g/m*3 32.4 C 0 km/h
2727 25-06-2009 17:38:55 32.7 C 7.01 g/m*3 32.7 C 0 km/h
2728 25-06-2009 17:50:55 32.6 C 6.97 g/m*3 32.6 C 0 km/h
2729 25-06-2009 18:02:54 32.3 C 6.86 g/m*3 32.3 C 0 km/h
2730 25-06-2009 18:14:55 31.7 C 6.64 g/m*3 31.7 C 0 km/h
2731 25-06-2009 18:26:55 31.3 C 8.13 g/m*3 31.3 C 0 km/h
2732 25-06-2009 18:38:55 30.8 C 8.55 g/m*3 30.8 C 0 km/h
2733 25-06-2009 18:50:54 29.9 C 9.05 g/m*3 29.9 C 0 km/h
2734 25-06-2009 19:02:55 29.2 C 9 g/m*3 29.2 C 0 km/h
2735 25-06-2009 19:14:54 27.9 C 9.47 g/m*3 27.9 C 0 km/h
2736 25-06-2009 19:26:54 28 C 9.79 g/m*3 28 C 0 km/h
2737 25-06-2009 19:38:54 30 C 9.4 g/m*3 30 C 0 km/h
2738 25-06-2009 19:50:54 30.6 C 9.08 g/m*3 30.6 C 0 km/h
2739 25-06-2009 20:02:54 31 C 8.64 g/m*3 31 C 0 km/h
2740 25-06-2009 20:14:53 30.7 C 8.5 g/m*3 30.7 C 0 km/h
2741 25-06-2009 20:26:53 30.2 C 9.5 g/m*3 30.2 C 0 km/h
2742 25-06-2009 20:38:53 28.8 C 9.94 g/m*3 28.8 C 0 km/h
2743 25-06-2009 20:50:53 27.5 C 10.32 g/m*3 27.5 C 0 km/h
2744 25-06-2009 21:02:53 26.5 C 10.26 g/m*3 26.5 C 0 km/h
2745 25-06-2009 21:14:53 25.4 C 10.36 g/m*3 25.4 C 0 km/h
2746 25-06-2009 21:26:53 25.2 C 10.48 g/m*3 25.2 C 0 km/h
2747 25-06-2009 21:38:52 24.9 C 10.53 g/m*3 24.9 C 0 km/h
2748 25-06-2009 21:50:53 24.7 C 10.64 g/m*3 24.7 C 0 km/h
2749 25-06-2009 22:02:52 24.4 C 10.68 g/m*3 24.4 C 0 km/h
2750 25-06-2009 22:14:52 24.3 C 11.06 g/m*3 24.3 C 0 km/h
Sensor: Nr:Datum:Temp:Abs-Feuchte:Windchill:Wind:
Aussen-T/F 2751 25-06-2009 22:26:52 23.9 C 11.25 g/m*3 23.9 C 0 km/h
2752 25-06-2009 22:38:53 23.9 C 10.82 g/m*3 23.9 C 0 km/h
2753 25-06-2009 22:51:54 23.7 C 10.27 g/m*3 23.7 C 0 km/h
2754 25-06-2009 23:03:54 23.4 C 9.88 g/m*3 23.4 C 0 km/h
2755 25-06-2009 23:15:54 23.1 C 10.13 g/m*3 23.1 C 0 km/h
2756 25-06-2009 23:27:54 22.8 C 9.96 g/m*3 22.8 C 0 km/h
2757 25-06-2009 23:39:54 22.4 C 10.13 g/m*3 22.4 C 0 km/h
2758 25-06-2009 23:51:54 22.1 C 10.15 g/m*3 22.1 C 0 km/h
2759 26-06-2009 00:03:54 21.8 C 10.17 g/m*3 21.8 C 0 km/h
2760 26-06-2009 00:15:54 21.7 C 10.11 g/m*3 21.7 C 0 km/h
2761 26-06-2009 00:27:54 21.4 C 10.31 g/m*3 21.4 C 0 km/h
2762 26-06-2009 00:39:54 21.1 C 10.32 g/m*3 21.1 C 0 km/h
2763 26-06-2009 00:51:54 20.9 C 10.56 g/m*3 20.9 C 0 km/h
2764 26-06-2009 01:03:54 20.8 C 10.5 g/m*3 20.8 C 0 km/h
2765 26-06-2009 01:15:54 20.6 C 10.56 g/m*3 20.6 C 0 km/h
2766 26-06-2009 01:27:54 20.5 C 10.5 g/m*3 20.5 C 0 km/h
2767 26-06-2009 01:39:55 20.5 C 10.5 g/m*3 20.5 C 0 km/h
2768 26-06-2009 01:51:55 20.2 C 10.49 g/m*3 20.2 C 0 km/h
2769 26-06-2009 02:03:55 19.7 C 10.7 g/m*3 19.7 C 0 km/h
2770 26-06-2009 02:15:55 19.3 C 10.62 g/m*3 19.3 C 0 km/h
2771 26-06-2009 02:27:55 19.2 C 10.88 g/m*3 19.2 C 0 km/h
2772 26-06-2009 02:39:55 18.9 C 10.85 g/m*3 18.9 C 0 km/h
2773 26-06-2009 02:51:55 18.7 C 10.89 g/m*3 18.7 C 0 km/h
2774 26-06-2009 03:03:55 18.5 C 10.92 g/m*3 18.5 C 0 km/h
2775 26-06-2009 03:15:55 18.5 C 11.08 g/m*3 18.5 C 0 km/h
Sensor: Nr:Datum:Temp:Abs-Feuchte:Windchill:Wind:
Aussen-T/F 2776 26-06-2009 03:27:55 18.3 C 10.94 g/m*3 18.3 C 0 km/h
2777 26-06-2009 03:39:55 18 C 10.75 g/m*3 18 C 0 km/h
2778 26-06-2009 03:51:55 17.7 C 10.86 g/m*3 17.7 C 0 km/h
2779 26-06-2009 04:03:55 17.7 C 11.16 g/m*3 17.7 C 0 km/h
2780 26-06-2009 04:15:55 17.5 C 11.03 g/m*3 17.5 C 0 km/h
2781 26-06-2009 04:27:55 17.5 C 11.18 g/m*3 17.5 C 0 km/h
2782 26-06-2009 04:39:55 17.5 C 11.18 g/m*3 17.5 C 0 km/h
2783 26-06-2009 04:51:55 17.4 C 11.12 g/m*3 17.4 C 0 km/h
2784 26-06-2009 05:03:55 17.3 C 11.05 g/m*3 17.3 C 0 km/h
2785 26-06-2009 05:15:55 17.2 C 11.13 g/m*3 17.2 C 0 km/h
2786 26-06-2009 05:27:56 17.2 C 11.28 g/m*3 17.2 C 0 km/h
2787 26-06-2009 05:39:56 17.2 C 11.28 g/m*3 17.2 C 0 km/h
2788 26-06-2009 05:51:56 17.1 C 11.21 g/m*3 17.1 C 0 km/h
2789 26-06-2009 06:03:56 17.4 C 11.41 g/m*3 17.4 C 0 km/h
2790 26-06-2009 06:15:56 17.7 C 11.47 g/m*3 17.7 C 0 km/h
2791 26-06-2009 06:27:56 18.1 C 11.59 g/m*3 18.1 C 0 km/h
2792 26-06-2009 06:39:56 18.5 C 11.55 g/m*3 18.5 C 0 km/h
2793 26-06-2009 06:51:56 18.7 C 11.53 g/m*3 18.7 C 0 km/h
2794 26-06-2009 07:03:54 18.9 C 11.34 g/m*3 18.9 C 0 km/h
2795 26-06-2009 07:15:53 18.9 C 11.18 g/m*3 18.9 C 0 km/h
2796 26-06-2009 07:27:53 19.1 C 11.15 g/m*3 19.1 C 0 km/h
2797 26-06-2009 07:39:53 19.4 C 11.18 g/m*3 19.4 C 0 km/h
2798 26-06-2009 07:51:53 19.8 C 11.1 g/m*3 19.8 C 0 km/h
2799 26-06-2009 08:03:53 20 C 10.89 g/m*3 20 C 0 km/h
2800 26-06-2009 08:15:52 20 C 10.89 g/m*3 20 C 0 km/h
Sensor: Nr:Datum:Temp:Abs-Feuchte:Windchill:Wind:
Aussen-T/F 2801 26-06-2009 08:27:52 20 C 10.71 g/m*3 20 C 0 km/h
2802 26-06-2009 08:39:52 20.1 C 10.78 g/m*3 20.1 C 0 km/h
2803 26-06-2009 08:51:52 19.9 C 10.65 g/m*3 19.9 C 0 km/h
2804 26-06-2009 09:03:52 20.7 C 10.8 g/m*3 20.7 C 0 km/h
2805 26-06-2009 09:15:52 21.2 C 10.38 g/m*3 21.2 C 0 km/h
2806 26-06-2009 09:27:52 21.6 C 10.81 g/m*3 21.6 C 0 km/h
2807 26-06-2009 09:39:52 22.2 C 10.41 g/m*3 22.2 C 0 km/h
2808 26-06-2009 09:51:52 22.3 C 10.66 g/m*3 22.3 C 0 km/h
2809 26-06-2009 10:03:51 22.5 C 10.79 g/m*3 22.5 C 0 km/h
2810 26-06-2009 10:15:52 21.6 C 10.62 g/m*3 21.6 C 0 km/h
2811 26-06-2009 10:27:52 22.1 C 10.74 g/m*3 22.1 C 0 km/h
2812 26-06-2009 10:39:51 22.9 C 11.04 g/m*3 22.9 C 0 km/h
2813 26-06-2009 10:51:51 24 C 10.66 g/m*3 24 C 0 km/h
2814 26-06-2009 11:03:51 22.6 C 10.65 g/m*3 22.6 C 0 km/h
2815 26-06-2009 11:15:51 23.8 C 11.19 g/m*3 23.8 C 0 km/h
2816 26-06-2009 11:27:51 24.6 C 10.8 g/m*3 24.6 C 0 km/h
2817 26-06-2009 11:39:51 24.9 C 10.53 g/m*3 24.9 C 0 km/h
2818 26-06-2009 11:51:51 26.6 C 10.32 g/m*3 26.6 C 0 km/h
2819 26-06-2009 12:03:51 27.9 C 10.01 g/m*3 27.9 C 0 km/h
2820 26-06-2009 12:15:50 28.3 C 9.95 g/m*3 28.3 C 0 km/h
2821 26-06-2009 12:27:50 28 C 9.52 g/m*3 28 C 0 km/h
2822 26-06-2009 12:39:50 29.2 C 8.71 g/m*3 29.2 C 0 km/h
2823 26-06-2009 12:51:50 27.7 C 9.63 g/m*3 27.7 C 0 km/h
2824 26-06-2009 13:03:50 28 C 9.52 g/m*3 28 C 0 km/h
2825 26-06-2009 13:15:49 30.9 C 8.28 g/m*3 30.9 C 0 km/h
Sensor: Nr:Datum:Temp:Abs-Feuchte:Windchill:Wind:
Aussen-T/F 2826 26-06-2009 13:27:49 31.9 C 7.39 g/m*3 31.9 C 0 km/h
2827 26-06-2009 13:39:50 31.8 C 7.01 g/m*3 31.8 C 0 km/h
2828 26-06-2009 13:51:49 31.9 C 7.05 g/m*3 31.9 C 0 km/h
2829 26-06-2009 14:03:49 31.8 C 7.35 g/m*3 31.8 C 0 km/h
2830 26-06-2009 14:15:50 30.4 C 8.68 g/m*3 30.4 C 0 km/h
2831 26-06-2009 14:27:50 30.7 C 8.19 g/m*3 30.7 C 0 km/h
2832 26-06-2009 14:39:49 30.3 C 8.94 g/m*3 30.3 C 0 km/h
2833 26-06-2009 14:51:49 30.3 C 8.63 g/m*3 30.3 C 0 km/h
2834 26-06-2009 15:03:49 30.2 C 8.89 g/m*3 30.2 C 0 km/h
2835 26-06-2009 15:15:49 30 C 8.79 g/m*3 30 C 0 km/h
2836 26-06-2009 15:27:49 30.6 C 8.46 g/m*3 30.6 C 0 km/h
2837 26-06-2009 15:39:48 31 C 8.96 g/m*3 31 C 0 km/h
2838 26-06-2009 15:51:49 31.9 C 8.06 g/m*3 31.9 C 0 km/h
2839 26-06-2009 16:03:48 31.7 C 7.64 g/m*3 31.7 C 0 km/h
2840 26-06-2009 16:15:48 31.6 C 7.27 g/m*3 31.6 C 0 km/h
2841 26-06-2009 16:27:48 32 C 7.43 g/m*3 32 C 0 km/h
2842 26-06-2009 16:39:48 32.3 C 6.86 g/m*3 32.3 C 0 km/h
2843 26-06-2009 16:51:48 32.7 C 7.01 g/m*3 32.7 C 0 km/h
2844 26-06-2009 17:03:48 33 C 7.12 g/m*3 33 C 0 km/h
2845 26-06-2009 17:15:47 32.5 C 6.93 g/m*3 32.5 C 0 km/h
2846 26-06-2009 17:27:47 32.9 C 7.08 g/m*3 32.9 C 0 km/h
2847 26-06-2009 17:39:48 33.3 C 7.23 g/m*3 33.3 C 0 km/h
2848 26-06-2009 17:51:47 32.7 C 7.01 g/m*3 32.7 C 0 km/h
2849 26-06-2009 18:03:47 32.8 C 7.04 g/m*3 32.8 C 0 km/h
2850 26-06-2009 18:15:47 32.6 C 6.97 g/m*3 32.6 C 0 km/h
Sensor: Nr:Datum:Temp:Abs-Feuchte:Windchill:Wind:
Aussen-T/F 2851 26-06-2009 18:27:47 31.9 C 6.72 g/m*3 31.9 C 0 km/h
2852 26-06-2009 18:39:47 32.6 C 6.97 g/m*3 32.6 C 0 km/h
2853 26-06-2009 18:51:46 32.8 C 7.04 g/m*3 32.8 C 0 km/h
2854 26-06-2009 19:03:46 33.2 C 7.2 g/m*3 33.2 C 0 km/h
2855 26-06-2009 19:15:47 31.9 C 7.39 g/m*3 31.9 C 0 km/h
2856 26-06-2009 19:27:47 30.5 C 8.41 g/m*3 30.5 C 0 km/h
2857 26-06-2009 19:39:46 29.2 C 8.42 g/m*3 29.2 C 0 km/h
2858 26-06-2009 19:51:46 28 C 8.7 g/m*3 28 C 0 km/h
2859 26-06-2009 20:03:46 27 C 9.01 g/m*3 27 C 0 km/h
2860 26-06-2009 20:15:46 26.5 C 9.26 g/m*3 26.5 C 0 km/h
2861 26-06-2009 20:27:46 25.7 C 9.58 g/m*3 25.7 C 0 km/h
2862 26-06-2009 20:39:45 25.5 C 9.71 g/m*3 25.5 C 0 km/h
2863 26-06-2009 20:51:46 25.2 C 9.78 g/m*3 25.2 C 0 km/h
2864 26-06-2009 21:03:45 24.7 C 9.96 g/m*3 24.7 C 0 km/h
2865 26-06-2009 21:15:45 24.4 C 10.01 g/m*3 24.4 C 0 km/h
2866 26-06-2009 21:27:46 24.2 C 9.9 g/m*3 24.2 C 0 km/h
2867 26-06-2009 21:39:45 23.9 C 10.17 g/m*3 23.9 C 0 km/h
2868 26-06-2009 21:51:45 23.5 C 10.15 g/m*3 23.5 C 0 km/h
2869 26-06-2009 22:03:44 23.2 C 10.39 g/m*3 23.2 C 0 km/h
2870 26-06-2009 22:15:45 22.9 C 10.42 g/m*3 22.9 C 0 km/h
2871 26-06-2009 22:27:45 22.6 C 10.65 g/m*3 22.6 C 0 km/h
2872 26-06-2009 22:40:45 22.5 C 10.99 g/m*3 22.5 C 0 km/h
2873 26-06-2009 22:52:45 22.5 C 11.19 g/m*3 22.5 C 0 km/h
2874 26-06-2009 23:04:45 22.4 C 11.12 g/m*3 22.4 C 0 km/h
2875 26-06-2009 23:16:45 22.2 C 11.19 g/m*3 22.2 C 0 km/h
Sensor: Nr:Datum:Temp:Abs-Feuchte:Windchill:Wind:
Aussen-T/F 2876 26-06-2009 23:28:45 22 C 11.06 g/m*3 22 C 0 km/h
2877 26-06-2009 23:40:45 21.9 C 11.39 g/m*3 21.9 C 0 km/h
2878 26-06-2009 23:52:45 21.5 C 11.13 g/m*3 21.5 C 0 km/h
2879 27-06-2009 00:04:45 21.5 C 11.5 g/m*3 21.5 C 0 km/h
2880 27-06-2009 00:16:45 21.4 C 11.44 g/m*3 21.4 C 0 km/h
2881 27-06-2009 00:28:45 20.9 C 11.66 g/m*3 20.9 C 0 km/h
2882 27-06-2009 00:40:45 21 C 11.54 g/m*3 21 C 0 km/h
2883 27-06-2009 00:52:46 20.9 C 11.66 g/m*3 20.9 C 0 km/h
2884 27-06-2009 01:04:46 21.2 C 11.86 g/m*3 21.2 C 0 km/h
2885 27-06-2009 01:16:46 21.2 C 11.86 g/m*3 21.2 C 0 km/h
2886 27-06-2009 01:28:46 21 C 11.72 g/m*3 21 C 0 km/h
2887 27-06-2009 01:40:46 20.5 C 11.92 g/m*3 20.5 C 0 km/h
2888 27-06-2009 01:52:46 20.2 C 11.71 g/m*3 20.2 C 0 km/h
2889 27-06-2009 02:04:46 20.1 C 11.82 g/m*3 20.1 C 0 km/h
2890 27-06-2009 02:16:46 20.1 C 11.82 g/m*3 20.1 C 0 km/h
2891 27-06-2009 02:28:46 19.9 C 11.85 g/m*3 19.9 C 0 km/h
2892 27-06-2009 02:40:46 19.6 C 11.65 g/m*3 19.6 C 0 km/h
2893 27-06-2009 02:52:46 19.5 C 11.75 g/m*3 19.5 C 0 km/h
2894 27-06-2009 03:04:46 19.5 C 11.58 g/m*3 19.5 C 0 km/h
2895 27-06-2009 03:16:46 19.3 C 11.61 g/m*3 19.3 C 0 km/h
2896 27-06-2009 03:28:46 19 C 11.41 g/m*3 19 C 0 km/h
2897 27-06-2009 03:40:46 18.9 C 11.66 g/m*3 18.9 C 0 km/h
2898 27-06-2009 03:52:46 18.8 C 11.76 g/m*3 18.8 C 0 km/h
2899 27-06-2009 04:04:46 18.5 C 11.71 g/m*3 18.5 C 0 km/h
2900 27-06-2009 04:16:46 18.4 C 11.64 g/m*3 18.4 C 0 km/h
Sensor: Nr:Datum:Temp:Abs-Feuchte:Windchill:Wind:
Aussen-T/F 2901 27-06-2009 04:28:46 18.3 C 11.73 g/m*3 18.3 C 0 km/h
2902 27-06-2009 04:40:47 18.1 C 11.74 g/m*3 18.1 C 0 km/h
2903 27-06-2009 04:52:47 17.8 C 11.84 g/m*3 17.8 C 0 km/h
2904 27-06-2009 05:04:47 17.8 C 11.84 g/m*3 17.8 C 0 km/h
2905 27-06-2009 05:16:47 17.7 C 11.92 g/m*3 17.7 C 0 km/h
2906 27-06-2009 05:28:47 17.9 C 12.06 g/m*3 17.9 C 0 km/h
2907 27-06-2009 05:40:47 17.9 C 11.91 g/m*3 17.9 C 0 km/h
2908 27-06-2009 05:52:47 18 C 11.83 g/m*3 18 C 0 km/h
2909 27-06-2009 06:04:47 18.1 C 11.9 g/m*3 18.1 C 0 km/h
2910 27-06-2009 06:16:47 18 C 11.83 g/m*3 18 C 0 km/h
2911 27-06-2009 06:28:47 18.2 C 11.97 g/m*3 18.2 C 0 km/h
2912 27-06-2009 06:40:47 18.2 C 11.97 g/m*3 18.2 C 0 km/h
2913 27-06-2009 06:52:47 18.4 C 12.11 g/m*3 18.4 C 0 km/h
2914 27-06-2009 07:04:47 18.7 C 12.17 g/m*3 18.7 C 0 km/h
2915 27-06-2009 07:16:47 18.7 C 12.01 g/m*3 18.7 C 0 km/h
2916 27-06-2009 07:28:47 18.3 C 11.88 g/m*3 18.3 C 0 km/h
2917 27-06-2009 07:40:47 18.5 C 12.18 g/m*3 18.5 C 0 km/h
2918 27-06-2009 07:52:47 18.7 C 12.17 g/m*3 18.7 C 0 km/h
2919 27-06-2009 08:04:47 19 C 12.06 g/m*3 19 C 0 km/h
2920 27-06-2009 08:16:47 19.7 C 12.4 g/m*3 19.7 C 0 km/h
2921 27-06-2009 08:28:48 20.3 C 11.96 g/m*3 20.3 C 0 km/h
2922 27-06-2009 08:40:48 20.5 C 12.28 g/m*3 20.5 C 0 km/h
2923 27-06-2009 08:52:48 21.2 C 12.23 g/m*3 21.2 C 0 km/h
2924 27-06-2009 09:04:48 21.5 C 12.07 g/m*3 21.5 C 0 km/h
2925 27-06-2009 09:16:44 21.6 C 12.14 g/m*3 21.6 C 0 km/h
Sensor: Nr:Datum:Temp:Abs-Feuchte:Windchill:Wind:
Aussen-T/F 2926 27-06-2009 09:28:44 22.4 C 12.31 g/m*3 22.4 C 0 km/h
2927 27-06-2009 09:40:44 23.1 C 11.99 g/m*3 23.1 C 0 km/h
2928 27-06-2009 09:52:44 23.5 C 11.84 g/m*3 23.5 C 0 km/h
2929 27-06-2009 10:04:44 23.7 C 11.55 g/m*3 23.7 C 0 km/h
2930 27-06-2009 10:16:44 24.1 C 11.6 g/m*3 24.1 C 0 km/h
2931 27-06-2009 10:28:44 24.5 C 11.41 g/m*3 24.5 C 0 km/h
2932 27-06-2009 10:40:43 24.5 C 11.19 g/m*3 24.5 C 0 km/h
2933 27-06-2009 10:52:44 24.6 C 11.7 g/m*3 24.6 C 0 km/h
2934 27-06-2009 11:04:43 25.3 C 11.47 g/m*3 25.3 C 0 km/h
2935 27-06-2009 11:16:43 26.2 C 11.08 g/m*3 26.2 C 0 km/h
2936 27-06-2009 11:28:43 26.1 C 11.02 g/m*3 26.1 C 0 km/h
2937 27-06-2009 11:40:43 25.9 C 10.89 g/m*3 25.9 C 0 km/h
2938 27-06-2009 11:52:43 28 C 10.88 g/m*3 28 C 0 km/h
2939 27-06-2009 12:04:43 28.4 C 10.56 g/m*3 28.4 C 0 km/h
2940 27-06-2009 12:16:42 26 C 10.47 g/m*3 26 C 0 km/h
2941 27-06-2009 12:28:42 25.4 C 10.83 g/m*3 25.4 C 0 km/h
2942 27-06-2009 12:40:43 26.9 C 11.01 g/m*3 26.9 C 0 km/h
2943 27-06-2009 12:52:42 28.1 C 10.12 g/m*3 28.1 C 0 km/h
2944 27-06-2009 13:04:43 28.9 C 10.86 g/m*3 28.9 C 0 km/h
2945 27-06-2009 13:16:42 27.4 C 9.47 g/m*3 27.4 C 0 km/h
2946 27-06-2009 13:28:42 28.5 C 9.78 g/m*3 28.5 C 0 km/h
2947 27-06-2009 13:40:42 29.9 C 9.95 g/m*3 29.9 C 0 km/h
2948 27-06-2009 13:52:42 28.3 C 9.95 g/m*3 28.3 C 0 km/h
2949 27-06-2009 14:04:42 27 C 10.29 g/m*3 27 C 0 km/h
2950 27-06-2009 14:16:31 26.4 C 10.7 g/m*3 26.4 C 0 km/h
Sensor: Nr:Datum:Temp:Abs-Feuchte:Windchill:Wind:
Aussen-T/F 2951 27-06-2009 14:28:31 23.4 C 13.04 g/m*3 23.4 C 0 km/h
2952 27-06-2009 14:40:32 21.8 C 14.2 g/m*3 21.8 C 0 km/h
2953 27-06-2009 14:52:32 21.3 C 14.54 g/m*3 21.3 C 0 km/h
2954 27-06-2009 15:04:41 21.2 C 14.64 g/m*3 21.2 C 0 km/h
2955 27-06-2009 15:16:41 21.4 C 15.19 g/m*3 21.4 C 0 km/h
2956 27-06-2009 15:28:41 21.2 C 15.01 g/m*3 21.2 C 0 km/h
2957 27-06-2009 15:40:41 21.7 C 15.64 g/m*3 21.7 C 0 km/h
2958 27-06-2009 15:52:40 23 C 16.65 g/m*3 23 C 0 km/h
2959 27-06-2009 16:04:40 24.4 C 16.69 g/m*3 24.4 C 0 km/h
2960 27-06-2009 16:16:41 26.8 C 14.76 g/m*3 26.8 C 0 km/h
2961 27-06-2009 16:28:41 27.6 C 12.77 g/m*3 27.6 C 0 km/h
2962 27-06-2009 16:40:40 26.1 C 12.98 g/m*3 26.1 C 0 km/h
2963 27-06-2009 16:52:01 25.5 C 13.97 g/m*3 25.5 C 0 km/h
2964 27-06-2009 17:04:01 25.4 C 14.36 g/m*3 25.4 C 0 km/h
2965 27-06-2009 17:16:01 25.6 C 14.05 g/m*3 25.6 C 0 km/h
2966 27-06-2009 17:28:01 25.4 C 13.89 g/m*3 25.4 C 0 km/h
2967 27-06-2009 17:40:02 25.4 C 13.89 g/m*3 25.4 C 0 km/h
2968 27-06-2009 17:52:01 25 C 13.35 g/m*3 25 C 0 km/h
2969 27-06-2009 18:04:01 23.9 C 13.63 g/m*3 23.9 C 0 km/h
2970 27-06-2009 18:16:01 23.5 C 13.53 g/m*3 23.5 C 0 km/h
2971 27-06-2009 18:28:01 23.5 C 13.32 g/m*3 23.5 C 0 km/h
2972 27-06-2009 18:40:01 23.6 C 13.19 g/m*3 23.6 C 0 km/h
2973 27-06-2009 18:52:00 23.6 C 13.4 g/m*3 23.6 C 0 km/h
2974 27-06-2009 19:04:01 23.6 C 13.4 g/m*3 23.6 C 0 km/h
2975 27-06-2009 19:16:00 23.8 C 13.55 g/m*3 23.8 C 0 km/h
Sensor: Nr:Datum:Temp:Abs-Feuchte:Windchill:Wind:
Aussen-T/F 2976 27-06-2009 19:28:00 23.8 C 13.55 g/m*3 23.8 C 0 km/h
2977 27-06-2009 19:40:00 24 C 13.49 g/m*3 24 C 0 km/h
2978 27-06-2009 19:52:00 23.7 C 13.05 g/m*3 23.7 C 0 km/h
2979 27-06-2009 20:04:00 23.7 C 13.05 g/m*3 23.7 C 0 km/h
2980 27-06-2009 20:16:00 23.2 C 12.68 g/m*3 23.2 C 0 km/h
2981 27-06-2009 20:28:00 22.9 C 12.67 g/m*3 22.9 C 0 km/h
2982 27-06-2009 20:40:59 22.7 C 12.53 g/m*3 22.7 C 0 km/h
2983 27-06-2009 20:52:00 22.6 C 12.86 g/m*3 22.6 C 0 km/h
2984 27-06-2009 21:04:59 22.5 C 12.78 g/m*3 22.5 C 0 km/h
2985 27-06-2009 21:16:00 22.3 C 12.83 g/m*3 22.3 C 0 km/h
2986 27-06-2009 21:28:00 22 C 12.81 g/m*3 22 C 0 km/h
2987 27-06-2009 21:40:59 21.6 C 12.9 g/m*3 21.6 C 0 km/h
2988 27-06-2009 21:52:58 21.2 C 12.6 g/m*3 21.2 C 0 km/h
2989 27-06-2009 22:04:59 20.7 C 12.78 g/m*3 20.7 C 0 km/h
2990 27-06-2009 22:17:00 20.3 C 12.84 g/m*3 20.3 C 0 km/h
2991 27-06-2009 22:29:00 20.2 C 12.76 g/m*3 20.2 C 0 km/h
2992 27-06-2009 22:41:00 20 C 12.44 g/m*3 20 C 0 km/h
2993 27-06-2009 22:53:00 20.1 C 12.52 g/m*3 20.1 C 0 km/h
2994 27-06-2009 23:05:00 19.8 C 12.47 g/m*3 19.8 C 0 km/h
2995 27-06-2009 23:17:00 19.7 C 12.57 g/m*3 19.7 C 0 km/h
2996 27-06-2009 23:29:00 19.7 C 12.57 g/m*3 19.7 C 0 km/h
2997 27-06-2009 23:41:00 19.7 C 12.74 g/m*3 19.7 C 0 km/h
2998 27-06-2009 23:53:00 19.8 C 12.98 g/m*3 19.8 C 0 km/h
2999 28-06-2009 00:05:00 19.8 C 13.15 g/m*3 19.8 C 0 km/h
3000 28-06-2009 00:17:00 19.6 C 13 g/m*3 19.6 C 0 km/h
Sensor: Nr:Datum:Temp:Abs-Feuchte:Windchill:Wind:
Aussen-T/F 3001 28-06-2009 00:29:00 19.8 C 13.32 g/m*3 19.8 C 0 km/h
3002 28-06-2009 00:41:00 19.7 C 13.08 g/m*3 19.7 C 0 km/h
3003 28-06-2009 00:53:00 19.6 C 13 g/m*3 19.6 C 0 km/h
3004 28-06-2009 01:05:00 19.7 C 13.25 g/m*3 19.7 C 0 km/h
3005 28-06-2009 01:17:01 19.9 C 13.23 g/m*3 19.9 C 0 km/h
3006 28-06-2009 01:29:01 19.8 C 13.15 g/m*3 19.8 C 0 km/h
3007 28-06-2009 01:41:01 19.6 C 13 g/m*3 19.6 C 0 km/h
3008 28-06-2009 01:53:01 19.5 C 12.92 g/m*3 19.5 C 0 km/h
3009 28-06-2009 02:05:01 19.5 C 12.92 g/m*3 19.5 C 0 km/h
3010 28-06-2009 02:17:01 19.5 C 12.92 g/m*3 19.5 C 0 km/h
3011 28-06-2009 02:29:01 19.5 C 12.92 g/m*3 19.5 C 0 km/h
3012 28-06-2009 02:41:01 19.5 C 12.92 g/m*3 19.5 C 0 km/h
3013 28-06-2009 02:53:01 19.3 C 12.77 g/m*3 19.3 C 0 km/h
3014 28-06-2009 03:05:01 19.3 C 12.94 g/m*3 19.3 C 0 km/h
3015 28-06-2009 03:17:01 19.3 C 12.94 g/m*3 19.3 C 0 km/h
3016 28-06-2009 03:29:01 19.4 C 13.01 g/m*3 19.4 C 0 km/h
3017 28-06-2009 03:41:01 19.4 C 13.01 g/m*3 19.4 C 0 km/h
3018 28-06-2009 03:53:01 19.4 C 13.01 g/m*3 19.4 C 0 km/h
3019 28-06-2009 04:05:01 19.3 C 12.94 g/m*3 19.3 C 0 km/h
3020 28-06-2009 04:17:01 19.4 C 13.01 g/m*3 19.4 C 0 km/h
3021 28-06-2009 04:29:01 19.3 C 12.94 g/m*3 19.3 C 0 km/h
3022 28-06-2009 04:41:01 19.3 C 12.94 g/m*3 19.3 C 0 km/h
3023 28-06-2009 04:53:01 19.1 C 12.95 g/m*3 19.1 C 0 km/h
3024 28-06-2009 05:05:02 19.1 C 12.95 g/m*3 19.1 C 0 km/h
3025 28-06-2009 05:17:02 19.1 C 12.95 g/m*3 19.1 C 0 km/h
Sensor: Nr:Datum:Temp:Abs-Feuchte:Windchill:Wind:
Aussen-T/F 3026 28-06-2009 05:29:02 19 C 12.87 g/m*3 19 C 0 km/h
3027 28-06-2009 05:41:02 19.1 C 12.95 g/m*3 19.1 C 0 km/h
3028 28-06-2009 05:53:02 19.1 C 12.95 g/m*3 19.1 C 0 km/h
3029 28-06-2009 06:05:02 19.1 C 12.95 g/m*3 19.1 C 0 km/h
3030 28-06-2009 06:17:02 19.1 C 12.95 g/m*3 19.1 C 0 km/h
3031 28-06-2009 06:29:02 19.1 C 13.11 g/m*3 19.1 C 0 km/h
3032 28-06-2009 06:41:02 18.9 C 13.28 g/m*3 18.9 C 0 km/h
3033 28-06-2009 06:53:02 18.7 C 13.13 g/m*3 18.7 C 0 km/h
3034 28-06-2009 07:05:02 18.7 C 13.29 g/m*3 18.7 C 0 km/h
3035 28-06-2009 07:17:02 19.1 C 13.44 g/m*3 19.1 C 0 km/h
3036 28-06-2009 07:29:02 19.3 C 13.27 g/m*3 19.3 C 0 km/h
3037 28-06-2009 07:41:02 19.5 C 13.26 g/m*3 19.5 C 0 km/h
3038 28-06-2009 07:53:00 20 C 13.31 g/m*3 20 C 0 km/h
3039 28-06-2009 08:05:00 20.1 C 12.86 g/m*3 20.1 C 0 km/h
3040 28-06-2009 08:17:59 20.3 C 13.01 g/m*3 20.3 C 0 km/h
3041 28-06-2009 08:29:59 20.8 C 13.04 g/m*3 20.8 C 0 km/h
3042 28-06-2009 08:41:59 21.3 C 12.49 g/m*3 21.3 C 0 km/h
3043 28-06-2009 08:53:59 21.6 C 12.33 g/m*3 21.6 C 0 km/h
3044 28-06-2009 09:05:00 22.2 C 11.98 g/m*3 22.2 C 0 km/h
3045 28-06-2009 09:17:59 22.3 C 11.65 g/m*3 22.3 C 0 km/h
3046 28-06-2009 09:29:59 22.5 C 11.98 g/m*3 22.5 C 0 km/h
3047 28-06-2009 09:41:59 23.2 C 11.85 g/m*3 23.2 C 0 km/h
3048 28-06-2009 09:53:58 23.5 C 11.84 g/m*3 23.5 C 0 km/h
3049 28-06-2009 10:05:59 23.7 C 11.34 g/m*3 23.7 C 0 km/h
3050 28-06-2009 10:17:58 24.1 C 10.94 g/m*3 24.1 C 0 km/h
Sensor: Nr:Datum:Temp:Abs-Feuchte:Windchill:Wind:
Aussen-T/F 3051 28-06-2009 10:29:58 25.1 C 11.11 g/m*3 25.1 C 0 km/h
3052 28-06-2009 10:41:58 25.5 C 9.71 g/m*3 25.5 C 0 km/h
3053 28-06-2009 10:53:58 25.2 C 10.01 g/m*3 25.2 C 0 km/h
3054 28-06-2009 11:05:58 26.4 C 10.21 g/m*3 26.4 C 0 km/h
3055 28-06-2009 11:17:58 27.1 C 9.83 g/m*3 27.1 C 0 km/h
3056 28-06-2009 11:29:58 27.2 C 9.89 g/m*3 27.2 C 0 km/h
3057 28-06-2009 11:41:57 27.4 C 9.74 g/m*3 27.4 C 0 km/h
3058 28-06-2009 11:53:58 27.5 C 9.52 g/m*3 27.5 C 0 km/h
3059 28-06-2009 12:05:57 27.1 C 9.58 g/m*3 27.1 C 0 km/h
3060 28-06-2009 12:17:57 26.9 C 9.98 g/m*3 26.9 C 0 km/h
3061 28-06-2009 12:29:57 28.3 C 9.95 g/m*3 28.3 C 0 km/h
3062 28-06-2009 12:41:57 29.8 C 9.6 g/m*3 29.8 C 0 km/h
3063 28-06-2009 12:53:57 30.1 C 9.76 g/m*3 30.1 C 0 km/h
3064 28-06-2009 13:05:56 30 C 9.4 g/m*3 30 C 0 km/h
3065 28-06-2009 13:17:57 29.4 C 9.39 g/m*3 29.4 C 0 km/h
3066 28-06-2009 13:29:57 29.3 C 9.63 g/m*3 29.3 C 0 km/h
3067 28-06-2009 13:41:57 30.3 C 9.25 g/m*3 30.3 C 0 km/h
3068 28-06-2009 13:53:56 30 C 9.1 g/m*3 30 C 0 km/h
3069 28-06-2009 14:05:57 30.4 C 8.99 g/m*3 30.4 C 0 km/h
3070 28-06-2009 14:17:56 30.4 C 8.37 g/m*3 30.4 C 0 km/h
3071 28-06-2009 14:29:56 30.4 C 8.68 g/m*3 30.4 C 0 km/h
3072 28-06-2009 14:41:56 30.5 C 9.03 g/m*3 30.5 C 0 km/h
3073 28-06-2009 14:53:56 30.6 C 8.46 g/m*3 30.6 C 0 km/h
3074 28-06-2009 15:05:56 30.7 C 8.82 g/m*3 30.7 C 0 km/h
3075 28-06-2009 15:17:55 31 C 8.32 g/m*3 31 C 0 km/h
Sensor: Nr:Datum:Temp:Abs-Feuchte:Windchill:Wind:
Aussen-T/F 3076 28-06-2009 15:29:55 31.2 C 8.09 g/m*3 31.2 C 0 km/h
3077 28-06-2009 15:41:55 31.5 C 8.22 g/m*3 31.5 C 0 km/h
3078 28-06-2009 15:53:55 32.1 C 7.47 g/m*3 32.1 C 0 km/h
3079 28-06-2009 16:05:55 32.3 C 7.55 g/m*3 32.3 C 0 km/h
3080 28-06-2009 16:17:55 31.9 C 8.06 g/m*3 31.9 C 0 km/h
3081 28-06-2009 16:29:55 32 C 7.43 g/m*3 32 C 0 km/h
3082 28-06-2009 16:41:55 32.1 C 7.13 g/m*3 32.1 C 0 km/h
3083 28-06-2009 16:53:54 31.7 C 7.64 g/m*3 31.7 C 0 km/h
3084 28-06-2009 17:05:54 31 C 7.68 g/m*3 31 C 0 km/h
3085 28-06-2009 17:17:55 31.9 C 7.72 g/m*3 31.9 C 0 km/h
3086 28-06-2009 17:29:55 31.5 C 6.9 g/m*3 31.5 C 0 km/h
3087 28-06-2009 17:41:54 31.8 C 7.01 g/m*3 31.8 C 0 km/h
3088 28-06-2009 17:53:54 31.5 C 6.57 g/m*3 31.5 C 0 km/h
3089 28-06-2009 18:05:54 31.9 C 7.05 g/m*3 31.9 C 0 km/h
3090 28-06-2009 18:17:54 32.6 C 6.97 g/m*3 32.6 C 0 km/h
3091 28-06-2009 18:29:55 32.7 C 7.36 g/m*3 32.7 C 0 km/h
3092 28-06-2009 18:41:53 32.7 C 7.01 g/m*3 32.7 C 0 km/h
3093 28-06-2009 18:53:54 32.7 C 7.01 g/m*3 32.7 C 0 km/h
3094 28-06-2009 19:05:53 32.3 C 6.86 g/m*3 32.3 C 0 km/h
3095 28-06-2009 19:17:53 30.9 C 7.64 g/m*3 30.9 C 0 km/h
3096 28-06-2009 19:29:53 30.9 C 7.96 g/m*3 30.9 C 0 km/h
3097 28-06-2009 19:41:53 31 C 8 g/m*3 31 C 0 km/h
3098 28-06-2009 19:53:53 31 C 8 g/m*3 31 C 0 km/h
3099 28-06-2009 20:05:53 30.9 C 8.28 g/m*3 30.9 C 0 km/h
3100 28-06-2009 20:17:52 30.6 C 8.77 g/m*3 30.6 C 0 km/h
Sensor: Nr:Datum:Temp:Abs-Feuchte:Windchill:Wind:
Aussen-T/F 3101 28-06-2009 20:29:52 30.1 C 9.45 g/m*3 30.1 C 0 km/h
3102 28-06-2009 20:41:53 29.5 C 9.74 g/m*3 29.5 C 0 km/h
3103 28-06-2009 20:53:52 28.5 C 9.78 g/m*3 28.5 C 0 km/h
3104 28-06-2009 21:05:52 26.7 C 9.87 g/m*3 26.7 C 0 km/h
3105 28-06-2009 21:17:52 26.4 C 9.96 g/m*3 26.4 C 0 km/h
3106 28-06-2009 21:29:52 25.9 C 10.17 g/m*3 25.9 C 0 km/h
3107 28-06-2009 21:41:52 25.4 C 9.89 g/m*3 25.4 C 0 km/h
3108 28-06-2009 21:53:51 25.3 C 10.3 g/m*3 25.3 C 0 km/h
3109 28-06-2009 22:05:52 25 C 10.59 g/m*3 25 C 0 km/h
3110 28-06-2009 22:17:52 24.6 C 10.8 g/m*3 24.6 C 0 km/h
3111 28-06-2009 22:29:52 24.4 C 10.9 g/m*3 24.4 C 0 km/h
3112 28-06-2009 22:42:52 24.1 C 10.94 g/m*3 24.1 C 0 km/h
3113 28-06-2009 22:54:52 23.9 C 11.25 g/m*3 23.9 C 0 km/h
3114 28-06-2009 23:06:52 23.7 C 11.34 g/m*3 23.7 C 0 km/h
3115 28-06-2009 23:18:52 23.5 C 11.42 g/m*3 23.5 C 0 km/h
3116 28-06-2009 23:30:52 23.2 C 11.43 g/m*3 23.2 C 0 km/h
3117 28-06-2009 23:42:52 23 C 11.3 g/m*3 23 C 0 km/h
3118 28-06-2009 23:54:52 22.8 C 11.38 g/m*3 22.8 C 0 km/h
3119 29-06-2009 00:06:52 22.5 C 11.58 g/m*3 22.5 C 0 km/h
3120 29-06-2009 00:18:52 22.1 C 11.52 g/m*3 22.1 C 0 km/h
3121 29-06-2009 00:30:52 21.9 C 11.58 g/m*3 21.9 C 0 km/h
3122 29-06-2009 00:42:52 21.8 C 11.7 g/m*3 21.8 C 0 km/h
3123 29-06-2009 00:54:52 21.6 C 11.57 g/m*3 21.6 C 0 km/h
3124 29-06-2009 01:06:52 21.5 C 11.69 g/m*3 21.5 C 0 km/h
3125 29-06-2009 01:18:52 21.2 C 11.49 g/m*3 21.2 C 0 km/h
Sensor: Nr:Datum:Temp:Abs-Feuchte:Windchill:Wind:
Aussen-T/F 3126 29-06-2009 01:30:53 20.9 C 11.66 g/m*3 20.9 C 0 km/h
3127 29-06-2009 01:42:53 20.8 C 11.77 g/m*3 20.8 C 0 km/h
3128 29-06-2009 01:54:53 20.5 C 11.74 g/m*3 20.5 C 0 km/h
3129 29-06-2009 02:06:53 20.4 C 11.85 g/m*3 20.4 C 0 km/h
3130 29-06-2009 02:18:53 20.2 C 11.89 g/m*3 20.2 C 0 km/h
3131 29-06-2009 02:30:53 20.1 C 11.82 g/m*3 20.1 C 0 km/h
3132 29-06-2009 02:42:53 20.2 C 12.06 g/m*3 20.2 C 0 km/h
3133 29-06-2009 02:54:53 20.4 C 12.03 g/m*3 20.4 C 0 km/h
3134 29-06-2009 03:06:53 20 C 11.92 g/m*3 20 C 0 km/h
3135 29-06-2009 03:18:53 19.8 C 11.96 g/m*3 19.8 C 0 km/h
3136 29-06-2009 03:30:53 19.6 C 11.99 g/m*3 19.6 C 0 km/h
3137 29-06-2009 03:42:53 19.5 C 11.92 g/m*3 19.5 C 0 km/h
3138 29-06-2009 03:54:53 19.3 C 11.78 g/m*3 19.3 C 0 km/h
3139 29-06-2009 04:06:53 19.3 C 11.94 g/m*3 19.3 C 0 km/h
3140 29-06-2009 04:18:53 19.1 C 11.8 g/m*3 19.1 C 0 km/h
3141 29-06-2009 04:30:53 19 C 11.73 g/m*3 19 C 0 km/h
3142 29-06-2009 04:42:53 18.8 C 11.92 g/m*3 18.8 C 0 km/h
3143 29-06-2009 04:54:53 18.7 C 12.01 g/m*3 18.7 C 0 km/h
3144 29-06-2009 05:06:53 18.5 C 12.02 g/m*3 18.5 C 0 km/h
3145 29-06-2009 05:18:54 18.4 C 11.95 g/m*3 18.4 C 0 km/h
3146 29-06-2009 05:30:54 18.4 C 11.95 g/m*3 18.4 C 0 km/h
3147 29-06-2009 05:42:54 18.3 C 12.04 g/m*3 18.3 C 0 km/h
3148 29-06-2009 05:54:54 18.3 C 12.04 g/m*3 18.3 C 0 km/h
3149 29-06-2009 06:06:54 18.3 C 12.04 g/m*3 18.3 C 0 km/h
3150 29-06-2009 06:18:54 18.2 C 12.12 g/m*3 18.2 C 0 km/h
Sensor: Nr:Datum:Temp:Abs-Feuchte:Windchill:Wind:
Aussen-T/F 3151 29-06-2009 06:30:54 18.1 C 12.21 g/m*3 18.1 C 0 km/h
3152 29-06-2009 06:42:54 18 C 12.29 g/m*3 18 C 0 km/h
3153 29-06-2009 06:54:54 18 C 12.29 g/m*3 18 C 0 km/h
3154 29-06-2009 07:06:51 18.3 C 12.51 g/m*3 18.3 C 0 km/h
3155 29-06-2009 07:18:52 18.3 C 12.35 g/m*3 18.3 C 0 km/h
3156 29-06-2009 07:30:52 18.5 C 12.5 g/m*3 18.5 C 0 km/h
3157 29-06-2009 07:42:52 18.7 C 12.49 g/m*3 18.7 C 0 km/h
3158 29-06-2009 07:54:51 18.8 C 12.56 g/m*3 18.8 C 0 km/h
3159 29-06-2009 08:06:52 19.2 C 12.53 g/m*3 19.2 C 0 km/h
3160 29-06-2009 08:18:51 19.5 C 12.59 g/m*3 19.5 C 0 km/h
3161 29-06-2009 08:30:51 19.9 C 12.71 g/m*3 19.9 C 0 km/h
3162 29-06-2009 08:42:52 20.2 C 12.41 g/m*3 20.2 C 0 km/h
3163 29-06-2009 08:54:51 20.5 C 12.63 g/m*3 20.5 C 0 km/h
3164 29-06-2009 09:06:51 21.2 C 12.79 g/m*3 21.2 C 0 km/h
3165 29-06-2009 09:18:50 21.9 C 12.74 g/m*3 21.9 C 0 km/h
3166 29-06-2009 09:30:50 22.6 C 12.66 g/m*3 22.6 C 0 km/h
3167 29-06-2009 09:42:50 23.3 C 12.75 g/m*3 23.3 C 0 km/h
3168 29-06-2009 09:54:50 23.9 C 12.55 g/m*3 23.9 C 0 km/h
3169 29-06-2009 10:06:50 24.4 C 12.46 g/m*3 24.4 C 0 km/h
3170 29-06-2009 10:18:49 24.8 C 12.06 g/m*3 24.8 C 0 km/h
3171 29-06-2009 10:30:50 25.3 C 11.94 g/m*3 25.3 C 0 km/h
3172 29-06-2009 10:42:50 25.8 C 11.8 g/m*3 25.8 C 0 km/h
3173 29-06-2009 10:54:49 26.4 C 11.2 g/m*3 26.4 C 0 km/h
3174 29-06-2009 11:06:49 27 C 11.32 g/m*3 27 C 0 km/h
3175 29-06-2009 11:18:50 27.3 C 10.99 g/m*3 27.3 C 0 km/h
Sensor: Nr:Datum:Temp:Abs-Feuchte:Windchill:Wind:
Aussen-T/F 3176 29-06-2009 11:30:49 27.8 C 11.03 g/m*3 27.8 C 0 km/h
3177 29-06-2009 11:42:49 28.8 C 11.08 g/m*3 28.8 C 0 km/h
3178 29-06-2009 11:54:49 29.2 C 10.45 g/m*3 29.2 C 0 km/h
3179 29-06-2009 12:06:49 29.5 C 10.33 g/m*3 29.5 C 0 km/h
3180 29-06-2009 12:18:49 30.4 C 10.23 g/m*3 30.4 C 0 km/h
3181 29-06-2009 12:30:49 30.9 C 9.55 g/m*3 30.9 C 0 km/h
3182 29-06-2009 12:42:49 31 C 9.6 g/m*3 31 C 0 km/h
3183 29-06-2009 12:54:49 31.6 C 8.59 g/m*3 31.6 C 0 km/h
3184 29-06-2009 13:06:48 32 C 8.78 g/m*3 32 C 0 km/h
3185 29-06-2009 13:18:48 32.3 C 8.23 g/m*3 32.3 C 0 km/h
3186 29-06-2009 13:30:48 31.9 C 8.06 g/m*3 31.9 C 0 km/h
3187 29-06-2009 13:42:48 31.2 C 9.06 g/m*3 31.2 C 0 km/h
3188 29-06-2009 13:54:48 28.7 C 10.17 g/m*3 28.7 C 0 km/h
3189 29-06-2009 14:06:48 28.7 C 10.17 g/m*3 28.7 C 0 km/h
3190 29-06-2009 14:18:47 28.3 C 10.23 g/m*3 28.3 C 0 km/h
3191 29-06-2009 14:30:48 28.5 C 10.06 g/m*3 28.5 C 0 km/h
3192 29-06-2009 14:42:49 28.2 C 9.9 g/m*3 28.2 C 0 km/h
3193 29-06-2009 14:54:47 28.8 C 10.23 g/m*3 28.8 C 0 km/h
3194 29-06-2009 15:06:47 29.1 C 10.11 g/m*3 29.1 C 0 km/h
3195 29-06-2009 15:18:47 30 C 10.01 g/m*3 30 C 0 km/h
3196 29-06-2009 15:30:47 30.2 C 10.12 g/m*3 30.2 C 0 km/h
3197 29-06-2009 15:42:47 29.9 C 10.25 g/m*3 29.9 C 0 km/h
3198 29-06-2009 15:54:46 29.4 C 9.98 g/m*3 29.4 C 0 km/h
3199 29-06-2009 16:06:47 29.3 C 10.51 g/m*3 29.3 C 0 km/h
3200 29-06-2009 16:18:47 29.2 C 10.45 g/m*3 29.2 C 0 km/h
Sensor: Nr:Datum:Temp:Abs-Feuchte:Windchill:Wind:
Aussen-T/F 3201 29-06-2009 16:30:46 29.5 C 11.22 g/m*3 29.5 C 0 km/h
3202 29-06-2009 16:42:46 29.3 C 10.51 g/m*3 29.3 C 0 km/h
3203 29-06-2009 16:54:47 29.5 C 10.92 g/m*3 29.5 C 0 km/h
3204 29-06-2009 17:06:46 29.1 C 10.69 g/m*3 29.1 C 0 km/h
3205 29-06-2009 17:18:46 28.8 C 11.08 g/m*3 28.8 C 0 km/h
3206 29-06-2009 17:30:46 29 C 11.78 g/m*3 29 C 0 km/h
3207 29-06-2009 17:42:46 30.1 C 10.98 g/m*3 30.1 C 0 km/h
3208 29-06-2009 17:54:46 30.1 C 10.37 g/m*3 30.1 C 0 km/h
3209 29-06-2009 18:06:46 30.6 C 10.65 g/m*3 30.6 C 0 km/h
3210 29-06-2009 18:18:45 31.5 C 8.88 g/m*3 31.5 C 0 km/h
3211 29-06-2009 18:30:45 31.5 C 10.19 g/m*3 31.5 C 0 km/h
3212 29-06-2009 18:42:45 31.2 C 10.03 g/m*3 31.2 C 0 km/h
3213 29-06-2009 18:54:45 31.3 C 9.76 g/m*3 31.3 C 0 km/h
3214 29-06-2009 19:06:45 31.1 C 9.97 g/m*3 31.1 C 0 km/h
3215 29-06-2009 19:18:45 30.4 C 10.23 g/m*3 30.4 C 0 km/h
3216 29-06-2009 19:30:45 30.2 C 11.34 g/m*3 30.2 C 0 km/h
3217 29-06-2009 19:42:45 29.9 C 10.56 g/m*3 29.9 C 0 km/h
3218 29-06-2009 19:54:45 28.8 C 10.51 g/m*3 28.8 C 0 km/h
3219 29-06-2009 20:06:44 28.9 C 10.86 g/m*3 28.9 C 0 km/h
3220 29-06-2009 20:18:45 29 C 11.2 g/m*3 29 C 0 km/h
3221 29-06-2009 20:30:44 28.7 C 11.02 g/m*3 28.7 C 0 km/h
3222 29-06-2009 20:42:44 28.4 C 11.4 g/m*3 28.4 C 0 km/h
3223 29-06-2009 20:54:44 27.6 C 10.91 g/m*3 27.6 C 0 km/h
3224 29-06-2009 21:06:44 27.2 C 11.45 g/m*3 27.2 C 0 km/h
3225 29-06-2009 21:18:44 26.2 C 11.32 g/m*3 26.2 C 0 km/h
Sensor: